[[{"header":{"parameterUnit":"m.s-1","parameterCategory":1,"la1":30.6,"la2":29.2853,"lo1":-89.7004,"lo2":-87.6739,"dy":0.0162,"dx":0.0183,"nx":112,"ny":82,"refTime":"2023-10-20T12:00:00:Z","depth":0,"parameterNumber":2,"parameterNumberName":"U-component_of_WINDS"},"data":[0.0,0.0,0.0,0.0,0.0,0.0,0.0,0.0,0.0,0.0,0.0,0.0,0.0,0.0,0.0,0.0,0.0,0.0,0.0,0.0,0.0,0.0,0.0,0.0,0.0,0.0,0.0,0.0,0.0,0.0,0.0,0.0,0.0,0.0,0.0,0.0,0.0,0.0,0.0,0.0,0.0,0.0,0.0,0.0,0.0,0.0,0.0,0.0,0.0,0.0,0.0,0.0,0.0,0.0,0.0,0.0,0.0,0.0,0.0,0.0,0.0,0.0,0.0,0.0,0.0,0.0,0.0,0.0,0.0,0.0,0.0,0.0,0.0,0.0,0.0,0.0,0.0,0.0,0.0,0.0,0.0,0.0,0.0,0.0,0.0,0.0,0.0,0.0,0.0,0.0,0.0,-4.0927,-4.3513,-4.4966,-4.4631,-4.4121,-4.1372,-3.5645,0.0,0.0,0.0,0.0,0.0,0.0,0.0,0.0,0.0,0.0,0.0,0.0,0.0,0.0,0.0,0.0,0.0,0.0,0.0,0.0,0.0,0.0,0.0,0.0,0.0,0.0,0.0,0.0,0.0,0.0,0.0,0.0,0.0,0.0,0.0,0.0,0.0,0.0,0.0,0.0,0.0,0.0,0.0,0.0,0.0,0.0,0.0,0.0,0.0,0.0,0.0,0.0,0.0,0.0,0.0,0.0,0.0,0.0,0.0,0.0,0.0,0.0,0.0,0.0,0.0,0.0,0.0,0.0,0.0,0.0,0.0,0.0,0.0,0.0,0.0,0.0,0.0,0.0,0.0,0.0,0.0,0.0,0.0,0.0,0.0,0.0,0.0,0.0,0.0,0.0,0.0,0.0,0.0,0.0,0.0,0.0,0.0,0.0,0.0,0.0,0.0,0.0,0.0,0.0,-3.7802,-4.2271,-4.4174,-4.4966,-4.4631,-4.3596,-4.1003,-3.6327,0.0,0.0,0.0,0.0,0.0,0.0,0.0,0.0,0.0,0.0,0.0,0.0,0.0,0.0,0.0,0.0,0.0,0.0,0.0,0.0,0.0,0.0,0.0,0.0,0.0,0.0,0.0,0.0,0.0,0.0,0.0,0.0,0.0,0.0,0.0,0.0,0.0,0.0,0.0,0.0,0.0,0.0,0.0,0.0,0.0,0.0,0.0,0.0,0.0,0.0,0.0,0.0,0.0,0.0,0.0,0.0,0.0,0.0,0.0,0.0,0.0,0.0,0.0,0.0,0.0,0.0,0.0,0.0,0.0,0.0,0.0,0.0,0.0,0.0,0.0,0.0,0.0,0.0,0.0,0.0,0.0,0.0,0.0,0.0,0.0,0.0,0.0,0.0,0.0,0.0,0.0,0.0,0.0,0.0,0.0,0.0,0.0,0.0,0.0,0.0,0.0,0.0,0.0,-3.7442,-3.9471,-4.2117,-4.3039,-4.3601,-4.3863,-4.2648,-4.0056,-3.5863,-3.418,0.0,0.0,0.0,0.0,0.0,0.0,0.0,0.0,0.0,0.0,0.0,0.0,0.0,0.0,0.0,0.0,0.0,0.0,0.0,0.0,0.0,0.0,0.0,0.0,0.0,0.0,0.0,0.0,0.0,0.0,0.0,0.0,0.0,0.0,0.0,0.0,0.0,0.0,0.0,0.0,0.0,0.0,0.0,0.0,0.0,0.0,0.0,0.0,0.0,0.0,0.0,0.0,0.0,0.0,0.0,0.0,0.0,0.0,0.0,0.0,0.0,0.0,0.0,0.0,0.0,0.0,0.0,0.0,0.0,0.0,0.0,0.0,0.0,0.0,0.0,0.0,0.0,0.0,0.0,0.0,0.0,0.0,0.0,0.0,0.0,0.0,0.0,0.0,0.0,0.0,0.0,0.0,0.0,0.0,0.0,0.0,0.0,0.0,0.0,0.0,0.0,0.0,-3.9513,-4.0945,-4.1377,-4.1825,-4.2228,-4.2585,-4.1345,-3.8879,-3.5041,-3.3492,0.0,0.0,0.0,0.0,0.0,0.0,0.0,0.0,0.0,0.0,0.0,0.0,0.0,0.0,0.0,0.0,0.0,0.0,0.0,0.0,0.0,0.0,0.0,0.0,0.0,0.0,0.0,0.0,0.0,0.0,0.0,0.0,0.0,0.0,0.0,0.0,0.0,0.0,0.0,0.0,0.0,0.0,0.0,0.0,0.0,0.0,0.0,0.0,0.0,0.0,0.0,0.0,0.0,0.0,0.0,0.0,0.0,0.0,0.0,0.0,0.0,0.0,0.0,0.0,0.0,0.0,0.0,0.0,0.0,0.0,0.0,0.0,0.0,0.0,0.0,0.0,0.0,0.0,0.0,0.0,0.0,0.0,0.0,0.0,0.0,0.0,0.0,0.0,0.0,0.0,0.0,0.0,0.0,0.0,0.0,0.0,0.0,0.0,0.0,0.0,0.0,0.0,-3.8766,-4.0652,-4.0251,-4.1355,-4.1682,-4.0699,-3.9549,-3.7476,-3.4169,-3.2485,0.0,0.0,0.0,0.0,0.0,0.0,0.0,0.0,0.0,0.0,0.0,0.0,0.0,0.0,0.0,0.0,0.0,0.0,0.0,0.0,0.0,0.0,0.0,0.0,0.0,0.0,0.0,0.0,0.0,0.0,0.0,0.0,0.0,0.0,0.0,0.0,0.0,0.0,0.0,0.0,0.0,0.0,0.0,0.0,0.0,0.0,0.0,0.0,0.0,0.0,0.0,0.0,0.0,0.0,0.0,0.0,0.0,0.0,0.0,0.0,0.0,0.0,0.0,0.0,0.0,0.0,0.0,0.0,0.0,0.0,0.0,0.0,0.0,0.0,0.0,0.0,0.0,0.0,0.0,0.0,0.0,0.0,0.0,0.0,0.0,0.0,0.0,0.0,0.0,0.0,0.0,0.0,0.0,0.0,0.0,0.0,0.0,0.0,0.0,0.0,0.0,0.0,-3.6966,-3.8451,0.0,-3.8814,-3.8936,-3.8854,-3.7821,-3.6163,-3.3682,0.0,0.0,0.0,0.0,0.0,0.0,0.0,0.0,0.0,0.0,0.0,0.0,0.0,0.0,0.0,0.0,0.0,0.0,0.0,0.0,0.0,0.0,0.0,0.0,0.0,0.0,0.0,0.0,0.0,0.0,0.0,0.0,0.0,0.0,0.0,0.0,0.0,0.0,0.0,0.0,0.0,0.0,0.0,0.0,0.0,0.0,0.0,0.0,0.0,0.0,0.0,0.0,0.0,0.0,0.0,0.0,0.0,0.0,0.0,0.0,0.0,0.0,0.0,0.0,0.0,0.0,0.0,0.0,0.0,0.0,0.0,0.0,0.0,0.0,0.0,0.0,0.0,0.0,0.0,0.0,0.0,0.0,0.0,0.0,0.0,0.0,0.0,0.0,0.0,0.0,0.0,0.0,0.0,0.0,0.0,0.0,0.0,0.0,0.0,0.0,0.0,0.0,-3.4217,-3.5893,-3.6991,0.0,-3.7065,-3.7065,-3.7002,-3.5818,-3.4475,-3.3013,0.0,0.0,0.0,0.0,0.0,0.0,0.0,0.0,0.0,0.0,0.0,0.0,0.0,0.0,0.0,0.0,0.0,0.0,0.0,0.0,0.0,0.0,0.0,0.0,0.0,0.0,0.0,0.0,0.0,0.0,0.0,0.0,0.0,0.0,0.0,0.0,0.0,0.0,0.0,0.0,0.0,0.0,0.0,0.0,0.0,0.0,0.0,0.0,0.0,0.0,0.0,0.0,0.0,0.0,0.0,0.0,0.0,0.0,0.0,0.0,0.0,0.0,0.0,0.0,0.0,0.0,0.0,0.0,0.0,0.0,0.0,0.0,0.0,0.0,0.0,0.0,0.0,0.0,0.0,0.0,0.0,0.0,0.0,0.0,0.0,0.0,0.0,0.0,0.0,0.0,0.0,0.0,0.0,0.0,0.0,0.0,0.0,0.0,0.0,0.0,0.0,0.0,-3.4054,-3.5843,-3.66,-3.5949,-3.6583,-3.6485,-3.5092,-3.3486,-3.2446,0.0,0.0,0.0,0.0,0.0,0.0,0.0,0.0,0.0,0.0,0.0,0.0,0.0,0.0,0.0,0.0,0.0,0.0,0.0,0.0,0.0,0.0,0.0,0.0,0.0,0.0,0.0,0.0,0.0,0.0,0.0,0.0,0.0,0.0,0.0,0.0,0.0,0.0,0.0,0.0,0.0,0.0,0.0,0.0,0.0,0.0,0.0,0.0,0.0,0.0,0.0,0.0,0.0,0.0,0.0,0.0,0.0,0.0,0.0,0.0,0.0,0.0,0.0,0.0,0.0,0.0,0.0,0.0,0.0,0.0,0.0,0.0,0.0,0.0,0.0,0.0,0.0,0.0,0.0,0.0,0.0,0.0,0.0,0.0,0.0,0.0,0.0,0.0,0.0,0.0,0.0,0.0,0.0,0.0,0.0,0.0,0.0,0.0,0.0,0.0,0.0,0.0,0.0,-3.316,-3.4221,-3.463,-3.4188,-3.4191,-3.3711,-3.2573,-3.2027,-3.1488,-3.0801,0.0,0.0,0.0,0.0,0.0,0.0,0.0,0.0,0.0,0.0,0.0,0.0,0.0,0.0,0.0,0.0,0.0,0.0,0.0,0.0,0.0,0.0,0.0,0.0,0.0,0.0,0.0,0.0,0.0,0.0,0.0,0.0,0.0,0.0,0.0,0.0,0.0,0.0,0.0,0.0,0.0,0.0,0.0,0.0,0.0,0.0,0.0,0.0,0.0,0.0,0.0,0.0,0.0,0.0,0.0,0.0,0.0,0.0,0.0,0.0,0.0,0.0,0.0,0.0,0.0,0.0,0.0,0.0,0.0,0.0,0.0,0.0,0.0,0.0,0.0,0.0,0.0,0.0,0.0,0.0,0.0,0.0,0.0,0.0,0.0,0.0,0.0,0.0,0.0,0.0,0.0,0.0,0.0,0.0,0.0,0.0,0.0,0.0,0.0,0.0,0.0,0.0,-3.23,-3.3024,-3.3257,-3.2959,-3.2681,-3.2224,-3.147,-3.1109,-3.0705,-3.0228,0.0,0.0,0.0,0.0,0.0,0.0,0.0,0.0,0.0,0.0,0.0,0.0,0.0,0.0,0.0,0.0,0.0,0.0,0.0,0.0,0.0,0.0,0.0,0.0,0.0,0.0,0.0,0.0,0.0,0.0,0.0,0.0,0.0,0.0,0.0,0.0,0.0,0.0,0.0,0.0,0.0,0.0,0.0,0.0,0.0,0.0,0.0,0.0,0.0,0.0,0.0,0.0,0.0,0.0,0.0,0.0,0.0,0.0,0.0,0.0,0.0,0.0,0.0,0.0,0.0,0.0,0.0,0.0,0.0,0.0,0.0,0.0,0.0,0.0,0.0,0.0,0.0,0.0,0.0,0.0,0.0,0.0,0.0,0.0,0.0,0.0,0.0,0.0,0.0,0.0,0.0,0.0,0.0,0.0,0.0,0.0,0.0,0.0,0.0,0.0,0.0,0.0,-3.1564,-3.2199,-3.239,-3.2145,-3.1858,-3.1582,-3.1286,-3.0551,-3.0129,-3.0152,0.0,0.0,0.0,0.0,0.0,0.0,0.0,0.0,0.0,0.0,0.0,0.0,0.0,0.0,0.0,0.0,0.0,0.0,0.0,0.0,0.0,0.0,0.0,0.0,0.0,0.0,0.0,0.0,0.0,0.0,0.0,0.0,0.0,0.0,0.0,0.0,0.0,0.0,0.0,0.0,0.0,0.0,0.0,0.0,0.0,0.0,0.0,0.0,0.0,0.0,0.0,0.0,0.0,0.0,0.0,0.0,0.0,0.0,0.0,0.0,-3.6591,0.0,0.0,0.0,0.0,0.0,0.0,0.0,0.0,0.0,0.0,0.0,0.0,0.0,0.0,0.0,0.0,0.0,0.0,0.0,0.0,0.0,0.0,0.0,0.0,0.0,0.0,0.0,0.0,0.0,0.0,0.0,0.0,0.0,0.0,0.0,0.0,0.0,0.0,0.0,0.0,0.0,-3.1487,-3.1668,-3.1565,-3.1496,-3.1111,-3.0648,-3.0114,-2.9749,-2.9655,-2.9795,0.0,0.0,0.0,0.0,0.0,0.0,0.0,0.0,0.0,0.0,0.0,0.0,0.0,0.0,0.0,0.0,0.0,0.0,0.0,0.0,0.0,0.0,0.0,0.0,0.0,0.0,0.0,0.0,0.0,0.0,0.0,0.0,0.0,0.0,0.0,0.0,0.0,0.0,0.0,0.0,0.0,0.0,0.0,0.0,0.0,0.0,0.0,0.0,0.0,0.0,0.0,0.0,0.0,0.0,0.0,0.0,0.0,0.0,0.0,0.0,0.0,-3.7503,0.0,0.0,0.0,0.0,0.0,0.0,0.0,0.0,0.0,0.0,0.0,0.0,0.0,0.0,0.0,0.0,0.0,0.0,0.0,0.0,0.0,0.0,0.0,0.0,0.0,0.0,0.0,0.0,0.0,0.0,0.0,0.0,0.0,0.0,0.0,0.0,0.0,0.0,0.0,0.0,-3.0838,-3.0189,-2.9637,-3.0052,-2.9769,-2.942,-2.9094,-2.9363,-2.9589,-2.9696,-2.978,0.0,0.0,0.0,0.0,0.0,0.0,0.0,0.0,0.0,0.0,0.0,0.0,0.0,0.0,0.0,0.0,0.0,0.0,0.0,0.0,0.0,0.0,0.0,0.0,0.0,0.0,0.0,0.0,0.0,0.0,0.0,0.0,0.0,0.0,0.0,0.0,0.0,0.0,0.0,0.0,0.0,0.0,0.0,0.0,0.0,0.0,0.0,0.0,0.0,0.0,0.0,0.0,0.0,0.0,-3.9245,-3.989,-3.9759,-4.0112,-4.0768,-3.8976,-3.9177,-4.0692,0.0,0.0,0.0,0.0,0.0,0.0,0.0,0.0,0.0,0.0,0.0,0.0,0.0,0.0,0.0,0.0,0.0,0.0,0.0,0.0,0.0,0.0,0.0,0.0,0.0,-3.255,-3.3304,0.0,0.0,0.0,0.0,0.0,0.0,0.0,0.0,0.0,0.0,0.0,0.0,-2.9788,-2.8623,-2.7867,-2.8567,-2.84,-2.8253,-2.8304,-2.9063,-2.9572,-2.9599,-2.9899,-3.0004,0.0,0.0,0.0,0.0,0.0,0.0,0.0,0.0,0.0,0.0,0.0,0.0,0.0,0.0,0.0,0.0,0.0,0.0,0.0,0.0,0.0,0.0,0.0,0.0,0.0,0.0,0.0,0.0,0.0,0.0,0.0,0.0,-3.3743,-3.522,0.0,0.0,0.0,0.0,0.0,0.0,0.0,0.0,0.0,0.0,0.0,0.0,0.0,0.0,-3.5248,-3.7564,-3.8642,-3.8473,-4.0709,-4.1665,-4.1471,-4.077,-4.0702,-4.1104,-4.0115,0.0,-4.0807,-3.9967,0.0,0.0,0.0,0.0,0.0,0.0,0.0,0.0,0.0,0.0,0.0,0.0,0.0,0.0,0.0,0.0,0.0,0.0,0.0,0.0,0.0,0.0,-3.203,-3.1235,-3.176,-3.2193,0.0,-3.1611,-3.1748,-3.062,0.0,0.0,0.0,0.0,0.0,0.0,0.0,0.0,-2.8268,-2.814,-2.7962,-2.8014,-2.7778,-2.7719,-2.7958,-2.8561,-2.9021,-2.9255,-2.9999,-3.0451,-3.0474,-3.0181,0.0,0.0,0.0,0.0,0.0,0.0,0.0,0.0,0.0,0.0,0.0,0.0,0.0,0.0,0.0,0.0,0.0,0.0,0.0,0.0,0.0,0.0,0.0,0.0,0.0,0.0,0.0,0.0,0.0,-3.1476,-3.2965,-3.4021,-3.3487,-3.2493,0.0,0.0,0.0,0.0,0.0,0.0,0.0,0.0,0.0,-3.4415,-3.5196,-3.6247,-3.7549,-3.912,-4.0055,-4.0344,-4.1056,-4.1337,-4.1162,-4.04,-4.0113,-4.028,-3.994,-3.9932,-4.0105,-3.9223,-3.8131,-3.6944,0.0,0.0,0.0,0.0,0.0,-3.4549,-3.468,0.0,0.0,0.0,0.0,0.0,0.0,0.0,0.0,0.0,0.0,0.0,0.0,0.0,0.0,-2.9341,-2.9907,-3.0565,-3.037,-3.0176,-2.9976,0.0,-2.9591,-2.8964,-2.7126,0.0,0.0,0.0,0.0,0.0,-2.7987,-2.7234,-2.678,-2.7234,-2.7185,-2.7157,-2.7265,-2.7978,-2.8644,-2.922,-2.9608,-3.0056,-3.058,-3.0494,-3.0132,0.0,0.0,0.0,0.0,0.0,0.0,0.0,0.0,0.0,0.0,0.0,0.0,0.0,0.0,0.0,0.0,0.0,0.0,0.0,0.0,0.0,0.0,0.0,0.0,0.0,0.0,0.0,0.0,-3.1671,-3.2656,-3.33,-3.3511,-3.277,0.0,0.0,0.0,0.0,0.0,0.0,-3.1846,-3.2626,-3.374,-3.5184,-3.5976,-3.7135,-3.8741,-3.9333,-3.986,-4.0255,-3.9728,-3.9467,-3.9433,-3.8686,-3.8277,-3.8069,-3.792,-3.7728,-3.7568,-3.7793,-3.7395,-3.6515,-3.5558,-3.4559,-3.3782,-3.4393,-3.4231,-3.3826,-3.4266,-3.4666,-3.4709,-3.3343,0.0,-3.2156,-3.0221,0.0,0.0,0.0,0.0,-2.7791,-2.694,0.0,-2.7971,-2.7416,-2.7941,-2.8628,-2.8913,-2.838,-2.807,0.0,-2.9298,-2.8993,-2.7114,0.0,0.0,0.0,0.0,-2.6033,-2.7316,-2.6317,-2.5742,-2.6359,-2.6461,-2.647,-2.647,-2.7262,-2.8026,-2.8656,-2.889,-2.9328,-2.997,-3.021,-2.9841,-2.8817,0.0,0.0,0.0,0.0,0.0,0.0,0.0,0.0,0.0,0.0,0.0,0.0,0.0,0.0,0.0,0.0,0.0,0.0,0.0,0.0,0.0,0.0,0.0,0.0,0.0,0.0,0.0,0.0,0.0,-3.4543,-3.5253,0.0,0.0,0.0,0.0,-3.1616,-3.2348,-3.2919,-3.3204,-3.4627,-3.5767,-3.6542,-3.7319,-3.7439,-3.6925,-3.6957,-3.669,-3.6082,-3.6034,-3.6034,-3.6002,-3.5344,-3.4649,-3.3969,-3.334,-3.2676,-3.2284,-3.5874,-3.6858,-3.5972,-3.455,-3.3093,-3.1856,-3.189,-3.1953,-3.1918,-3.1198,-3.1846,-3.2823,-3.2039,-3.1173,-3.0321,-2.971,-2.8272,0.0,0.0,-2.6339,-2.5743,-2.5689,-2.5725,-2.5836,-2.611,-2.6217,-2.6345,-2.6704,-2.6282,-2.647,0.0,-2.771,-2.6668,-2.6782,0.0,-2.5576,-2.5576,-2.5522,-2.5504,-2.5544,-2.5525,-2.5485,-2.5464,-2.5524,-2.5566,-2.5566,-2.6354,-2.6909,-2.7003,-2.7803,-2.8303,-2.8417,-2.9144,-2.9146,-2.8265,-2.8175,0.0,0.0,0.0,0.0,0.0,0.0,0.0,0.0,0.0,0.0,0.0,0.0,0.0,0.0,0.0,0.0,0.0,0.0,0.0,0.0,0.0,0.0,0.0,0.0,0.0,0.0,0.0,0.0,-3.209,-3.2679,0.0,0.0,-3.1065,-3.086,-3.025,-3.1765,-3.257,-3.2242,-3.3706,-3.4696,-3.4921,-3.5445,-3.5796,-3.6048,-3.5624,-3.534,-3.5149,-3.4699,-3.4233,-3.3767,-3.3076,-3.2626,-3.2288,-3.1661,-3.1421,-3.1646,-3.2138,-3.2676,-3.3197,-3.3118,-3.2194,-3.0985,-3.1459,-3.1078,-3.0314,-3.0025,-2.9963,-2.9888,-2.9181,-2.8098,-2.7058,-2.686,-2.5714,-2.4493,-2.4493,-2.4478,-2.4351,-2.385,-2.4085,-2.434,-2.4003,-2.4069,-2.4277,-2.4387,-2.4414,-2.4687,-2.56,-2.5625,-2.5527,-2.564,-2.5538,-2.5441,-2.5441,-2.5463,-2.5498,-2.5461,-2.5499,-2.5492,-2.5466,-2.5524,-2.5566,-2.5566,-2.5892,-2.6337,-2.693,-2.7262,-2.7694,-2.8281,-2.8572,-2.8317,-2.7437,-2.7357,-2.7043,0.0,0.0,0.0,0.0,0.0,0.0,0.0,0.0,0.0,0.0,0.0,0.0,0.0,0.0,0.0,0.0,0.0,0.0,0.0,0.0,0.0,0.0,0.0,0.0,0.0,0.0,-3.1086,-3.0009,-3.1104,-3.1392,-2.9958,-3.0649,-3.104,-3.0535,-3.1805,-3.237,-3.1709,-3.2706,-3.3189,-3.2976,-3.3187,-3.3469,-3.3788,-3.3423,-3.3157,-3.3061,-3.2536,-3.1954,-3.1328,-3.0822,-3.0317,-2.9894,-2.9454,-2.9517,-2.9846,-2.9206,-2.9425,-3.035,-3.1244,-3.0898,-2.994,-3.0411,-2.9689,-2.8495,-2.8484,-2.8033,-2.7392,-2.6839,-2.5908,-2.4874,-2.4671,-2.377,-2.2822,-2.2822,-2.2849,-2.2752,-2.2262,-2.2482,-2.2796,-2.2544,-2.2678,-2.2905,-2.3141,-2.3369,-2.3613,-2.3848,-2.4414,-2.4858,-2.4911,-2.5083,-2.5207,-2.5207,-2.5232,-2.5271,-2.5328,-2.5356,-2.5389,-2.5451,-2.5535,-2.5564,-2.5564,-2.5605,-2.5888,-2.6454,-2.6493,-2.6747,-2.7334,-2.7647,-2.7373,-2.6513,-2.6444,-2.6133,-2.5566,0.0,0.0,0.0,0.0,0.0,0.0,0.0,0.0,0.0,0.0,0.0,0.0,0.0,0.0,0.0,0.0,0.0,0.0,0.0,0.0,0.0,0.0,0.0,-2.7388,-2.9125,-2.9903,-2.877,-3.0897,-3.1913,-3.0624,-3.1693,-3.2451,-3.2451,-3.2508,-3.2246,-3.1737,-3.1751,-3.146,-3.0932,-3.0957,-3.0698,-3.024,-3.0225,-2.9959,-2.9495,-2.9465,-2.9107,-2.848,-2.8465,-2.7748,-2.6508,-2.6527,-2.6542,-2.6602,-2.723,-2.7485,-2.7634,-2.8996,-2.9116,-2.8532,-2.8517,-2.7664,-2.6519,-2.6426,-2.5923,-2.5315,-2.5218,-2.4692,-2.3971,-2.3333,-2.2627,-2.2016,-2.2016,-2.1503,-2.0959,-2.0959,-2.0959,-2.1165,-2.1898,-2.2068,-2.2245,-2.3003,-2.3165,-2.3259,-2.3588,-2.4098,-2.4526,-2.476,-2.4804,-2.4804,-2.4804,-2.4804,0.0,-2.4974,-2.5048,-2.5177,-2.5356,-2.5434,-2.5484,-2.5484,-2.5489,-2.5489,-2.5493,-2.5493,-2.5493,-2.5493,-2.6315,-2.6354,-2.5513,-2.5493,-2.5493,-2.5493,0.0,0.0,0.0,0.0,0.0,0.0,0.0,0.0,0.0,0.0,0.0,0.0,0.0,0.0,0.0,0.0,0.0,0.0,0.0,0.0,0.0,0.0,-2.5021,-2.5563,-2.6902,-2.7656,-2.721,-2.7746,-2.8052,-2.7699,-2.8643,-2.9372,-2.9372,-2.9668,-2.986,-2.9706,-2.9984,-2.9899,-2.9376,-2.9512,-2.9338,-2.8876,-2.8366,-2.782,-2.7286,-2.6818,-2.6264,-2.5653,-2.5742,-2.5336,-2.4497,-2.497,-2.5186,-2.5185,-2.4893,-2.5039,-2.5692,-2.7437,-2.7724,-2.7081,-2.6602,-2.5899,-2.5001,-2.4066,-2.3595,-2.3379,-2.2858,-2.221,-2.1629,-2.1445,-2.091,-2.0345,-2.0345,-2.0222,-2.0104,-2.0431,-2.0483,-2.0634,-2.118,-2.1305,-2.1428,-2.1915,-2.2235,-2.253,-2.2905,-2.3287,-2.3767,-2.4458,-2.47,-2.4804,-2.4804,0.0,0.0,-2.4855,-2.4858,-2.4892,-2.4949,-2.4988,-2.5053,-2.52,-2.5251,-2.5337,0.0,-2.5493,-2.5493,-2.5493,-2.5727,-2.5746,-2.5493,-2.5493,-2.5493,0.0,0.0,0.0,0.0,0.0,0.0,0.0,0.0,0.0,0.0,0.0,0.0,0.0,0.0,0.0,0.0,0.0,0.0,0.0,0.0,0.0,0.0,-2.2334,-2.3037,-2.3145,-2.5071,-2.6393,-2.6206,-2.6071,-2.5947,-2.5947,-2.6881,-2.743,-2.743,-2.8123,-2.8486,-2.8247,-2.8254,-2.801,-2.7426,-2.7352,-2.7198,-2.6958,-2.6372,-2.5887,-2.5578,-2.5009,-2.4385,-2.3751,-2.4112,-2.3773,0.0,-2.3531,-2.3846,-2.3857,-2.3439,-2.3652,0.0,0.0,0.0,0.0,0.0,-2.4019,-2.3319,-2.2294,-2.1957,-2.1842,-2.1152,-2.0813,-2.0662,-2.0378,-2.0004,-1.969,-1.969,-1.969,-1.9747,-2.0,-2.007,-2.0158,-2.0583,-2.0731,-2.0878,-2.146,-2.1757,-2.2057,-2.2574,0.0,0.0,-2.3828,-2.4174,-2.4205,-2.3906,-2.4234,-2.4463,0.0,-2.4463,-2.47,-2.479,-2.4793,-2.4841,-2.4958,-2.5009,0.0,0.0,0.0,-2.523,-2.529,-2.5298,0.0,0.0,0.0,-2.5427,0.0,0.0,0.0,0.0,-2.721,-2.7882,0.0,0.0,0.0,0.0,0.0,0.0,0.0,0.0,0.0,0.0,0.0,0.0,0.0,0.0,0.0,0.0,-2.0457,-2.0646,-2.0449,-2.3102,-2.5176,-2.5322,-2.5036,-2.4859,-2.4859,-2.5689,-2.6288,-2.6288,-2.7127,-2.7406,-2.6909,0.0,0.0,0.0,0.0,-2.4356,-2.4429,-2.4054,-2.3917,-2.4,-2.3571,-2.3032,-2.2405,-2.2986,-2.26,-2.1452,-2.2159,-2.2484,-2.2504,-2.2504,-2.2779,-2.3193,-2.3428,-2.3451,-2.3325,-2.2665,-2.209,0.0,0.0,0.0,0.0,-1.9933,-2.006,-2.0407,-1.9781,-1.9603,-1.9603,-1.969,-1.969,-1.969,-1.969,-1.969,-1.9782,-2.0158,-2.0212,-2.0449,-2.129,-2.1491,-2.1744,-2.2441,-2.2617,-2.2764,-2.3063,-2.3392,-2.3415,-2.2692,-2.3442,0.0,-2.3356,-2.3945,-2.4493,-2.4666,0.0,0.0,-2.476,-2.4775,-2.4775,-2.4804,-2.4804,-2.4855,-2.4974,-2.4974,-2.5065,-2.5243,-2.5243,-2.5253,-2.5264,-2.5264,-2.5274,-2.5332,-2.7013,-2.7784,0.0,0.0,0.0,0.0,0.0,0.0,0.0,0.0,0.0,0.0,0.0,0.0,0.0,0.0,0.0,-1.7526,-1.8126,-1.8682,-1.8973,-2.0023,-2.1279,-2.2501,-2.2563,-2.2513,-2.2513,-2.3514,-2.4119,-2.4119,-2.4405,-2.4519,-2.4415,-2.3537,0.0,-2.1777,-2.1661,-2.1214,-2.0452,-2.0933,-2.1182,-2.1161,0.0,0.0,-2.0399,-2.0584,-2.0272,-1.9603,-2.0725,-2.124,-2.1153,-2.1153,-2.0657,-2.0062,-2.1629,-2.1949,-2.1389,-2.0837,-2.055,-2.0357,-1.967,-1.9724,-1.9918,-1.8812,-1.8811,-1.9217,-1.9087,-1.9043,0.0,-1.9566,-1.969,-1.969,-1.969,-1.969,-1.9711,-1.9818,-1.9818,-1.9945,-2.0449,-2.0846,-2.1244,-2.1715,-2.2113,-2.2388,-2.247,-2.2933,-2.3247,-2.3104,-2.3239,-2.3343,-2.3227,-2.3587,-2.3862,-2.3923,-2.4154,-2.4375,-2.4526,-2.4561,-2.4623,-2.479,-2.4804,-2.4818,-2.4842,-2.4842,-2.4855,-2.4902,-2.4902,-2.4962,-2.5065,-2.5065,-2.5152,-2.5303,-2.5677,-2.5839,0.0,0.0,0.0,0.0,0.0,0.0,0.0,0.0,0.0,0.0,0.0,-1.8394,0.0,0.0,-1.6437,-1.6896,-1.6739,-1.681,-1.7067,-1.8049,-1.9274,-2.0602,-2.1024,-2.123,-2.123,-2.2009,-2.2461,-2.2461,-2.2765,-2.2897,-2.2637,-2.1936,-2.119,-2.0483,-2.0172,-1.981,-1.9313,-1.976,-1.9972,-2.0029,-1.9908,-1.9698,-1.9409,-1.9466,-1.9149,-1.8631,-1.9547,-1.976,-1.9484,-1.9484,-1.9137,-1.8654,-1.9376,-1.9592,-1.9516,-1.9248,-1.8963,-1.8682,-1.8654,-1.8783,-1.892,-1.8609,-1.8855,-1.9281,-1.9281,-1.9281,-1.9369,-1.9603,-1.969,-1.969,-1.969,-1.969,-1.969,-1.969,-1.969,-1.9874,-2.0532,-2.0829,-2.1197,-2.184,-2.2135,-2.231,-2.231,-2.2561,-2.2659,-2.2391,-2.2823,-2.3047,-2.2652,-2.3249,-2.3692,-2.3692,-2.3996,-2.4247,-2.4339,-2.4339,-2.4393,-2.4495,-2.4495,-2.4526,-2.4639,-2.4654,-2.47,-2.4804,-2.4804,-2.4828,-2.4904,-2.4962,-2.5046,-2.5152,-2.5253,-2.5303,0.0,0.0,0.0,0.0,0.0,0.0,0.0,0.0,-1.7206,-1.6935,-1.6859,-1.6949,-1.7091,-1.6027,-1.5641,-1.6727,-1.6187,-1.5622,-1.5889,-1.7054,-1.8212,-1.9083,-1.9885,-2.0312,-2.0312,-2.0731,-2.1011,-2.1011,-2.1269,-2.125,-2.0919,-2.0278,-1.968,-1.9221,-1.8707,-1.8361,-1.8261,-1.8721,-1.8963,-1.8951,-1.8753,-1.8709,-1.8706,-1.8547,-1.8311,-1.8078,-1.8631,-1.8618,-1.8204,-1.8204,-1.8141,-1.8003,-1.7551,-1.7644,-1.8017,-1.8009,-1.772,-1.7378,-1.7993,-1.8208,-1.8302,-1.865,-1.9132,-1.953,-1.953,-1.953,-1.9566,-1.969,-1.969,-1.969,-1.969,-1.969,-1.969,-1.969,-1.969,-1.9874,-2.0614,-2.0797,-2.1086,-2.1886,-2.2106,-2.218,-2.2282,-2.231,-2.2156,-2.173,-2.2432,-2.2803,-2.2141,-2.2904,-2.3522,-2.3522,-2.3816,-2.4016,-2.4094,-2.417,-2.419,-2.419,-2.419,-2.4266,-2.4445,-2.4426,-2.4528,-2.4685,-2.4685,-2.47,-2.4746,-2.4864,-2.4924,-2.4962,-2.5152,-2.5264,-1.8414,-1.7079,-1.6018,-1.5795,-1.5344,-1.5373,0.0,0.0,-1.7985,-1.765,-1.7614,-1.7115,-1.5603,-1.5884,-1.6282,-1.5935,-1.621,-1.6553,-1.6594,-1.7268,-1.7755,-1.789,-1.8853,-1.9434,-1.9434,-1.9531,-1.9492,-1.9492,-1.8874,-1.8456,-1.8407,-1.7306,-1.6427,-1.5919,-1.5491,-1.5083,-1.4686,-1.5929,-1.6588,-1.6588,-1.7225,-1.7531,-1.7564,-1.6949,-1.6959,-1.7501,-1.8053,-1.8267,-1.8204,-1.8204,-1.7915,-1.7463,-1.74,-1.7401,-1.7418,-1.74,-1.7348,-1.7394,-1.7909,-1.8436,-1.8727,-1.8341,-1.8535,-1.9006,-1.9006,-1.9006,-1.9095,-1.9566,-1.969,-1.969,-1.969,-1.969,-1.969,-1.969,-1.969,-1.9726,-1.9818,-2.0139,-2.0516,-2.1055,-2.1446,-2.1794,-2.2237,-2.231,-2.2276,-2.222,-2.2326,-2.2371,-2.2286,-2.2591,-2.2822,-2.2822,-2.3117,-2.3414,-2.3714,-2.4016,-2.419,-2.419,-2.419,-2.4209,-2.4228,-2.4228,-2.4247,-2.4284,-2.4284,-2.4375,-2.4526,-2.4543,-2.4654,-2.4832,-2.4981,-2.5141,-1.6024,-1.4388,0.0,0.0,-1.2991,-1.278,-1.3592,-1.4475,-1.523,-1.5464,-1.5946,-1.6317,-1.6223,-1.6068,-1.6102,0.0,-1.6274,-1.6204,-1.6762,-1.7063,-1.7449,-1.7969,-1.8275,-1.8642,-1.9262,-1.8838,-1.8545,-1.8545,-1.751,-1.6768,-1.6514,-1.5752,-1.5117,-1.4678,-1.4502,-1.4316,-1.4077,-1.5091,-1.5607,-1.5596,-1.6071,-1.6456,-1.6812,-1.6512,-1.6767,-1.7375,-1.7275,-1.7225,-1.7225,-1.7225,-1.7251,-1.7325,-1.7325,-1.7536,-1.7747,-1.7435,-1.7504,-1.7827,-1.838,-1.8688,-1.8893,-1.9006,-1.9169,-1.9369,-1.9369,-1.9369,-1.9464,-1.9929,-1.9874,-1.9818,-2.0311,-2.0085,-1.9818,-2.0345,-2.0243,-2.0193,-2.0682,-2.0943,-2.1197,-2.1691,-2.1869,-2.2077,-2.2282,-2.231,-2.231,-2.231,-2.231,-2.231,-2.231,-2.2537,-2.2772,-2.2972,-2.3117,-2.3277,-2.3392,-2.3544,-2.3692,-2.3896,-2.3917,-2.3996,-2.419,-2.419,-2.419,-2.419,-2.419,-2.4247,-2.4339,-2.4444,-2.4526,-2.4623,-2.4795,-2.4968,-1.2675,0.0,0.0,-1.0433,-1.0395,-1.0324,-1.0617,-1.201,-1.3205,-1.3602,-1.4836,-1.5931,-1.644,-1.643,0.0,-1.7282,-1.7095,-1.7072,-1.7791,-1.7832,-1.8053,-1.8871,-1.8584,-1.8499,-1.9034,-1.8104,-1.7471,-1.7471,-1.6377,-1.5576,-1.5254,-1.4727,-1.4287,-1.3975,-1.3848,-1.3789,-1.3789,-1.4471,-1.4906,-1.5046,-1.52,-1.5695,-1.6445,-1.6445,-1.6683,-1.7124,-1.6697,-1.6522,-1.6522,-1.668,-1.6951,-1.7312,-1.7463,-1.7867,-1.8263,-1.7867,-1.7987,-1.8419,-1.893,-1.9132,-1.9169,-1.9566,-1.969,-1.969,-1.969,-1.9782,-1.9945,-2.0212,-2.0193,-2.0208,-2.0845,-2.0532,-2.0208,-2.0829,-2.0748,-2.0682,-2.1306,-2.143,-2.1568,-2.2003,-2.2106,-2.2152,-2.2282,-2.231,-2.231,-2.231,-2.231,-2.231,-2.231,-2.2463,-2.2678,-2.2933,-2.3014,-2.3069,-2.3069,-2.3141,-2.3282,-2.3544,-2.3566,-2.3714,-2.4054,-2.4074,-2.4094,-2.419,-2.419,-2.419,-2.419,-2.4358,-2.4428,-2.4409,-2.4623,-2.4771,0.0,0.0,-0.5434,-0.6913,-0.7543,-0.8236,-0.9507,-1.1686,-1.3321,-1.3282,-1.5013,-1.6329,-1.5701,-1.718,-1.8497,-1.8279,-1.9141,-1.992,-2.0438,-1.9975,-1.982,-2.0448,-1.9983,-1.9394,0.0,-1.7111,-1.6184,-1.6184,-1.5312,-1.4814,-1.4805,-1.4004,-1.3545,-1.3525,-1.3135,-1.292,-1.292,-1.3546,-1.414,-1.4697,-1.4731,-1.5367,-1.6504,-1.6504,-1.6504,-1.6547,-1.6522,-1.6522,-1.6552,-1.7076,-1.7312,-1.7353,-1.7867,-1.8419,-1.8855,-1.8855,-1.8855,-1.8968,-1.9479,-1.969,-1.969,-1.969,-1.969,-1.969,-1.969,-1.9965,-2.028,-2.0314,-2.0616,-2.0975,-2.0991,-2.0959,-2.0975,-2.0991,-2.0991,-2.1007,-2.0991,-2.1023,-2.115,-2.1521,-2.1612,-2.1764,-2.2209,-2.231,-2.231,-2.231,-2.231,-2.231,-2.231,-2.231,-2.231,-2.2338,-2.2563,-2.2721,-2.2721,-2.3021,-2.3189,-2.3212,-2.323,-2.3369,-2.3692,-2.3714,-2.3876,-2.419,-2.419,-2.419,-2.419,-2.4227,-2.4209,-2.4209,-2.4428,-2.4512,-0.5007,0.0,-0.4209,-0.4795,-0.5666,-0.6602,-0.7089,-0.9039,-1.0988,-1.1752,-1.2638,-1.3743,-1.5385,-1.6135,-1.6887,-1.7943,-1.8623,-1.9283,-2.0052,-1.9922,-2.0031,-2.0757,-2.0449,0.0,0.0,0.0,0.0,-1.6125,-1.4746,-1.4053,-1.4336,-1.3555,-1.3096,-1.3096,-1.2959,-1.2881,-1.2881,-1.3505,-1.3909,-1.4097,-1.4915,-1.5499,-1.5908,-1.6337,-1.6522,-1.6522,-1.6879,-1.7034,-1.7076,-1.7626,-1.8027,-1.838,-1.8574,-1.8968,-1.9442,-1.9442,-1.9442,-1.9442,-1.9639,-1.969,-1.969,-1.969,-1.969,-1.9747,-2.0035,-2.0177,-2.04,-2.0991,-2.107,-2.1134,-2.1721,-2.1415,-2.1166,-2.1721,-2.1598,-2.146,-2.1781,-2.1857,-2.1915,-2.2032,-2.2061,-2.2106,-2.2265,-2.231,-2.231,-2.231,-2.231,-2.231,-2.231,-2.231,-2.231,-2.231,-2.2388,-2.2409,-2.2409,-2.2544,-2.2669,-2.2873,-2.2873,-2.3117,-2.3671,-2.3692,-2.3876,-2.419,-2.419,-2.419,-2.419,-2.419,-2.419,-2.419,-2.4266,-2.4375,-0.1626,-0.1449,-0.1695,-0.2292,-0.3482,-0.4655,-0.5571,-0.7564,-0.9635,-1.0682,-1.1755,-1.3067,-1.4961,-1.5207,-1.5618,-1.6872,-1.7658,-1.8379,-1.9145,-1.9436,-1.9901,-2.0746,-2.0472,0.0,0.0,0.0,0.0,-1.5743,-1.4307,-1.3623,-1.3896,-1.3262,-1.2881,-1.2881,-1.2881,-1.2881,-1.2881,-1.3505,-1.4003,-1.4457,-1.5454,-1.5908,-1.5908,-1.6337,-1.6595,-1.6795,-1.7146,-1.7435,-1.7626,-1.8185,-1.8574,-1.893,-1.9132,-1.9406,-1.969,-1.969,-1.969,-1.969,-1.969,-1.9782,-1.9909,-1.9909,-2.005,-2.0208,-2.0465,-2.0649,-2.0862,-2.146,-2.1538,-2.1584,-2.2152,-2.1886,-2.1615,-2.218,-2.2077,-2.1928,-2.2237,-2.231,-2.231,-2.231,-2.231,-2.231,-2.231,-2.231,-2.231,-2.231,-2.231,-2.231,-2.231,-2.231,-2.231,-2.231,-2.231,-2.231,-2.231,-2.231,-2.236,-2.2537,-2.2563,-2.2789,-2.3323,-2.3459,-2.3671,-2.4016,-2.4151,-2.419,-2.419,-2.419,-2.419,-2.419,-2.419,-2.4266,0.219,0.2333,0.1772,0.0482,-0.0875,-0.2506,-0.4818,-0.7195,-0.913,-0.9991,-1.2255,-1.4175,0.0,0.0,-1.4976,-1.5411,-1.6458,-1.7395,-1.7978,-1.8649,-1.9393,0.0,0.0,0.0,0.0,0.0,0.0,-1.49,0.0,-1.3464,-1.3484,-1.3066,-1.2871,-1.2881,-1.2881,-1.2929,-1.2978,-1.36,-1.4503,-1.5632,-1.6238,-1.6522,-1.6552,-1.6552,-1.6837,-1.7353,-1.7394,-1.7666,-1.8185,-1.8727,-1.893,-1.9006,-1.9479,-1.9711,-1.9711,-1.9711,-1.9747,-1.9747,-1.9747,-2.0,-2.0299,-2.0348,-2.0616,-2.0991,-2.1023,-2.1306,-2.1628,-2.1628,-2.1974,-2.231,-2.231,-2.231,-2.231,-2.231,-2.231,-2.231,-2.231,-2.231,-2.231,-2.231,-2.231,-2.231,-2.231,-2.231,-2.231,-2.231,-2.231,-2.231,-2.231,-2.231,-2.231,-2.231,-2.231,-2.231,-2.231,-2.231,-2.231,-2.231,-2.231,-2.2426,-2.2695,-2.3021,-2.3346,-2.3692,-2.4016,-2.417,-2.419,-2.419,-2.419,-2.419,-2.419,-2.419,0.3127,0.3325,0.3105,0.2806,0.1107,-0.0906,-0.229,-0.5082,-0.7764,-0.9346,-1.0346,-1.1261,0.0,0.0,0.0,-1.463,-1.6368,0.0,-1.7806,-1.8047,0.0,0.0,0.0,-1.855,-1.7811,-1.6948,0.0,0.0,-1.3229,-1.2844,-1.3031,-1.2415,-1.2344,-1.2881,-1.2881,-1.3104,-1.3552,-1.4595,-1.5499,-1.6281,-1.6423,-1.671,-1.7118,-1.7118,-1.7394,-1.7907,-1.8341,-1.8574,-1.8727,-1.9281,-1.9479,-1.953,-1.9639,-1.9874,-2.0158,-2.0158,-2.0364,-2.0665,-2.0665,-2.0532,-2.0348,-2.0731,-2.0894,-2.1071,-2.1368,-2.1521,-2.1658,-2.2032,-2.2209,-2.231,-2.231,-2.231,-2.231,-2.231,-2.231,-2.231,-2.231,-2.231,-2.231,-2.231,-2.231,-2.231,-2.231,-2.231,-2.231,-2.231,-2.231,-2.231,-2.231,-2.231,-2.231,-2.231,-2.231,-2.231,-2.231,-2.231,-2.231,-2.231,-2.231,-2.2426,-2.2695,-2.2772,-2.3093,-2.3692,-2.3795,-2.3937,-2.419,-2.419,-2.419,-2.419,-2.419,-2.419,0.5112,0.4878,0.427,0.3751,0.1836,-0.0428,-0.2212,-0.4805,-0.7398,-0.9215,-0.9868,0.0,0.0,0.0,0.0,0.0,0.0,0.0,-1.6543,-1.6456,-1.671,0.0,-1.6996,0.0,-1.6061,-1.5303,-1.4303,0.0,-1.253,-1.2225,-1.2269,-1.1953,-1.1972,-1.2393,-1.2715,-1.3334,-1.419,-1.5141,-1.5908,-1.6522,-1.6752,-1.6993,-1.7312,-1.7544,-1.7947,-1.8458,0.0,-1.9043,-1.9281,-1.9566,-1.9803,-1.9965,-1.9965,-2.0227,-2.0616,-2.0616,-2.0748,-2.1039,-2.1213,-2.107,-2.0894,-2.1181,-2.1415,-2.1615,-2.184,-2.1666,-2.154,-2.2124,-2.2073,-2.1887,-2.2226,-2.231,-2.231,-2.231,-2.231,-2.231,-2.231,-2.231,-2.231,-2.231,-2.231,-2.231,-2.231,-2.231,-2.231,-2.231,-2.231,-2.231,-2.231,-2.231,-2.231,-2.231,-2.231,-2.231,-2.231,-2.231,-2.231,-2.231,-2.231,-2.236,-2.2527,-2.2634,-2.2873,-2.3236,-2.3544,-2.3795,-2.3976,-2.4132,-2.419,-2.419,-2.419,-2.419,0.7035,0.6448,0.5275,0.4046,0.1979,-0.0403,-0.3246,-0.5672,-0.7776,-0.953,0.0,-1.1038,-1.1603,0.0,-1.1755,-1.2043,0.0,-1.4258,-1.4984,-1.4735,-1.4866,-1.5891,-1.4906,-1.4185,-1.4328,-1.3566,-1.2775,-1.2116,-1.1898,-1.1743,-1.1489,-1.1575,-1.1765,-1.1922,-1.2745,-1.3658,-1.4709,-1.5365,-1.5964,-1.6522,-1.7034,-1.7353,-1.7435,-1.7947,-1.8496,-1.9006,0.0,0.0,-1.9711,-1.9747,-2.0,-2.0314,-2.0382,-2.0682,-2.1086,-2.1086,-2.1134,-2.1229,-2.1568,-2.1688,-2.1688,-2.1688,-2.1974,-2.231,-2.231,-2.1854,-2.1465,-2.2124,-2.1837,-2.1481,-2.2141,-2.231,-2.231,-2.231,-2.231,-2.231,-2.231,-2.231,-2.231,-2.231,-2.231,-2.231,-2.231,-2.231,-2.231,-2.231,-2.231,-2.231,-2.231,-2.231,-2.231,-2.231,-2.231,-2.231,-2.231,-2.231,-2.231,-2.231,-2.231,-2.231,-2.231,-2.2527,-2.2643,-2.2695,-2.3259,-2.3588,-2.3631,-2.3917,-2.4074,-2.4074,-2.4113,-2.4113,0.6837,0.6556,0.6084,0.4944,0.2746,0.0073,-0.2582,-0.5784,0.0,0.0,0.0,-1.2371,-1.2265,-1.2601,0.0,-1.2432,0.0,0.0,0.0,0.0,-1.4706,0.0,0.0,0.0,0.0,0.0,0.0,0.0,0.0,0.0,-1.1313,-1.1122,-1.1525,-1.2666,-1.3789,-1.4479,-1.4698,-1.5788,-1.638,-1.6522,-1.7034,-1.7544,-1.7987,-1.8535,-1.9043,-1.9566,0.0,0.0,-1.9726,-2.0054,-2.0246,-2.0348,-2.0731,-2.1118,-2.1491,-2.1491,-2.1735,-2.2077,-2.2135,-2.218,-2.218,-2.218,-2.2237,-2.231,-2.231,-2.2226,-2.2141,-2.2276,-2.2226,-2.2141,-2.2276,-2.231,-2.231,-2.231,-2.231,-2.231,-2.231,-2.231,-2.231,-2.231,-2.231,-2.231,-2.231,-2.231,-2.231,-2.231,-2.231,-2.231,-2.231,-2.231,-2.231,-2.231,-2.231,-2.231,-2.231,-2.231,-2.231,-2.231,-2.231,-2.231,-2.231,-2.2349,-2.249,-2.2695,-2.2822,-2.3021,-2.33,-2.3346,-2.3369,-2.3392,-2.3671,-2.3795,0.6512,0.661,0.6129,0.3858,0.1658,-0.0917,-0.4493,0.0,0.0,0.0,-1.2069,-1.2159,-1.2619,0.0,0.0,0.0,0.0,0.0,0.0,0.0,0.0,0.0,0.0,0.0,0.0,0.0,0.0,0.0,0.0,0.0,-1.052,-1.0707,-1.1434,-1.2881,-1.4061,-1.4698,-1.4698,-1.5888,-1.6522,-1.6522,-1.7353,-1.7867,-1.8145,-1.893,-1.9442,-1.969,0.0,0.0,-2.0035,-2.0212,-2.0567,-2.0991,-2.1228,-2.1568,-2.1957,-2.1957,-2.2106,-2.231,-2.231,-2.231,-2.2243,-2.1854,-2.1735,-2.1651,-2.1218,-2.0856,-2.0703,-2.1498,-2.1431,-2.1285,-2.2107,-2.231,-2.231,-2.231,-2.231,-2.231,-2.231,-2.231,-2.231,-2.231,-2.231,-2.231,-2.231,-2.231,-2.231,-2.231,-2.231,-2.231,-2.231,-2.231,-2.231,-2.231,-2.231,-2.231,-2.231,-2.231,-2.231,-2.231,-2.231,-2.231,-2.231,-2.231,-2.236,-2.2473,-2.2634,-2.2772,-2.2947,-2.3117,-2.3189,-2.3189,-2.3369,-2.3437,0.5901,0.6051,0.5504,0.2055,-0.0251,-0.2799,-0.6894,-0.9286,0.0,0.0,-1.2387,-1.2089,-1.3065,0.0,0.0,0.0,0.0,0.0,0.0,0.0,0.0,0.0,0.0,0.0,0.0,0.0,0.0,0.0,0.0,0.0,0.0,-1.0669,-1.1584,-1.2881,-1.3931,-1.456,-1.4698,-1.5788,-1.638,-1.6522,-1.7585,-1.8106,-1.8145,-1.9207,-1.969,-1.9711,0.0,0.0,0.0,-2.0501,-2.0959,-2.1628,-2.1718,-2.1974,-2.231,-2.231,-2.231,-2.231,-2.231,-2.231,-2.2158,-2.1228,-2.1042,-2.1068,-2.0221,-1.9722,-1.9638,-2.0865,-2.0856,-2.0762,-2.2006,-2.231,-2.231,-2.231,-2.231,-2.231,-2.231,-2.231,-2.231,-2.231,-2.231,-2.231,-2.231,-2.231,-2.231,-2.231,-2.231,-2.231,-2.231,-2.231,-2.231,-2.231,-2.231,-2.231,-2.231,-2.231,-2.231,-2.231,-2.231,-2.231,-2.231,-2.231,-2.231,-2.231,-2.25,-2.2625,-2.2608,-2.2865,-2.3014,-2.3014,-2.3087,-2.3093,0.4471,0.4414,0.363,0.0188,-0.2625,-0.5429,-0.8562,0.0,0.0,-1.4001,-1.374,-1.3445,-1.3882,-1.4007,0.0,0.0,0.0,-1.2948,0.0,0.0,0.0,0.0,0.0,0.0,0.0,0.0,0.0,0.0,0.0,0.0,0.0,-1.1366,-1.208,-1.2881,-1.3552,-1.4143,-1.4698,-1.5365,-1.5952,-1.6522,-1.7585,-1.8106,-1.8145,-1.9207,-1.969,-1.9711,0.0,0.0,0.0,-2.1165,-2.1521,-2.1658,-2.2077,-2.2254,-2.231,-2.231,-2.231,-2.231,-2.231,-2.231,-2.2073,-2.0576,-2.0602,-2.1068,-2.0221,-2.0467,-2.1034,-2.117,-2.1634,-2.2124,-2.2276,-2.231,-2.231,-2.231,-2.231,-2.231,-2.231,-2.231,-2.231,-2.231,-2.231,-2.231,-2.231,-2.231,-2.231,-2.231,-2.231,-2.231,-2.231,-2.231,-2.231,-2.231,-2.231,-2.231,-2.231,-2.231,-2.231,-2.231,-2.231,-2.231,-2.231,-2.231,-2.231,-2.231,-2.2321,-2.2349,-2.2349,-2.2377,-2.2377,-2.2405,-2.2625,-2.2746,0.3457,0.2813,0.1422,-0.1737,-0.4602,-0.7568,-1.0968,0.0,-1.411,-1.4774,-1.4289,-1.3831,-1.44,-1.4307,-1.4055,0.0,0.0,0.0,0.0,0.0,0.0,0.0,0.0,0.0,0.0,0.0,0.0,0.0,0.0,0.0,0.0,-1.1266,-1.1733,-1.2871,-1.3836,-1.4468,-1.4698,-1.5644,-1.6238,-1.6522,-1.7585,-1.8106,-1.8145,-1.9207,-1.969,-1.9726,0.0,0.0,0.0,-2.1086,-2.1538,-2.2032,-2.2237,-2.231,-2.231,-2.231,-2.231,-2.231,-2.231,-2.231,-2.2057,-2.0491,-2.0204,-2.0264,-1.9039,-1.9215,-1.9908,-2.0348,-2.1042,-2.1735,-2.2192,-2.231,-2.231,-2.231,-2.231,-2.231,-2.231,-2.231,-2.231,-2.231,-2.231,-2.231,-2.231,-2.231,-2.231,-2.231,-2.231,-2.231,-2.231,-2.231,-2.231,-2.231,-2.231,-2.231,-2.231,-2.231,-2.231,-2.231,-2.231,-2.231,-2.231,-2.231,-2.231,-2.231,-2.231,-2.231,-2.231,-2.231,-2.231,-2.231,-2.2398,-2.2463,0.1336,0.0455,-0.1314,-0.4639,-0.7399,-1.0143,0.0,0.0,-1.548,-1.5614,-1.507,-1.4634,-1.4871,-1.465,-1.4356,-1.4138,0.0,-1.4091,0.0,0.0,0.0,0.0,0.0,0.0,0.0,0.0,0.0,0.0,0.0,0.0,0.0,-1.1366,-1.1633,-1.2881,-1.3884,-1.4514,-1.4698,-1.5744,-1.6337,-1.6522,-1.7422,-1.7947,-1.8145,-1.9043,-1.9566,0.0,0.0,0.0,0.0,-2.1118,-2.1615,-2.231,-2.231,-2.231,-2.231,-2.231,-2.231,-2.231,-2.231,-2.231,-2.2107,-2.0788,-2.0339,-2.0094,-1.8589,-1.8488,-1.9096,-2.0094,-2.0923,-2.1634,-2.2175,-2.231,-2.231,-2.231,-2.231,-2.231,-2.231,-2.231,-2.231,-2.231,-2.231,-2.231,-2.231,-2.231,-2.231,-2.231,-2.231,-2.231,-2.231,-2.231,-2.231,-2.231,-2.231,-2.231,-2.231,-2.231,-2.231,-2.231,-2.231,-2.231,-2.231,-2.231,-2.231,-2.231,-2.231,-2.231,-2.231,-2.231,-2.231,-2.231,-2.231,-2.231,-0.2335,-0.307,-0.4779,-0.8737,-1.1317,-1.345,0.0,0.0,-1.7014,-1.6506,-1.6349,-1.6031,-1.5245,-1.5153,-1.508,-1.4818,-1.4157,0.0,0.0,0.0,0.0,0.0,0.0,0.0,0.0,0.0,0.0,0.0,0.0,0.0,0.0,0.0,-1.2129,-1.2881,-1.3505,-1.4097,-1.4698,-1.532,-1.5908,-1.6522,-1.7034,-1.7585,-1.8145,-1.865,0.0,0.0,0.0,0.0,0.0,-2.143,-2.1869,-2.231,-2.231,-2.231,-2.231,-2.231,-2.231,-2.231,-2.231,-2.231,-2.2192,-2.1414,-2.1204,-2.0916,-1.935,-1.8894,-1.9215,-2.0763,-2.1718,-2.2293,-2.231,-2.231,-2.231,-2.231,-2.231,-2.231,-2.231,-2.231,-2.231,-2.231,-2.231,-2.231,-2.231,-2.231,-2.231,-2.231,-2.231,-2.231,-2.231,-2.231,-2.231,-2.231,-2.231,-2.231,-2.231,-2.231,-2.231,-2.231,-2.231,-2.231,-2.231,-2.231,-2.231,-2.231,-2.231,-2.231,-2.231,-2.231,-2.231,-2.231,-2.231,-2.231,-0.5636,-0.6881,-0.8601,-1.0833,-1.3125,-1.5213,-1.6529,0.0,-1.7666,-1.7068,-1.7286,-1.7338,-1.6553,-1.6356,-1.6271,-1.6181,-1.5441,0.0,0.0,0.0,0.0,0.0,0.0,0.0,0.0,0.0,0.0,0.0,0.0,0.0,0.0,0.0,-1.3294,-1.3505,-1.4107,-1.4687,-1.532,-1.5908,-1.6484,-1.7034,-1.7585,-1.8145,-1.865,-1.9207,0.0,0.0,0.0,0.0,0.0,-2.115,-2.1319,-2.1583,-2.2107,-2.1989,-2.16,-2.2124,-2.231,-2.231,-2.231,-2.231,-2.2107,-2.0805,-2.0382,-2.0196,-1.9198,-1.9249,-1.9875,-2.0916,-2.1735,-2.231,-2.231,-2.231,-2.231,-2.231,-2.231,-2.231,-2.231,-2.231,-2.231,-2.231,-2.231,-2.231,-2.231,-2.231,-2.231,-2.231,-2.231,-2.231,-2.231,-2.231,-2.231,-2.231,-2.231,-2.231,-2.231,-2.231,-2.231,-2.231,-2.231,-2.231,-2.231,-2.231,-2.231,-2.231,-2.231,-2.231,-2.231,-2.231,-2.231,-2.231,-2.231,-2.231,0.0,-1.0601,-1.2219,-1.352,-1.52,0.0,0.0,0.0,-1.8013,-1.7612,-1.7876,-1.8026,-1.747,-1.7138,-1.6974,-1.6871,-1.6132,0.0,0.0,0.0,0.0,0.0,0.0,0.0,0.0,0.0,0.0,0.0,0.0,0.0,0.0,0.0,-1.4226,-1.4457,-1.4824,-1.5231,-1.5588,-1.6194,-1.6752,-1.7312,-1.7626,-1.8185,-1.8893,0.0,0.0,0.0,0.0,0.0,0.0,-2.0687,-2.0822,-2.1221,-2.138,-2.116,-2.0805,-2.1278,-2.1421,-2.1421,-2.1421,-2.1421,-2.1269,-2.0306,-2.0002,-1.9917,-1.9452,-1.9858,-2.0568,-2.1042,-2.1735,-2.231,-2.231,-2.231,-2.231,-2.231,-2.231,-2.231,-2.231,-2.231,-2.231,-2.231,-2.231,-2.231,-2.231,-2.231,-2.231,-2.231,-2.231,-2.231,-2.231,-2.231,-2.231,-2.231,-2.231,-2.231,-2.231,-2.231,-2.231,-2.231,-2.231,-2.231,-2.231,-2.231,-2.231,-2.231,-2.231,-2.231,-2.231,-2.231,-2.231,-2.231,-2.231,-2.231,0.0,-1.4209,0.0,0.0,0.0,0.0,0.0,0.0,0.0,-1.8161,-1.826,-1.8257,-1.8053,-1.769,-1.7333,-1.7151,-1.6428,0.0,0.0,0.0,0.0,0.0,0.0,0.0,0.0,0.0,0.0,0.0,0.0,0.0,0.0,0.0,0.0,-1.5632,-1.572,-1.572,-1.572,-1.6281,-1.6837,-1.7435,-1.7435,-1.7947,-1.8968,0.0,0.0,0.0,0.0,0.0,0.0,-2.0177,-2.0397,-2.1068,-2.0339,-2.0018,-1.9917,-1.9985,-2.0002,-2.0002,-2.0002,-2.0035,-2.0086,-2.0086,-2.0002,-1.9934,-2.0052,-2.0602,-2.1204,-2.1204,-2.1735,-2.231,-2.231,-2.231,-2.231,-2.231,-2.231,-2.231,-2.231,-2.231,-2.231,-2.231,-2.231,-2.231,-2.231,-2.231,-2.231,-2.231,-2.231,-2.231,-2.231,-2.231,-2.231,-2.231,-2.231,-2.231,-2.231,-2.231,-2.231,-2.231,-2.231,-2.231,-2.231,-2.231,-2.231,-2.231,-2.231,-2.231,-2.231,-2.231,-2.231,-2.231,-2.231,-2.231,-1.7476,0.0,-1.6867,-1.7576,-1.7909,-1.8044,0.0,0.0,0.0,0.0,0.0,0.0,0.0,-1.8877,-1.8536,-1.8522,-1.6957,0.0,0.0,0.0,0.0,0.0,0.0,0.0,0.0,0.0,0.0,0.0,0.0,0.0,0.0,0.0,0.0,-1.6176,-1.6659,-1.6883,-1.6883,-1.7021,-1.7585,-1.8535,-1.8535,-1.8855,-1.953,0.0,0.0,0.0,0.0,0.0,-2.0222,-2.0061,-2.0115,-2.0331,-2.0754,-2.0196,-1.9232,-1.9782,-2.0002,-2.0002,-2.0002,-2.0416,-2.0906,-2.0906,-2.0111,-1.9384,-2.0551,-2.1042,-2.1204,-2.1204,-2.1735,-2.231,-2.231,-2.231,-2.231,-2.231,-2.231,-2.231,-2.231,-2.231,-2.231,-2.231,-2.231,-2.231,-2.231,-2.231,-2.231,-2.231,-2.231,-2.231,-2.231,-2.231,-2.231,-2.231,-2.231,-2.231,-2.231,-2.231,-2.231,-2.231,-2.231,-2.231,-2.231,-2.231,-2.231,-2.231,-2.231,-2.231,-2.231,-2.231,-2.231,-2.231,-2.231,-2.231,-1.8517,-1.8796,-1.9058,-1.971,-1.9614,-1.932,-1.9065,0.0,0.0,0.0,0.0,0.0,0.0,0.0,0.0,0.0,0.0,0.0,0.0,0.0,0.0,0.0,0.0,0.0,0.0,0.0,0.0,0.0,0.0,0.0,0.0,0.0,0.0,0.0,-1.749,-1.7666,-1.7666,-1.7666,-1.8066,-1.8893,-1.8893,-1.9169,-1.969,0.0,0.0,0.0,0.0,0.0,-2.0083,-1.9436,-1.9583,-2.0237,-2.0338,-1.9773,-1.8944,-1.935,-1.9275,-1.9039,-1.9384,-2.001,-2.0585,-2.0247,-2.0069,-2.012,-2.0967,-2.1431,-2.1701,-2.1701,-2.1752,-2.187,-2.2226,-2.231,-2.231,-2.231,-2.231,-2.231,-2.231,-2.231,-2.231,-2.231,-2.231,-2.231,-2.231,-2.231,-2.231,-2.231,-2.231,-2.231,-2.231,-2.231,-2.231,-2.231,-2.231,-2.231,-2.231,-2.231,-2.231,-2.231,-2.231,-2.231,-2.231,-2.231,-2.231,-2.231,-2.231,-2.231,-2.231,-2.231,-2.231,-2.231,-2.231,-2.231,-1.8258,-1.9677,-2.1155,-2.1585,-2.1215,-2.0625,-2.0174,0.0,0.0,0.0,0.0,0.0,0.0,0.0,0.0,0.0,0.0,0.0,0.0,0.0,0.0,0.0,0.0,0.0,0.0,0.0,0.0,0.0,0.0,0.0,0.0,0.0,0.0,0.0,-1.8185,-1.8263,-1.8341,-1.8263,-1.8496,-1.9006,-1.9006,-1.9244,-1.969,-1.969,0.0,0.0,0.0,0.0,-2.0082,-1.8888,-1.9196,-2.0344,-1.9783,-1.9256,-1.8822,-1.887,-1.8437,-1.7912,-1.864,-1.9316,-1.9765,-1.9384,-1.9976,-2.0916,-2.1271,-2.1634,-2.2006,-2.2243,-2.1854,-2.1498,-2.2141,-2.231,-2.231,-2.231,-2.231,-2.231,-2.231,-2.231,-2.231,-2.231,-2.231,-2.231,-2.231,-2.231,-2.231,-2.231,-2.231,-2.231,-2.231,-2.231,-2.231,-2.231,-2.231,-2.231,-2.231,-2.231,-2.231,-2.231,-2.231,-2.231,-2.231,-2.231,-2.231,-2.231,-2.231,-2.231,-2.231,-2.231,-2.231,-2.231,-2.231,-2.231,-1.8556,-2.0294,-2.1529,-2.0937,-2.0394,-1.9938,0.0,0.0,0.0,0.0,0.0,0.0,0.0,0.0,0.0,0.0,0.0,0.0,0.0,0.0,0.0,0.0,0.0,0.0,0.0,0.0,0.0,0.0,0.0,0.0,0.0,0.0,0.0,0.0,0.0,-1.9006,-1.9442,-1.9006,-1.9043,-1.9566,-1.9566,-1.9603,-1.969,-1.969,-1.9375,0.0,0.0,-1.9019,-1.9525,-1.9308,-1.9531,-2.0012,-2.0237,-1.9526,-1.8425,-1.8773,-1.8437,-1.7912,-1.864,-1.8961,-1.9266,-2.0475,-2.0111,-1.9604,-2.1549,-2.1285,-2.0627,-2.1938,-2.2226,-2.2175,-2.2276,-2.231,-2.231,-2.231,-2.231,-2.231,-2.231,-2.231,-2.231,-2.231,-2.231,-2.231,-2.231,-2.231,-2.231,-2.231,-2.231,-2.231,-2.231,-2.231,-2.231,-2.231,-2.231,-2.231,-2.231,-2.231,-2.231,-2.231,-2.231,-2.231,-2.231,-2.231,-2.231,-2.231,-2.231,-2.231,-2.231,-2.231,-2.231,-2.231,-2.231,-2.231,-1.7422,-1.861,-1.9589,-1.9485,-2.0872,-2.2247,0.0,0.0,0.0,0.0,0.0,0.0,0.0,0.0,0.0,0.0,0.0,0.0,0.0,0.0,0.0,0.0,0.0,0.0,0.0,0.0,0.0,0.0,0.0,0.0,0.0,0.0,0.0,0.0,0.0,0.0,-2.0035,-1.9793,-1.9666,-1.969,-1.969,-1.969,-1.969,-1.969,-1.9525,-1.9211,0.0,-1.9034,-1.9543,-1.9177,-1.9456,-2.0129,-2.0156,-1.9902,-1.9454,-1.9034,-1.8944,-1.8971,-1.891,-1.9435,-2.0247,-2.0983,-2.0729,-2.0331,-2.138,-2.1211,-2.0703,-2.0964,-2.138,-2.1803,-2.2209,-2.231,-2.231,-2.231,-2.231,-2.231,-2.231,-2.231,-2.231,-2.231,-2.231,-2.231,-2.231,-2.231,-2.231,-2.231,-2.231,-2.231,-2.231,-2.231,-2.231,-2.231,-2.1938,-2.1701,-2.1701,-2.1701,-2.187,-2.2276,-2.231,-2.231,-2.231,-2.231,-2.231,-2.231,-2.231,-2.231,-2.231,-2.231,-2.231,-2.231,-2.231,-2.231,-1.6197,-1.6931,-1.7786,-1.8397,0.0,0.0,0.0,0.0,0.0,0.0,0.0,0.0,0.0,0.0,0.0,0.0,0.0,0.0,0.0,0.0,0.0,0.0,0.0,0.0,0.0,0.0,0.0,0.0,0.0,0.0,0.0,0.0,0.0,0.0,0.0,0.0,-2.0158,-2.0246,-2.0193,-2.0015,-1.9874,-1.9839,-1.9839,-1.9747,-1.969,-1.966,-1.9151,-1.9226,-1.9645,-1.9151,-1.9474,-2.0302,-2.0194,-2.024,-2.0268,-1.9269,-1.9384,-1.9917,-1.935,-2.0044,-2.1204,-2.1204,-2.0967,-2.0746,-2.1102,-2.1085,-2.0822,-2.0416,-2.0856,-2.1532,-2.1938,-2.2175,-2.231,-2.231,-2.231,-2.231,-2.231,-2.231,-2.231,-2.231,-2.231,-2.231,-2.231,-2.231,-2.231,-2.231,-2.231,-2.231,-2.231,-2.2158,-2.204,-2.204,-2.1363,-2.0991,-2.1187,-2.1373,-2.1701,-2.2276,-2.231,-2.231,-2.231,-2.231,-2.231,-2.231,-2.231,-2.231,-2.231,-2.218,-2.2135,-2.2135,-2.2049,-2.1991,-1.5588,-1.6378,-1.7429,-1.8384,-1.8737,0.0,-1.9939,-1.9197,0.0,0.0,0.0,0.0,0.0,0.0,0.0,0.0,0.0,0.0,0.0,0.0,0.0,0.0,0.0,0.0,0.0,0.0,0.0,0.0,0.0,0.0,0.0,0.0,0.0,0.0,0.0,0.0,-1.9747,-2.0124,-2.0516,-2.0894,-2.0449,-2.0246,-2.0246,-1.9874,-1.969,-1.969,-1.963,-1.9681,-1.969,-1.963,-1.9899,-2.0348,-2.0766,-2.0548,-1.9942,-1.9198,-1.9384,-1.9985,-1.9934,-2.0483,-2.1204,-2.1204,-2.0238,-1.9316,-2.078,-2.0686,-2.0221,-2.0906,-2.1651,-2.209,-2.1431,-2.1786,-2.231,-2.231,-2.231,-2.231,-2.231,-2.231,-2.231,-2.231,-2.231,-2.231,-2.231,-2.231,-2.231,-2.231,-2.231,-2.231,-2.231,-2.1701,-2.1288,-2.1288,-2.0568,-2.0399,-2.1153,-2.1837,-2.2243,-2.231,-2.231,-2.231,-2.231,-2.231,-2.231,-2.231,-2.231,-2.231,-2.231,-2.1853,-2.1658,-2.1658,-2.1291,-2.1086,-1.4453,-1.5065,-1.581,-1.6165,-1.6628,0.0,0.0,-1.9385,-1.8123,0.0,0.0,0.0,0.0,0.0,0.0,0.0,0.0,0.0,0.0,0.0,0.0,0.0,0.0,0.0,0.0,0.0,0.0,0.0,0.0,0.0,0.0,0.0,0.0,0.0,0.0,0.0,0.0,-2.0094,-2.0304,-2.0701,-2.0703,-2.0583,-2.0265,-1.9743,-1.9641,-1.9776,-1.8864,-1.8582,-1.8781,-1.9,-1.9031,-1.9075,-1.9739,-2.0003,-1.99,-1.9164,-1.9384,-2.0002,-2.0002,-1.9908,-1.9925,-2.0899,-2.0171,-1.8995,-1.9587,-1.9891,-1.9968,-1.9807,-2.0991,-2.2243,-2.1955,-2.209,-2.231,-2.231,-2.231,-2.231,-2.231,-2.231,-2.231,-2.231,-2.231,-2.231,-2.231,-2.231,-2.231,-2.231,-2.231,-2.231,-2.231,-2.2073,-2.1701,-2.1254,-2.0483,-2.0026,-2.0073,-2.0755,-2.1284,-2.1491,-2.1991,-2.231,-2.231,-2.231,-2.2163,-2.1869,-2.2135,-2.202,-2.1493,-2.1568,-2.146,-2.1213,-2.1055,-2.0991,-1.3759,-1.4152,-1.4648,-1.4912,0.0,0.0,-1.8626,-1.8321,0.0,0.0,0.0,0.0,0.0,0.0,0.0,0.0,0.0,0.0,0.0,0.0,0.0,0.0,0.0,0.0,0.0,0.0,0.0,0.0,0.0,0.0,0.0,0.0,0.0,0.0,0.0,0.0,0.0,-1.9484,-1.9585,-1.979,-2.0291,-2.035,-2.0004,-1.9453,-1.9342,-1.9494,-1.8501,-1.8114,-1.8207,-1.8459,-1.8497,-1.8465,-1.8919,-1.9325,-1.9579,-1.9096,-1.9384,-1.9985,-1.9883,-1.9765,-1.9739,-2.043,-1.985,-1.8944,-1.9181,-1.9452,-1.9655,-1.9621,-2.0737,-2.2006,-2.2243,-2.231,-2.231,-2.231,-2.231,-2.231,-2.231,-2.231,-2.231,-2.231,-2.231,-2.231,-2.231,-2.231,-2.231,-2.231,-2.231,-2.231,-2.231,-2.2107,-2.1667,-2.0889,-2.043,-2.006,-1.9772,-2.0315,-2.0756,-2.1007,-2.1554,-2.1886,-2.1886,-2.1886,-2.1751,-2.1399,-2.1721,-2.1584,-2.0991,-2.115,-2.1039,-2.0797,-2.0632,-2.0599,-1.3639,-1.3756,-1.4282,0.0,0.0,0.0,0.0,0.0,0.0,0.0,0.0,0.0,0.0,0.0,0.0,0.0,0.0,0.0,0.0,0.0,0.0,0.0,0.0,0.0,0.0,0.0,0.0,0.0,0.0,0.0,0.0,0.0,0.0,0.0,0.0,0.0,0.0,-1.8145,-1.8346,-1.8192,-1.9074,-1.9454,-1.9389,-1.8981,-1.8779,-1.8779,-1.8779,-1.8556,-1.8177,-1.8177,-1.8465,-1.8856,-1.8516,-1.861,-1.8894,-1.8894,-1.935,-1.9934,-1.9615,-2.0247,-2.0981,-1.9847,-1.9219,-1.9046,-1.9765,-1.9478,-1.9232,-2.0754,-2.1177,-2.1363,-2.2124,-2.231,-2.2282,-2.231,-2.231,-2.231,-2.231,-2.231,-2.231,-2.231,-2.231,-2.231,-2.231,-2.231,-2.231,-2.231,-2.231,-2.231,-2.231,-2.1651,-2.0889,-2.0086,-2.0306,-2.0496,-2.0496,-2.0809,-2.0991,-2.1007,-2.1007,-2.0991,-2.0991,-2.0991,-2.0991,-2.0991,-2.0991,-2.1007,-2.1007,-2.0516,-2.0314,-2.028,-1.9874,-1.969,-1.2588,-1.2822,0.0,0.0,0.0,0.0,0.0,0.0,0.0,0.0,0.0,0.0,0.0,0.0,0.0,0.0,0.0,0.0,0.0,0.0,0.0,0.0,0.0,0.0,0.0,0.0,0.0,0.0,0.0,0.0,0.0,0.0,0.0,0.0,0.0,0.0,0.0,0.0,-1.7762,-1.7934,-1.8486,-1.8976,-1.9383,-1.8784,-1.8644,-1.8834,-1.7834,-1.7476,-1.7575,-1.7575,-1.7776,-1.8095,-1.7755,-1.8159,-1.8802,-1.805,-1.8382,-1.9208,-1.9117,-1.8957,-1.8836,-1.9033,-1.899,-1.8879,-1.8817,-1.9057,-1.9525,-2.0445,-2.0541,-2.0681,-2.195,-2.2061,-2.1899,-2.2209,-2.231,-2.231,-2.231,-2.231,-2.231,-2.231,-2.231,-2.231,-2.231,-2.231,-2.231,-2.231,-2.231,-2.231,-2.231,-2.1651,-2.0995,-2.0412,-2.0449,-2.0248,-1.9657,-2.0158,-2.0398,-2.0104,-2.0085,-2.0345,-2.0959,-2.0991,-2.0829,-2.0516,-2.0829,-2.0698,-2.0085,-2.0227,-2.0158,-1.9874,-1.9747,-1.969,-1.2668,0.0,0.0,0.0,0.0,0.0,0.0,0.0,0.0,0.0,0.0,0.0,0.0,0.0,0.0,0.0,0.0,0.0,0.0,0.0,0.0,0.0,0.0,0.0,0.0,0.0,0.0,0.0,0.0,0.0,0.0,0.0,0.0,0.0,0.0,0.0,0.0,0.0,0.0,-1.7212,-1.7571,-1.8058,-1.8572,-1.8294,-1.8265,-1.8414,-1.7404,-1.7101,-1.7296,-1.715,-1.7311,-1.7575,-1.7388,-1.7793,-1.838,-1.7739,-1.8088,-1.8843,-1.8397,-1.8259,-1.8245,-1.8262,-1.8545,-1.8896,-1.8951,-1.9031,-1.9267,-2.0273,-2.0185,-2.0013,-2.0944,-2.1306,-2.1607,-2.2169,-2.231,-2.231,-2.231,-2.231,-2.231,-2.231,-2.231,-2.231,-2.231,-2.231,-2.231,-2.231,-2.2135,-2.1974,-2.1811,-2.14,-2.1015,-2.0717,-2.0519,-2.021,-1.9677,-1.9894,-1.9965,-1.9726,-1.969,-1.9945,-2.0481,-2.0481,-2.0345,-2.007,-2.033,-2.0208,-1.969,-1.9929,-1.9929,-1.969,-1.969,-1.969,-1.3238,0.0,0.0,0.0,0.0,0.0,0.0,0.0,0.0,0.0,0.0,0.0,0.0,0.0,0.0,0.0,0.0,0.0,0.0,0.0,0.0,0.0,0.0,0.0,0.0,0.0,0.0,0.0,0.0,0.0,0.0,0.0,0.0,0.0,0.0,0.0,0.0,0.0,0.0,0.0,-1.6633,-1.6993,-1.732,-1.7658,-1.7811,-1.7789,-1.7479,-1.7344,-1.7296,-1.7002,-1.7052,-1.7296,-1.7296,-1.7486,-1.7789,-1.7766,-1.8211,-1.8667,-1.7671,-1.7983,-1.8643,-1.7655,-1.8057,-1.9029,-1.9656,-1.916,-1.8654,-2.0047,-1.9887,-1.9328,-1.9464,-2.0264,-2.1218,-2.191,-2.2107,-2.2107,-2.2107,-2.2158,-2.2209,-2.2209,-2.2209,-2.2226,-2.2293,-2.2192,-2.2124,-2.2192,-2.1866,-2.146,-2.1086,-2.1023,-2.0991,-2.0926,-2.055,-2.028,-2.0246,-1.9909,-1.969,-1.969,-1.969,-1.969,-1.969,-1.969,-1.969,-1.969,-1.969,-1.969,-1.969,-1.969,-1.969,-1.969,-1.969,-1.969,0.0,-1.1238,0.0,0.0,0.0,0.0,0.0,0.0,0.0,0.0,0.0,0.0,0.0,0.0,0.0,0.0,0.0,0.0,0.0,0.0,0.0,0.0,0.0,0.0,0.0,0.0,0.0,0.0,0.0,0.0,0.0,0.0,0.0,0.0,0.0,0.0,-1.5225,-1.5255,-1.5609,0.0,-1.6633,-1.6993,-1.732,-1.7658,-1.7811,-1.7789,-1.7726,-1.7549,-1.732,-1.7502,-1.7479,-1.7296,-1.7296,-1.7486,-1.7766,-1.7486,-1.7673,-1.7991,-1.7754,-1.7828,-1.7991,-1.7754,-1.8238,-1.8879,-1.8718,-1.8369,-1.8178,-1.9022,-1.855,-1.8023,-1.9181,-1.9623,-1.9913,-2.0389,-2.0491,-2.0491,-2.0491,-2.0991,-2.1431,-2.1431,-2.1431,-2.1617,-2.2209,-2.1285,-2.0694,-2.1329,-2.1516,-2.1552,-2.1491,-2.1181,-2.0862,-2.0483,-2.0348,-2.0193,-1.9839,-1.9747,-1.969,-1.969,-1.969,-1.969,-1.969,-1.969,-1.969,-1.969,-1.969,-1.969,-1.969,-1.969,-1.969,-1.969,-1.969,-1.969,0.0,0.0,0.0,0.0,0.0,0.0,0.0,0.0,0.0,0.0,0.0,0.0,0.0,0.0,0.0,0.0,0.0,0.0,0.0,0.0,0.0,0.0,0.0,0.0,0.0,0.0,0.0,0.0,0.0,0.0,0.0,0.0,0.0,0.0,0.0,0.0,-1.4783,-1.5013,-1.53,-1.5739,-1.6459,-1.7068,-1.7549,-1.7726,-1.7811,-1.7811,-1.7811,-1.7704,-1.7549,-1.7726,-1.7704,-1.7549,-1.7549,-1.7658,-1.7789,-1.7595,-1.7658,-1.7811,-1.7811,-1.7811,-1.7811,-1.7811,-1.8185,-1.861,-1.8409,-1.8134,-1.7973,-1.8299,-1.8015,-1.7717,-1.8297,-1.868,-1.8887,-1.8743,-1.9362,-2.0002,-2.0002,-2.0331,-2.0636,-2.0636,-2.0636,-2.0754,-2.1116,-2.0856,-2.0769,-2.1301,-2.1516,-2.146,-2.1023,-2.0781,-2.0499,-2.007,-2.0,-1.9945,-1.9711,-1.969,-1.969,-1.969,-1.969,-1.969,-1.969,-1.969,-1.969,-1.969,-1.969,-1.969,-1.969,-1.969,-1.969,-1.969,-1.969,-1.969,0.0,0.0,0.0,0.0,0.0,0.0,0.0,0.0,0.0,0.0,0.0,0.0,0.0,0.0,0.0,0.0,0.0,0.0,0.0,0.0,0.0,0.0,0.0,0.0,0.0,0.0,0.0,0.0,0.0,0.0,0.0,0.0,0.0,0.0,0.0,-1.3842,-1.4251,-1.4676,-1.4968,-1.509,-1.6254,-1.7167,-1.7811,-1.7811,-1.7811,-1.7811,-1.7811,-1.7811,-1.7811,-1.7811,-1.7811,-1.7811,-1.7811,-1.7811,-1.7811,-1.7811,-1.7811,-1.7811,-1.7811,-1.7811,-1.7811,-1.7811,-1.8031,-1.8278,-1.8227,-1.8007,-1.7754,-1.7663,-1.7717,-1.7678,-1.7248,-1.7666,-1.8037,-1.7355,-1.8344,-1.9446,-1.9446,-1.9572,-1.9723,-1.9723,-1.9993,-2.012,-1.9849,-2.0585,-2.1204,-2.1213,-2.1319,-2.1144,-2.04,-2.0314,-2.0158,-1.9747,-1.969,-1.969,-1.969,-1.969,-1.969,-1.969,-1.969,-1.969,-1.969,-1.969,-1.969,-1.969,-1.969,-1.969,-1.969,-1.969,-1.969,-1.969,-1.969,-1.969,0.0,0.0,0.0,0.0,0.0,0.0,0.0,0.0,0.0,0.0,0.0,0.0,0.0,0.0,0.0,0.0,0.0,0.0,0.0,0.0,0.0,0.0,0.0,0.0,0.0,0.0,0.0,0.0,0.0,0.0,0.0,0.0,-1.1834,-1.1871,-1.2001,-1.2484,-1.3264,-1.3795,-1.4406,-1.509,-1.6254,-1.7167,-1.7811,-1.7811,-1.7811,-1.7811,-1.7811,-1.7811,-1.7811,-1.7811,-1.7811,-1.7811,-1.7811,-1.7811,-1.7811,-1.7811,-1.7811,-1.7811,-1.7811,-1.7811,-1.7811,-1.7811,-1.7833,-1.7832,-1.7541,-1.742,-1.7256,-1.668,-1.6927,-1.724,-1.6596,-1.694,-1.7338,-1.6959,-1.7062,-1.7216,-1.7216,-1.796,-1.8608,-1.8608,-1.9932,-2.0602,-1.9283,-2.023,-2.0868,-1.9849,-2.0249,-2.0546,-2.0338,-2.0314,-2.0158,-1.9747,-1.969,-1.969,-1.969,-1.969,-1.969,-1.969,-1.969,-1.969,-1.969,-1.969,-1.969,-1.969,-1.969,-1.969,-1.969,-1.969,-1.969,-1.969,-1.969,-1.969,-1.1948,0.0,0.0,0.0,0.0,0.0,0.0,0.0,0.0,0.0,0.0,0.0,0.0,0.0,0.0,0.0,0.0,0.0,0.0,0.0,0.0,0.0,0.0,0.0,0.0,0.0,0.0,0.0,0.0,0.0,0.0,-1.0578,-1.0935,-1.1295,-1.1625,0.0,-1.2777,-1.3509,-1.441,-1.5389,-1.5931,-1.6443,-1.6886,-1.666,-1.7033,-1.7811,-1.7811,-1.7811,-1.7811,-1.7971,-1.7927,-1.7811,-1.7971,-1.7927,-1.7811,-1.7811,-1.7811,-1.7811,-1.7811,-1.7811,-1.7811,-1.7811,-1.7681,-1.7502,-1.7344,-1.7296,-1.7183,-1.6712,-1.6926,-1.7231,-1.6935,-1.7085,-1.7224,-1.6892,-1.6789,-1.6738,-1.6554,-1.7029,-1.7513,-1.7513,-1.8773,-1.9536,-1.8522,-1.9548,-2.0315,-1.98,-2.0321,-2.0654,-2.0335,-2.0314,-2.0158,-1.9747,-1.969,-1.969,-1.969,-1.969,-1.969,-1.969,-1.969,-1.969,-1.969,-1.969,-1.969,-1.969,-1.969,-1.969,-1.969,-1.969,-1.969,-1.969,-1.969,-1.969,0.0,0.0,0.0,0.0,0.0,0.0,0.0,0.0,0.0,0.0,0.0,0.0,0.0,0.0,0.0,0.0,0.0,0.0,0.0,0.0,0.0,0.0,0.0,0.0,0.0,0.0,0.0,0.0,0.0,0.0,-0.918,-0.9787,-1.0246,-1.0611,-1.1394,-1.1957,-1.2318,-1.3475,-1.4571,-1.559,-1.5655,-1.5959,-1.645,-1.5858,-1.6306,-1.7523,-1.7523,-1.7523,-1.7562,-1.7928,-1.8035,-1.7905,-1.8057,-1.8014,-1.7883,-1.7833,-1.7811,-1.7811,-1.7811,-1.7811,-1.7811,-1.7811,-1.7635,-1.7415,-1.7344,-1.7368,-1.7344,-1.6917,-1.7101,-1.7392,-1.7224,-1.7248,-1.7224,-1.6892,-1.6738,-1.6633,-1.6448,-1.6607,-1.6927,-1.7368,-1.8191,-1.8741,-1.8475,-1.9249,-1.9875,-1.9797,-2.0336,-2.0574,-2.0212,-2.0246,-2.0158,-1.9747,-1.969,-1.969,-1.969,-1.969,-1.969,-1.969,-1.969,-1.969,-1.969,-1.969,-1.969,-1.969,-1.969,-1.969,-1.969,-1.969,-1.969,-1.969,-1.9566,-1.9566,0.0,0.0,0.0,0.0,0.0,0.0,0.0,0.0,0.0,0.0,0.0,0.0,0.0,0.0,0.0,0.0,0.0,0.0,0.0,0.0,0.0,0.0,0.0,0.0,0.0,0.0,0.0,0.0,0.0,0.0,-0.8416,-0.947,-0.9926,-0.9567,-1.1008,-1.1811,-1.1847,-1.3583,-1.4864,-1.559,-1.5655,-1.6241,-1.7221,-1.6114,-1.6018,-1.6766,-1.6766,-1.6766,-1.6817,-1.7545,-1.7971,-1.8146,-1.7905,-1.7971,-1.8146,-1.7883,-1.7811,-1.7811,-1.7811,-1.7811,-1.7811,-1.7811,-1.7789,-1.7704,-1.7392,-1.7526,-1.7635,-1.6993,-1.7264,-1.7635,-1.6993,-1.7052,-1.7224,-1.6892,-1.6554,-1.6409,-1.6712,-1.6789,-1.7293,-1.8958,-1.9074,-1.9103,-1.9698,-1.9858,-1.9751,-1.9306,-1.9657,-1.9909,-1.9728,-2.0054,-2.0158,-1.9747,-1.969,-1.969,-1.969,-1.969,-1.969,-1.969,-1.969,-1.969,-1.969,-1.969,-1.969,-1.969,-1.969,-1.969,-1.969,-1.969,-1.969,-1.969,-1.9169,-1.9207,0.0,0.0,0.0,0.0,0.0,0.0,0.0,0.0,0.0,0.0,0.0,0.0,0.0,0.0,0.0,0.0,0.0,0.0,0.0,0.0,0.0,0.0,0.0,0.0,0.0,0.0,0.0,0.0,0.0,0.0,-0.8283,-0.8863,-0.9299,-0.9478,-1.1008,-1.2234,-1.3135,-1.4071,-1.4558,-1.4644,-1.4704,-1.4797,-1.4913,-1.4235,-1.4182,-1.4633,-1.5598,-1.5984,-1.6055,-1.6969,-1.7298,-1.7308,-1.8038,-1.8166,-1.7949,-1.8035,-1.7949,-1.7811,-1.7811,-1.7811,-1.7811,-1.7811,-1.7811,-1.7789,-1.7658,-1.7704,-1.7721,-1.7248,-1.7455,-1.7635,-1.6968,-1.7216,-1.7479,-1.6942,-1.6874,-1.698,-1.7077,-1.6908,-1.6918,-1.7556,-1.8269,-1.8713,-1.8512,-1.9186,-1.958,-1.8951,-1.939,-1.9756,-1.9696,-1.9854,-1.9874,-1.9726,-1.969,-1.969,-1.969,-1.969,-1.969,-1.969,-1.969,-1.969,-1.969,-1.969,-1.969,-1.969,-1.969,-1.969,-1.969,-1.969,-1.969,-1.969,-1.9169,-1.9006,-1.9207,0.0,0.0,0.0,0.0,0.0,0.0,0.0,0.0,0.0,0.0,0.0,0.0,0.0,0.0,0.0,0.0,0.0,0.0,0.0,0.0,0.0,0.0,0.0,0.0,0.0,0.0,0.0,0.0,0.0,-0.7853,-0.8393,-0.9191,-1.0244,-1.1282,-1.2472,-1.3901,-1.431,-1.4368,-1.4098,-1.4177,-1.4257,-1.4325,-1.3671,-1.3656,-1.4192,-1.5172,-1.5595,-1.5699,-1.687,-1.7147,-1.6932,-1.7954,-1.8072,-1.7738,-1.7975,-1.8014,-1.7927,-1.7833,-1.7811,-1.7811,-1.7811,-1.7811,-1.7811,-1.7811,-1.7811,-1.7766,-1.7526,-1.7635,-1.7704,-1.7264,-1.7472,-1.7658,-1.7117,-1.7209,-1.7452,-1.7308,-1.7242,-1.7257,-1.7498,-1.817,-1.8627,-1.8418,-1.9106,-1.954,-1.9091,-1.9405,-1.969,-1.969,-1.969,-1.969,-1.969,-1.969,-1.969,-1.969,-1.969,-1.969,-1.969,-1.969,-1.969,-1.969,-1.969,-1.969,-1.969,-1.969,-1.969,-1.969,-1.969,-1.9603,-1.9406,-1.8893,-1.8458,0.0,0.0,0.0,0.0,0.0,0.0,0.0,0.0,0.0,0.0,0.0,0.0,0.0,0.0,0.0,0.0,0.0,0.0,0.0,0.0,0.0,0.0,0.0,0.0,0.0,0.0,0.0,0.0,0.0,-0.7609,-0.7012,-0.8095,-0.9649,-1.17,-1.1774,-1.2472,-1.3868,-1.4264,-1.434,-1.4069,-1.4121,-1.4703,-1.5654,-1.4574,-1.4621,-1.5561,-1.5612,-1.5629,-1.5731,-1.7185,-1.7509,-1.7134,-1.7616,-1.7697,-1.7524,-1.774,-1.7954,-1.8111,-1.7883,-1.7777,-1.7738,-1.7794,-1.7794,-1.7777,-1.7772,-1.7811,-1.7811,-1.7811,-1.7811,-1.7811,-1.7811,-1.7789,-1.7681,-1.7368,-1.7552,-1.7706,-1.7426,-1.7805,-1.8408,-1.9069,-1.8925,-1.8912,-1.957,-1.969,-1.969,-1.969,-1.969,-1.969,-1.969,-1.969,-1.969,-1.969,-1.969,-1.969,-1.969,-1.969,-1.969,-1.969,-1.969,-1.969,-1.969,-1.969,-1.969,-1.969,-1.969,-1.969,-1.969,-1.969,-1.9406,-1.8893,-1.8341,-1.7504,-2.3446,0.0,0.0,0.0,0.0,0.0,0.0,0.0,0.0,0.0,0.0,0.0,0.0,0.0,0.0,0.0,0.0,0.0,0.0,0.0,0.0,0.0,0.0,0.0,0.0,0.0,0.0,0.0,-0.6807,-0.6879,-0.6999,-0.8095,-0.946,-1.1169,-1.159,-1.2283,-1.3323,-1.3628,-1.3666,-1.3439,-1.3263,-1.3183,-1.3198,-1.362,-1.4067,-1.4588,-1.5856,-1.6411,-1.6445,-1.6851,-1.6927,-1.6891,-1.7748,-1.7941,-1.7744,-1.7992,-1.7675,-1.7194,-1.763,-1.7101,-1.639,-1.7456,-1.7439,-1.7101,-1.7642,-1.7811,-1.7811,-1.7811,-1.7811,-1.7811,-1.7811,-1.7432,-1.7101,-1.7272,-1.7552,-1.7916,-1.8353,-1.8702,-1.8912,-1.8861,-1.8771,-1.8912,-1.957,-1.969,-1.969,-1.969,-1.969,-1.969,-1.969,-1.969,-1.969,-1.969,-1.969,-1.969,-1.969,-1.969,-1.969,-1.969,-1.969,-1.969,-1.969,-1.969,-1.969,-1.969,-1.969,-1.953,-1.9132,-1.953,-1.9406,-1.8893,-1.7947,-1.7353,0.0,0.0,0.0,0.0,0.0,0.0,-1.3517,-1.0658,0.0,0.0,0.0,0.0,0.0,0.0,0.0,0.0,0.0,0.0,0.0,0.0,0.0,0.0,0.0,0.0,0.0,0.0,0.0,0.0,-0.6563,-0.6904,-0.7663,-0.8349,-0.9421,-1.0943,-1.1505,-1.2151,-1.2822,-1.3402,-1.3416,-1.2898,-1.3208,-1.325,-1.3122,-1.4104,-1.4724,-1.506,-1.6521,-1.6965,-1.6733,-1.7164,-1.7092,-1.677,-1.7446,-1.77,-1.7679,-1.7682,-1.7693,-1.7681,-1.7774,-1.7118,-1.6399,-1.7466,-1.7304,-1.6851,-1.7591,-1.7811,-1.7811,-1.7811,-1.7811,-1.7811,-1.7811,-1.7502,-1.7264,-1.7455,-1.7756,-1.8195,-1.8933,-1.9168,-1.9219,-1.9341,-1.923,-1.9226,-1.9615,-1.969,-1.969,-1.969,-1.969,-1.969,-1.969,-1.969,-1.969,-1.969,-1.969,-1.969,-1.969,-1.969,-1.969,-1.969,-1.969,-1.969,-1.969,-1.969,-1.9603,-1.9369,-1.9603,-1.9442,-1.8893,-1.9207,-1.8968,-1.8224,-1.7585,-1.7312,0.0,0.0,0.0,0.0,0.0,0.0,-1.6816,-1.3899,-1.1407,0.0,0.0,0.0,0.0,0.0,0.0,0.0,0.0,0.0,0.0,0.0,0.0,0.0,0.0,0.0,0.0,0.0,-0.4742,-0.5887,-0.6449,-0.7321,-0.8602,-0.87,-0.9341,-1.0791,-1.1394,-1.1898,-1.2307,-1.3285,-1.3351,-1.2525,-1.3501,-1.4068,-1.4335,-1.5241,-1.5875,-1.6275,-1.7339,-1.7422,-1.6889,-1.7828,-1.7666,-1.688,-1.7087,-1.7358,-1.7595,-1.7282,-1.7875,-1.8753,-1.8107,-1.7511,-1.7103,-1.7595,-1.7326,-1.6901,-1.756,-1.781,-1.7856,-1.7811,-1.7811,-1.7811,-1.7811,-1.7811,-1.7811,-1.7811,-1.8026,-1.8466,-1.9289,-1.9345,-1.9463,-2.0242,-2.0,-1.969,-1.969,-1.969,-1.969,-1.969,-1.969,-1.969,-1.969,-1.969,-1.969,-1.969,-1.969,-1.969,-1.969,-1.969,-1.969,-1.969,-1.969,-1.969,-1.969,-1.969,-1.9442,-1.8893,-1.9244,-1.9207,-1.8727,-1.8779,-1.8341,-1.7394,-1.7271,-1.7229,0.0,0.0,0.0,0.0,0.0,0.0,-1.9856,-1.7501,-1.5221,0.0,0.0,0.0,0.0,0.0,0.0,0.0,0.0,0.0,0.0,0.0,0.0,0.0,0.0,0.0,0.0,0.0,-0.3836,-0.4376,-0.5712,-0.7025,-0.831,-0.8591,-0.903,-0.9785,-1.0667,-1.1162,-1.1193,-1.2389,-1.2894,-1.265,-1.2932,-1.3491,-1.4319,-1.4792,-1.5472,-1.6326,-1.7362,-1.7726,-1.763,-1.8031,-1.808,-1.7921,-1.8183,-1.8317,-1.8392,-1.8298,-1.8073,-1.7861,-1.8297,-1.7593,-1.6639,-1.7256,-1.7414,-1.7364,-1.7448,-1.7783,-1.8078,-1.7878,-1.7811,-1.7811,-1.7811,-1.7811,-1.7811,-1.7811,-1.7844,-1.8252,-1.9597,-1.9596,-1.9648,-2.0687,-2.0243,-1.969,-1.969,-1.969,-1.969,-1.969,-1.969,-1.969,-1.969,-1.969,-1.969,-1.969,-1.969,-1.969,-1.969,-1.969,-1.969,-1.969,-1.969,-1.969,-1.969,-1.969,-1.9442,-1.8893,-1.8145,-1.7706,-1.7626,-1.8066,-1.8145,-1.7907,-1.7076,-1.6879,0.0,0.0,0.0,-2.5106,0.0,0.0,0.0,-2.0336,-1.8286,0.0,0.0,0.0,0.0,0.0,0.0,0.0,0.0,0.0,0.0,0.0,0.0,0.0,0.0,0.0,0.0,0.0,-0.2743,-0.3906,-0.5417,-0.6707,-0.7685,-0.8227,-0.8824,-0.9487,-1.0234,-1.0845,-1.1322,-1.194,-1.2535,-1.309,-1.285,-1.346,-1.4825,-1.5168,-1.5857,-1.6855,-1.7513,-1.7878,-1.8035,-1.829,-1.8469,-1.8569,-1.8271,-1.8414,-1.8735,-1.8306,-1.8267,-1.8423,-1.8555,-1.795,-1.7193,-1.779,-1.7507,-1.7028,-1.7772,-1.819,-1.8371,-1.8229,-1.8103,-1.7992,-1.7992,-1.7905,-1.7811,-1.7811,-1.7811,-1.8115,-1.9215,-1.9418,-1.9673,-2.0559,-2.0511,-2.0208,-1.9782,-1.969,-1.969,-1.969,-1.969,-1.969,-1.969,-1.969,-1.969,-1.969,-1.969,-1.969,-1.969,-1.969,-1.969,-1.969,-1.969,-1.9566,-1.9332,-1.9281,-1.9043,-1.8496,-1.7706,-1.7312,-1.7312,-1.7585,-1.7544,-1.7312,-1.7034,-1.7034,0.0,0.0,0.0,0.0,0.0,-2.4725,0.0,0.0,0.0,0.0,0.0,0.0,0.0,0.0,0.0,0.0,0.0,0.0,0.0,0.0,0.0,0.0,0.0,0.0,0.0,0.0,-0.1705,-0.3723,-0.5043,-0.6211,-0.717,-0.7833,-0.8573,-0.9509,-0.9925,-1.0651,-1.1737,-1.1827,-1.2409,-1.353,-1.3163,-1.3887,-1.5593,-1.5734,-1.6377,-1.7415,-1.7681,-1.7949,-1.8229,-1.8489,-1.8752,-1.8929,-1.8276,-1.8437,-1.8961,-1.8274,-1.8565,-1.9243,-1.886,-1.8446,-1.8125,-1.8413,-1.7647,-1.6898,-1.8253,-1.8678,-1.8643,-1.8427,-1.8202,-1.8044,-1.8044,-1.7897,-1.7757,-1.7849,-1.7878,-1.8065,-1.8765,-1.9219,-1.9695,-2.0376,-2.0833,-2.0829,-1.998,-1.9818,-1.9782,-1.9711,-1.969,-1.969,-1.969,-1.969,-1.969,-1.969,-1.969,-1.969,-1.969,-1.969,-1.969,-1.969,-1.969,-1.953,-1.908,-1.8855,-1.8535,-1.8106,-1.7463,-1.7146,-1.7146,-1.7146,-1.6909,-1.6522,-1.6951,-1.7146,0.0,0.0,0.0,0.0,-2.5329,0.0,0.0,0.0,-2.3965,0.0,0.0,0.0,0.0,0.0,0.0,0.0,0.0,0.0,0.0,0.0,0.0,0.0,0.0,0.0,0.0,0.0,0.0,-0.3224,-0.3946,-0.5122,-0.7197,-0.7544,-0.8307,-0.9616,-0.9865,-1.0495,-1.1616,-1.2106,-1.278,-1.3692,-1.3856,-1.489,-1.6594,-1.6039,-1.6511,-1.7743,-1.7789,-1.7949,-1.8229,-1.8489,-1.8752,-1.9018,-1.9089,-1.9185,-1.924,-1.9149,-1.9201,-1.9289,-1.9243,-1.917,-1.902,-1.8368,-1.8042,-1.803,-1.8747,-1.8949,-1.877,-1.7808,-1.7506,-1.7488,-1.7488,-1.7469,-1.7571,-1.8052,-1.8146,-1.8289,-1.8795,-1.9436,-2.0032,-2.0449,-2.1059,-2.1275,-2.0382,-2.0212,-2.0124,-1.9747,-1.969,-1.969,-1.969,-1.969,-1.969,-1.969,-1.969,-1.969,-1.969,-1.969,-1.969,-1.969,-1.969,-1.969,-1.9603,-1.8688,-1.8185,-1.8106,-1.7118,-1.6595,-1.6595,-1.6595,-1.6552,-1.6522,-1.6552,-1.6595,0.0,0.0,0.0,0.0,0.0,0.0,0.0,0.0,-2.4366,0.0,0.0,0.0,0.0,0.0,0.0,0.0,0.0,0.0,0.0,0.0,0.0,0.0,0.0,0.0,0.0,0.0,0.0,0.0,0.0,-0.3688,-0.5302,-0.6701,-0.7953,-0.9074,-0.953,-1.0522,-1.2036,-1.1997,-1.27,-1.4145,-1.3571,-1.4527,-1.6773,-1.6112,-1.6535,-1.7811,-1.7971,-1.8187,-1.845,-1.8734,-1.8966,-1.9182,-1.9259,-1.9305,-1.9305,-1.9305,-1.9305,-1.9305,-1.9305,-1.9305,-1.9191,-1.8495,-1.8639,-1.9057,-1.883,-1.91,-1.9355,-1.8834,-1.8224,-1.7844,-1.8233,-1.7879,-1.7576,-1.8274,-1.8783,-1.9187,-1.9377,-2.0383,-2.1259,-2.1409,-2.1875,-2.204,-2.1453,-2.0766,-2.0246,-2.0054,-1.9839,-1.969,-1.969,-1.969,-1.969,-1.969,-1.969,-1.969,-1.969,-1.969,-1.9566,-1.9244,-1.865,-1.8302,-1.8302,-1.7585,-1.7146,-1.7146,-1.671,-1.6522,-1.6522,-1.6522,-1.6522,-1.6522,-1.6522,-1.6522,-2.5171,0.0,0.0,0.0,0.0,0.0,0.0,0.0,0.0,0.0,0.0,0.0,0.0,0.0,0.0,0.0,0.0,0.0,0.0,0.0,0.0,0.0,0.0,0.0,0.0,0.0,0.0,0.0,-0.0937,0.0,-0.4319,-0.6119,-0.7785,-0.9249,-0.9642,-1.0811,-1.2773,-1.2256,-1.2889,-1.4704,-1.3909,-1.4656,-1.6799,-1.6378,-1.6832,-1.7927,-1.8121,-1.8391,-1.8734,-1.8948,-1.918,-1.938,-1.9419,-1.9434,-1.9434,-1.9394,-1.938,-1.938,-1.9419,-1.9434,-1.9351,-1.8939,-1.9237,-1.9696,-1.9103,-1.9349,-1.9729,-1.942,-1.8763,-1.8291,-1.8745,-1.8286,-1.7872,-1.8592,-1.9182,-1.9624,-1.9761,-2.0681,-2.1511,-2.1724,-2.1996,-2.2079,-2.1807,-2.1147,-2.0601,-2.0516,-2.0124,-1.9874,-1.9874,-1.9782,-1.969,-1.969,-1.969,-1.969,-1.969,-1.969,-1.953,-1.9132,-1.8263,-1.7747,-1.7747,-1.7076,-1.671,-1.671,-1.6552,-1.6522,-1.6522,-1.6522,-1.6522,-1.6522,-1.6522,-1.6522,0.0,0.0,0.0,-2.4804,0.0,0.0,0.0,0.0,-2.3871,0.0,0.0,0.0,0.0,0.0,-2.042,-1.7768,0.0,0.0,0.0,0.0,0.0,0.0,0.0,0.0,0.0,0.0,0.0,0.0,0.011,0.0,-0.5271,-0.6176,-0.7882,-1.0629,-1.0401,-1.137,-1.3838,-1.3265,-1.374,-1.527,-1.5445,-1.5955,-1.6815,-1.7118,-1.7591,-1.8187,-1.8187,-1.8489,-1.9001,-1.9125,-1.9357,-1.9596,-1.9738,-1.9778,-1.9774,-1.9649,-1.9582,-1.9609,-1.9738,-1.9778,-1.9778,-1.976,-1.979,-1.979,-1.9771,-1.9771,-1.9639,-1.8858,-1.8612,-1.8594,-1.8602,-1.8488,-1.8501,-1.9062,-1.9099,-1.9183,-1.9694,-1.979,-2.0017,-2.0802,-2.0898,-2.0872,-2.0833,-2.1247,-2.143,-2.1023,-2.0583,-2.028,-2.028,-1.9929,-1.969,-1.969,-1.969,-1.969,-1.969,-1.969,-1.969,-1.969,-1.9169,-1.8855,-1.8855,-1.7827,-1.7271,-1.7271,-1.6752,-1.6522,-1.6522,-1.6522,-1.6522,-1.6522,-1.6522,-1.6522,0.0,0.0,-2.454,-2.4315,0.0,0.0,0.0,0.0,0.0,0.0,0.0,0.0,0.0,0.0,-1.9045,-1.7854,-1.4989,-1.1603,0.0,0.0,0.0,0.0,0.0,0.0,0.0,0.0,0.0,0.3148,0.0878,-0.1654,0.0,-0.5914,-0.7682,-1.0003,-1.0431,-1.1654,-1.3883,-1.4039,-1.4511,-1.5298,-1.5939,-1.6445,-1.6815,-1.7335,-1.7793,-1.8208,-1.8566,-1.8877,-1.9159,-1.9357,-1.96,-1.9801,-1.9794,-1.9874,-1.9983,-1.9813,-1.9726,-1.9738,-1.9767,-1.9884,-2.0002,-1.9954,-2.0012,-2.0123,-2.0124,-2.0135,-2.005,-1.9649,-1.9135,-1.8821,-1.9276,-1.8975,-1.8723,-1.9439,-1.9972,-2.0359,-2.0439,-2.0869,-2.1295,-2.1462,-2.1309,-2.1133,-2.1133,-2.1096,-2.1028,-2.0955,-2.0424,-2.0225,-2.0701,-2.0348,-2.0089,-2.0089,-1.9874,-1.969,-1.969,-1.9043,-1.865,-1.865,-1.7787,-1.7312,-1.7312,-1.6951,-1.6752,-1.6752,-1.6595,-1.6522,-1.6522,-1.6522,-1.6522,-1.6522,-1.6522,-1.6522,-2.4639,-2.4389,0.0,0.0,-2.3702,0.0,-2.3093,0.0,0.0,0.0,0.0,0.0,0.0,0.0,-1.8081,-1.7397,-1.5842,-1.2726,0.0,-0.1161,0.0,0.0,0.0,0.0,0.0,0.0,0.3942,0.0,-0.2054,-0.3931,0.0,0.0,-0.8652,-1.0739,-1.1282,-1.256,-1.4775,-1.5066,-1.5543,-1.6094,-1.6712,-1.707,-1.7142,-1.7642,-1.8094,-1.8508,-1.8895,-1.9159,-1.9368,-1.9657,-1.9846,-1.9981,-2.0,-2.0092,-2.0179,-1.9992,-1.9945,-2.002,-1.9955,-2.0068,-2.0192,-2.0157,-2.0231,-2.0341,-2.0347,-2.0334,-2.036,-2.0542,-2.0015,-1.9538,-2.0274,-1.9838,-1.9296,-1.9792,-2.0262,-2.0632,-2.0774,-2.1206,-2.1535,-2.136,-2.1425,-2.1407,-2.1169,-2.1056,-2.1092,-2.1248,-2.07,-2.0538,-2.1299,-2.0894,-2.0483,-2.0314,-2.007,-1.9839,-1.9711,-1.908,-1.865,-1.865,-1.7827,-1.7353,-1.7353,-1.6993,-1.6795,-1.6795,-1.6595,-1.6522,-1.6522,-1.6522,-1.6522,-1.6522,-1.6522,-1.6522]},{"header":{"parameterUnit":"m.s-1","parameterCategory":1,"la1":30.6,"la2":29.2853,"lo1":-89.7004,"lo2":-87.6739,"dy":0.0162,"dx":0.0183,"nx":112,"ny":82,"refTime":"2023-10-20T12:00:00:Z","depth":0,"parameterNumber":3,"parameterNumberName":"V-component_of_WINDS"},"data":[0.0,0.0,0.0,0.0,0.0,0.0,0.0,0.0,0.0,0.0,0.0,0.0,0.0,0.0,0.0,0.0,0.0,0.0,0.0,0.0,0.0,0.0,0.0,0.0,0.0,0.0,0.0,0.0,0.0,0.0,0.0,0.0,0.0,0.0,0.0,0.0,0.0,0.0,0.0,0.0,0.0,0.0,0.0,0.0,0.0,0.0,0.0,0.0,0.0,0.0,0.0,0.0,0.0,0.0,0.0,0.0,0.0,0.0,0.0,0.0,0.0,0.0,0.0,0.0,0.0,0.0,0.0,0.0,0.0,0.0,0.0,0.0,0.0,0.0,0.0,0.0,0.0,0.0,0.0,0.0,0.0,0.0,0.0,0.0,0.0,0.0,0.0,0.0,0.0,0.0,0.0,-0.4482,-0.7868,-1.0485,-1.175,-1.3069,-1.4347,-1.5592,0.0,0.0,0.0,0.0,0.0,0.0,0.0,0.0,0.0,0.0,0.0,0.0,0.0,0.0,0.0,0.0,0.0,0.0,0.0,0.0,0.0,0.0,0.0,0.0,0.0,0.0,0.0,0.0,0.0,0.0,0.0,0.0,0.0,0.0,0.0,0.0,0.0,0.0,0.0,0.0,0.0,0.0,0.0,0.0,0.0,0.0,0.0,0.0,0.0,0.0,0.0,0.0,0.0,0.0,0.0,0.0,0.0,0.0,0.0,0.0,0.0,0.0,0.0,0.0,0.0,0.0,0.0,0.0,0.0,0.0,0.0,0.0,0.0,0.0,0.0,0.0,0.0,0.0,0.0,0.0,0.0,0.0,0.0,0.0,0.0,0.0,0.0,0.0,0.0,0.0,0.0,0.0,0.0,0.0,0.0,0.0,0.0,0.0,0.0,0.0,0.0,0.0,0.0,0.0,-0.4474,-0.679,-0.8787,-1.0485,-1.175,-1.2914,-1.4219,-1.6079,0.0,0.0,0.0,0.0,0.0,0.0,0.0,0.0,0.0,0.0,0.0,0.0,0.0,0.0,0.0,0.0,0.0,0.0,0.0,0.0,0.0,0.0,0.0,0.0,0.0,0.0,0.0,0.0,0.0,0.0,0.0,0.0,0.0,0.0,0.0,0.0,0.0,0.0,0.0,0.0,0.0,0.0,0.0,0.0,0.0,0.0,0.0,0.0,0.0,0.0,0.0,0.0,0.0,0.0,0.0,0.0,0.0,0.0,0.0,0.0,0.0,0.0,0.0,0.0,0.0,0.0,0.0,0.0,0.0,0.0,0.0,0.0,0.0,0.0,0.0,0.0,0.0,0.0,0.0,0.0,0.0,0.0,0.0,0.0,0.0,0.0,0.0,0.0,0.0,0.0,0.0,0.0,0.0,0.0,0.0,0.0,0.0,0.0,0.0,0.0,0.0,0.0,0.0,-0.3193,-0.4672,-0.7237,-0.9443,-1.0972,-1.1753,-1.3345,-1.4778,-1.5873,-1.6578,0.0,0.0,0.0,0.0,0.0,0.0,0.0,0.0,0.0,0.0,0.0,0.0,0.0,0.0,0.0,0.0,0.0,0.0,0.0,0.0,0.0,0.0,0.0,0.0,0.0,0.0,0.0,0.0,0.0,0.0,0.0,0.0,0.0,0.0,0.0,0.0,0.0,0.0,0.0,0.0,0.0,0.0,0.0,0.0,0.0,0.0,0.0,0.0,0.0,0.0,0.0,0.0,0.0,0.0,0.0,0.0,0.0,0.0,0.0,0.0,0.0,0.0,0.0,0.0,0.0,0.0,0.0,0.0,0.0,0.0,0.0,0.0,0.0,0.0,0.0,0.0,0.0,0.0,0.0,0.0,0.0,0.0,0.0,0.0,0.0,0.0,0.0,0.0,0.0,0.0,0.0,0.0,0.0,0.0,0.0,0.0,0.0,0.0,0.0,0.0,0.0,0.0,-0.3718,-0.4846,-0.7389,-0.9848,-1.1513,-1.191,-1.3634,-1.5021,-1.551,-1.5707,0.0,0.0,0.0,0.0,0.0,0.0,0.0,0.0,0.0,0.0,0.0,0.0,0.0,0.0,0.0,0.0,0.0,0.0,0.0,0.0,0.0,0.0,0.0,0.0,0.0,0.0,0.0,0.0,0.0,0.0,0.0,0.0,0.0,0.0,0.0,0.0,0.0,0.0,0.0,0.0,0.0,0.0,0.0,0.0,0.0,0.0,0.0,0.0,0.0,0.0,0.0,0.0,0.0,0.0,0.0,0.0,0.0,0.0,0.0,0.0,0.0,0.0,0.0,0.0,0.0,0.0,0.0,0.0,0.0,0.0,0.0,0.0,0.0,0.0,0.0,0.0,0.0,0.0,0.0,0.0,0.0,0.0,0.0,0.0,0.0,0.0,0.0,0.0,0.0,0.0,0.0,0.0,0.0,0.0,0.0,0.0,0.0,0.0,0.0,0.0,0.0,0.0,-0.3733,-0.4991,-0.8281,-1.0215,-1.1657,-1.2443,-1.3521,-1.4479,-1.5213,-1.4719,0.0,0.0,0.0,0.0,0.0,0.0,0.0,0.0,0.0,0.0,0.0,0.0,0.0,0.0,0.0,0.0,0.0,0.0,0.0,0.0,0.0,0.0,0.0,0.0,0.0,0.0,0.0,0.0,0.0,0.0,0.0,0.0,0.0,0.0,0.0,0.0,0.0,0.0,0.0,0.0,0.0,0.0,0.0,0.0,0.0,0.0,0.0,0.0,0.0,0.0,0.0,0.0,0.0,0.0,0.0,0.0,0.0,0.0,0.0,0.0,0.0,0.0,0.0,0.0,0.0,0.0,0.0,0.0,0.0,0.0,0.0,0.0,0.0,0.0,0.0,0.0,0.0,0.0,0.0,0.0,0.0,0.0,0.0,0.0,0.0,0.0,0.0,0.0,0.0,0.0,0.0,0.0,0.0,0.0,0.0,0.0,0.0,0.0,0.0,0.0,0.0,0.0,-0.3478,-0.4806,0.0,-0.9587,-1.0889,-1.2064,-1.3023,-1.3701,-1.4124,0.0,0.0,0.0,0.0,0.0,0.0,0.0,0.0,0.0,0.0,0.0,0.0,0.0,0.0,0.0,0.0,0.0,0.0,0.0,0.0,0.0,0.0,0.0,0.0,0.0,0.0,0.0,0.0,0.0,0.0,0.0,0.0,0.0,0.0,0.0,0.0,0.0,0.0,0.0,0.0,0.0,0.0,0.0,0.0,0.0,0.0,0.0,0.0,0.0,0.0,0.0,0.0,0.0,0.0,0.0,0.0,0.0,0.0,0.0,0.0,0.0,0.0,0.0,0.0,0.0,0.0,0.0,0.0,0.0,0.0,0.0,0.0,0.0,0.0,0.0,0.0,0.0,0.0,0.0,0.0,0.0,0.0,0.0,0.0,0.0,0.0,0.0,0.0,0.0,0.0,0.0,0.0,0.0,0.0,0.0,0.0,0.0,0.0,0.0,0.0,0.0,0.0,-0.3295,-0.3614,-0.5117,0.0,-0.9413,-1.0541,-1.2023,-1.2596,-1.2975,-1.3338,0.0,0.0,0.0,0.0,0.0,0.0,0.0,0.0,0.0,0.0,0.0,0.0,0.0,0.0,0.0,0.0,0.0,0.0,0.0,0.0,0.0,0.0,0.0,0.0,0.0,0.0,0.0,0.0,0.0,0.0,0.0,0.0,0.0,0.0,0.0,0.0,0.0,0.0,0.0,0.0,0.0,0.0,0.0,0.0,0.0,0.0,0.0,0.0,0.0,0.0,0.0,0.0,0.0,0.0,0.0,0.0,0.0,0.0,0.0,0.0,0.0,0.0,0.0,0.0,0.0,0.0,0.0,0.0,0.0,0.0,0.0,0.0,0.0,0.0,0.0,0.0,0.0,0.0,0.0,0.0,0.0,0.0,0.0,0.0,0.0,0.0,0.0,0.0,0.0,0.0,0.0,0.0,0.0,0.0,0.0,0.0,0.0,0.0,0.0,0.0,0.0,0.0,-0.3354,-0.4242,-0.6125,-0.913,-0.9717,-1.0721,-1.2599,-1.2271,-1.2212,0.0,0.0,0.0,0.0,0.0,0.0,0.0,0.0,0.0,0.0,0.0,0.0,0.0,0.0,0.0,0.0,0.0,0.0,0.0,0.0,0.0,0.0,0.0,0.0,0.0,0.0,0.0,0.0,0.0,0.0,0.0,0.0,0.0,0.0,0.0,0.0,0.0,0.0,0.0,0.0,0.0,0.0,0.0,0.0,0.0,0.0,0.0,0.0,0.0,0.0,0.0,0.0,0.0,0.0,0.0,0.0,0.0,0.0,0.0,0.0,0.0,0.0,0.0,0.0,0.0,0.0,0.0,0.0,0.0,0.0,0.0,0.0,0.0,0.0,0.0,0.0,0.0,0.0,0.0,0.0,0.0,0.0,0.0,0.0,0.0,0.0,0.0,0.0,0.0,0.0,0.0,0.0,0.0,0.0,0.0,0.0,0.0,0.0,0.0,0.0,0.0,0.0,0.0,-0.4145,-0.5038,-0.6497,-0.8762,-0.9723,-1.071,-1.1695,-1.1657,-1.1538,-1.1593,0.0,0.0,0.0,0.0,0.0,0.0,0.0,0.0,0.0,0.0,0.0,0.0,0.0,0.0,0.0,0.0,0.0,0.0,0.0,0.0,0.0,0.0,0.0,0.0,0.0,0.0,0.0,0.0,0.0,0.0,0.0,0.0,0.0,0.0,0.0,0.0,0.0,0.0,0.0,0.0,0.0,0.0,0.0,0.0,0.0,0.0,0.0,0.0,0.0,0.0,0.0,0.0,0.0,0.0,0.0,0.0,0.0,0.0,0.0,0.0,0.0,0.0,0.0,0.0,0.0,0.0,0.0,0.0,0.0,0.0,0.0,0.0,0.0,0.0,0.0,0.0,0.0,0.0,0.0,0.0,0.0,0.0,0.0,0.0,0.0,0.0,0.0,0.0,0.0,0.0,0.0,0.0,0.0,0.0,0.0,0.0,0.0,0.0,0.0,0.0,0.0,0.0,-0.4396,-0.56,-0.6993,-0.8524,-0.9603,-1.0548,-1.1299,-1.1323,-1.1176,-1.1002,0.0,0.0,0.0,0.0,0.0,0.0,0.0,0.0,0.0,0.0,0.0,0.0,0.0,0.0,0.0,0.0,0.0,0.0,0.0,0.0,0.0,0.0,0.0,0.0,0.0,0.0,0.0,0.0,0.0,0.0,0.0,0.0,0.0,0.0,0.0,0.0,0.0,0.0,0.0,0.0,0.0,0.0,0.0,0.0,0.0,0.0,0.0,0.0,0.0,0.0,0.0,0.0,0.0,0.0,0.0,0.0,0.0,0.0,0.0,0.0,0.0,0.0,0.0,0.0,0.0,0.0,0.0,0.0,0.0,0.0,0.0,0.0,0.0,0.0,0.0,0.0,0.0,0.0,0.0,0.0,0.0,0.0,0.0,0.0,0.0,0.0,0.0,0.0,0.0,0.0,0.0,0.0,0.0,0.0,0.0,0.0,0.0,0.0,0.0,0.0,0.0,0.0,-0.4296,-0.5895,-0.7478,-0.8313,-0.9286,-1.0185,-1.1002,-1.0969,-1.0817,-1.0752,0.0,0.0,0.0,0.0,0.0,0.0,0.0,0.0,0.0,0.0,0.0,0.0,0.0,0.0,0.0,0.0,0.0,0.0,0.0,0.0,0.0,0.0,0.0,0.0,0.0,0.0,0.0,0.0,0.0,0.0,0.0,0.0,0.0,0.0,0.0,0.0,0.0,0.0,0.0,0.0,0.0,0.0,0.0,0.0,0.0,0.0,0.0,0.0,0.0,0.0,0.0,0.0,0.0,0.0,0.0,0.0,0.0,0.0,0.0,0.0,0.0878,0.0,0.0,0.0,0.0,0.0,0.0,0.0,0.0,0.0,0.0,0.0,0.0,0.0,0.0,0.0,0.0,0.0,0.0,0.0,0.0,0.0,0.0,0.0,0.0,0.0,0.0,0.0,0.0,0.0,0.0,0.0,0.0,0.0,0.0,0.0,0.0,0.0,0.0,0.0,0.0,0.0,-0.4285,-0.5869,-0.7142,-0.7271,-0.8774,-0.9443,-0.8777,-0.9309,-0.935,-0.8685,0.0,0.0,0.0,0.0,0.0,0.0,0.0,0.0,0.0,0.0,0.0,0.0,0.0,0.0,0.0,0.0,0.0,0.0,0.0,0.0,0.0,0.0,0.0,0.0,0.0,0.0,0.0,0.0,0.0,0.0,0.0,0.0,0.0,0.0,0.0,0.0,0.0,0.0,0.0,0.0,0.0,0.0,0.0,0.0,0.0,0.0,0.0,0.0,0.0,0.0,0.0,0.0,0.0,0.0,0.0,0.0,0.0,0.0,0.0,0.0,0.0,0.2376,0.0,0.0,0.0,0.0,0.0,0.0,0.0,0.0,0.0,0.0,0.0,0.0,0.0,0.0,0.0,0.0,0.0,0.0,0.0,0.0,0.0,0.0,0.0,0.0,0.0,0.0,0.0,0.0,0.0,0.0,0.0,0.0,0.0,0.0,0.0,0.0,0.0,0.0,0.0,0.0,-0.4128,-0.5595,-0.6638,-0.6662,-0.7907,-0.8506,-0.7932,-0.835,-0.8484,-0.8027,-0.7632,0.0,0.0,0.0,0.0,0.0,0.0,0.0,0.0,0.0,0.0,0.0,0.0,0.0,0.0,0.0,0.0,0.0,0.0,0.0,0.0,0.0,0.0,0.0,0.0,0.0,0.0,0.0,0.0,0.0,0.0,0.0,0.0,0.0,0.0,0.0,0.0,0.0,0.0,0.0,0.0,0.0,0.0,0.0,0.0,0.0,0.0,0.0,0.0,0.0,0.0,0.0,0.0,0.0,0.0,1.2186,1.2482,1.2441,1.2359,1.2076,0.8819,0.6468,0.4816,0.0,0.0,0.0,0.0,0.0,0.0,0.0,0.0,0.0,0.0,0.0,0.0,0.0,0.0,0.0,0.0,0.0,0.0,0.0,0.0,0.0,0.0,0.0,0.0,0.0,0.5593,0.4829,0.0,0.0,0.0,0.0,0.0,0.0,0.0,0.0,0.0,0.0,0.0,0.0,-0.3723,-0.4918,-0.586,-0.6137,-0.695,-0.7373,-0.7254,-0.7516,-0.7579,-0.7311,-0.6628,-0.6515,0.0,0.0,0.0,0.0,0.0,0.0,0.0,0.0,0.0,0.0,0.0,0.0,0.0,0.0,0.0,0.0,0.0,0.0,0.0,0.0,0.0,0.0,0.0,0.0,0.0,0.0,0.0,0.0,0.0,0.0,0.0,0.0,1.2365,1.2645,0.0,0.0,0.0,0.0,0.0,0.0,0.0,0.0,0.0,0.0,0.0,0.0,0.0,0.0,1.3796,1.4138,1.493,1.6133,1.6448,1.7258,1.8356,1.8152,1.7382,1.6088,1.5399,0.0,0.886,0.7498,0.0,0.0,0.0,0.0,0.0,0.0,0.0,0.0,0.0,0.0,0.0,0.0,0.0,0.0,0.0,0.0,0.0,0.0,0.0,0.0,0.0,0.0,0.8135,0.7933,0.7845,0.7803,0.0,0.4795,0.2081,0.0534,0.0,0.0,0.0,0.0,0.0,0.0,0.0,0.0,-0.2722,-0.3518,-0.4366,-0.5003,-0.5904,-0.6082,-0.5308,-0.6071,-0.597,-0.4437,-0.435,-0.4077,-0.3405,-0.4713,0.0,0.0,0.0,0.0,0.0,0.0,0.0,0.0,0.0,0.0,0.0,0.0,0.0,0.0,0.0,0.0,0.0,0.0,0.0,0.0,0.0,0.0,0.0,0.0,0.0,0.0,0.0,0.0,0.0,1.4761,1.4505,1.3918,1.2771,1.1746,0.0,0.0,0.0,0.0,0.0,0.0,0.0,0.0,0.0,1.7725,1.8127,1.8171,1.791,1.8242,1.836,1.8386,1.8279,1.8512,1.9085,1.8732,1.828,1.7619,1.747,1.6337,1.43,1.1992,1.0934,1.0681,0.0,0.0,0.0,0.0,0.0,1.0645,1.0686,0.0,0.0,0.0,0.0,0.0,0.0,0.0,0.0,0.0,0.0,0.0,0.0,0.0,0.0,0.9111,0.8859,0.8548,0.7925,0.6552,0.4882,0.0,0.2134,0.1075,0.0414,0.0,0.0,0.0,0.0,0.0,-0.1834,-0.2443,-0.3051,-0.3525,-0.3881,-0.3938,-0.3589,-0.3994,-0.4026,-0.32,-0.3243,-0.3093,-0.2743,-0.3407,-0.4101,0.0,0.0,0.0,0.0,0.0,0.0,0.0,0.0,0.0,0.0,0.0,0.0,0.0,0.0,0.0,0.0,0.0,0.0,0.0,0.0,0.0,0.0,0.0,0.0,0.0,0.0,0.0,0.0,1.7107,1.7,1.5883,1.5894,1.5543,0.0,0.0,0.0,0.0,0.0,0.0,2.0386,2.1087,2.1702,2.2199,2.259,2.2534,2.1919,2.2141,2.1755,2.0844,2.0461,2.0327,2.0309,1.9925,1.9609,1.9502,1.9321,1.9224,1.8936,1.6335,1.5109,1.4939,1.5002,1.4758,1.4339,1.4599,1.453,1.4184,1.4194,1.4094,1.3935,1.3302,0.0,1.2424,1.1525,0.0,0.0,0.0,0.0,1.0877,1.1159,0.0,1.0737,1.0047,0.9621,0.9164,0.8291,0.7804,0.7064,0.0,0.3857,0.2728,0.2253,0.0,0.0,0.0,0.0,-0.0341,-0.0656,-0.1264,-0.1744,-0.2132,-0.2315,-0.2432,-0.2432,-0.2565,-0.2575,-0.2318,-0.2337,-0.2244,-0.203,-0.2245,-0.2676,-0.3283,0.0,0.0,0.0,0.0,0.0,0.0,0.0,0.0,0.0,0.0,0.0,0.0,0.0,0.0,0.0,0.0,0.0,0.0,0.0,0.0,0.0,0.0,0.0,0.0,0.0,0.0,0.0,0.0,0.0,2.0858,2.1078,0.0,0.0,0.0,0.0,2.1025,2.1512,2.2308,2.3575,2.4472,2.5161,2.5587,2.601,2.5973,2.5378,2.54,2.5098,2.4568,2.4535,2.4535,2.4513,2.3952,2.3481,2.3021,2.2488,2.204,2.1572,1.9681,1.878,1.8626,1.925,1.901,1.83,1.8319,1.817,1.7875,1.7561,1.7112,1.6634,1.6149,1.5036,1.3579,1.223,1.2074,0.0,0.0,1.2003,1.1664,1.164,1.1656,1.1503,1.0815,1.0659,1.0444,0.9719,0.8858,0.7528,0.0,0.4699,0.4045,0.2461,0.0,0.2125,0.2125,0.2065,0.1783,0.1059,0.0334,-0.0389,-0.1112,-0.1785,-0.2237,-0.2237,-0.2422,-0.2118,-0.1238,-0.1275,-0.0988,-0.0186,-0.0954,-0.14,-0.1419,-0.2217,0.0,0.0,0.0,0.0,0.0,0.0,0.0,0.0,0.0,0.0,0.0,0.0,0.0,0.0,0.0,0.0,0.0,0.0,0.0,0.0,0.0,0.0,0.0,0.0,0.0,0.0,0.0,0.0,2.4624,2.5076,0.0,0.0,2.4162,2.4768,2.5722,2.6773,2.7817,2.8904,2.9043,2.9114,2.9302,2.8448,2.7591,2.6674,2.636,2.5558,2.4271,2.396,2.3638,2.3316,2.2839,2.2528,2.2399,2.176,2.1696,2.1851,2.1474,2.1119,2.0845,2.1405,2.1107,2.0315,2.0625,2.0279,1.9592,1.9498,1.9089,1.8585,1.8058,1.7134,1.6098,1.5664,1.5147,1.4717,1.4717,1.4204,1.3637,1.3494,1.2739,1.1937,1.1513,1.1096,1.0682,1.0478,0.9802,0.8864,0.7583,0.6211,0.502,0.4406,0.3532,0.2899,0.2899,0.2508,0.2119,0.1836,0.156,0.1336,0.1056,0.039,-0.0056,-0.0056,-0.0565,-0.0747,-0.0411,-0.0416,-0.0302,0.0,-0.0312,-0.0432,-0.0479,-0.1194,-0.1595,0.0,0.0,0.0,0.0,0.0,0.0,0.0,0.0,0.0,0.0,0.0,0.0,0.0,0.0,0.0,0.0,0.0,0.0,0.0,0.0,0.0,0.0,0.0,0.0,0.0,0.0,2.6667,2.7499,2.8501,2.8765,2.7814,2.8332,2.8945,2.9617,3.058,3.126,3.1709,3.1446,3.1221,3.1021,3.0013,2.8839,2.7484,2.7066,2.6022,2.4241,2.3966,2.3537,2.2971,2.2703,2.2434,2.202,2.1597,2.1643,2.2085,2.2512,2.2579,2.2356,2.3119,2.2863,2.2155,2.2503,2.1969,2.0989,2.0506,1.9996,1.9448,1.8706,1.7889,1.7256,1.7035,1.6413,1.5759,1.5759,1.5267,1.4705,1.4526,1.3777,1.2897,1.2304,1.1805,1.1358,1.0914,1.0466,0.9902,0.9214,0.7522,0.614,0.5923,0.5046,0.4388,0.4388,0.3996,0.3608,0.3335,0.3113,0.2837,0.2619,0.1898,0.1452,0.1452,0.1006,0.0734,0.075,0.0752,0.0759,0.0716,0.0724,0.0717,0.0752,0.0288,0.0,0.0,0.0,0.0,0.0,0.0,0.0,0.0,0.0,0.0,0.0,0.0,0.0,0.0,0.0,0.0,0.0,0.0,0.0,0.0,0.0,0.0,0.0,0.0,0.0,2.6914,2.8125,2.9258,2.9533,3.1441,3.2333,3.1299,3.2111,3.2735,3.2735,3.265,3.2387,3.1737,3.1612,3.1323,3.0663,3.0554,2.9645,2.771,2.7696,2.6739,2.4859,2.4834,2.4532,2.4003,2.3991,2.3387,2.2342,2.2259,2.2272,2.2322,2.2849,2.3062,2.3188,2.433,2.4431,2.3941,2.3929,2.3213,2.2056,2.0646,1.9892,1.9337,1.7988,1.7209,1.6707,1.6187,1.5697,1.5344,1.5344,1.5056,1.4744,1.4744,1.4744,1.4411,1.3158,1.287,1.2522,1.1157,1.0864,1.0661,1.0012,0.8771,0.7557,0.675,0.6588,0.6588,0.6588,0.6588,0.0,0.5651,0.4925,0.4213,0.3564,0.2785,0.2286,0.2286,0.223,0.223,0.2174,0.2174,0.2174,0.2174,0.2187,0.219,0.2176,0.2174,0.2174,0.2174,0.0,0.0,0.0,0.0,0.0,0.0,0.0,0.0,0.0,0.0,0.0,0.0,0.0,0.0,0.0,0.0,0.0,0.0,0.0,0.0,0.0,0.0,3.1881,3.185,3.2927,3.4152,3.5301,3.5997,3.623,3.5935,3.5689,3.5473,3.5473,3.4584,3.39,3.3724,3.2579,3.1645,3.0956,2.99,2.883,2.7764,2.7393,2.6749,2.5781,2.5338,2.4815,2.4238,2.328,2.2913,2.3045,2.1706,2.1606,2.238,2.212,2.225,2.2631,2.333,2.3263,2.2723,2.2322,2.1732,2.0978,1.975,1.9278,1.9017,1.8263,1.7666,1.7204,1.7058,1.6633,1.6183,1.6183,1.6086,1.592,1.5466,1.5365,1.5129,1.4354,1.4168,1.3982,1.3168,1.258,1.2043,1.1358,1.0551,0.9422,0.7711,0.6966,0.6588,0.6588,0.0,0.0,0.6312,0.614,0.5919,0.576,0.5027,0.4361,0.3822,0.3324,0.2775,0.0,0.2174,0.2174,0.2174,0.2194,0.2196,0.2174,0.2174,0.2174,0.0,0.0,0.0,0.0,0.0,0.0,0.0,0.0,0.0,0.0,0.0,0.0,0.0,0.0,0.0,0.0,0.0,0.0,0.0,0.0,0.0,0.0,3.3584,3.4805,3.6156,3.614,3.6327,3.7253,3.7061,3.6885,3.6885,3.6162,3.5747,3.5747,3.4729,3.3948,3.3664,3.2503,3.1521,3.0864,2.9719,2.8661,2.7673,2.7071,2.6343,2.5466,2.4792,2.4173,2.3647,2.3082,2.2758,0.0,2.1847,2.1851,2.2442,2.2146,2.2347,0.0,0.0,0.0,0.0,0.0,2.125,2.0271,1.9898,1.9426,1.8904,1.8388,1.7854,1.7338,1.7099,1.6785,1.6522,1.6522,1.6522,1.6423,1.6051,1.5964,1.582,1.5231,1.5062,1.4824,1.4003,1.3464,1.2928,1.2003,0.0,0.0,0.9266,0.8383,0.7923,0.7768,0.7641,0.7362,0.0,0.7015,0.6966,0.6642,0.6239,0.5792,0.5362,0.4918,0.0,0.0,0.0,0.3883,0.3611,0.3555,0.0,0.0,0.0,0.3178,0.0,0.0,0.0,0.0,0.25,0.2194,0.0,0.0,0.0,0.0,0.0,0.0,0.0,0.0,0.0,0.0,0.0,0.0,0.0,0.0,0.0,0.0,3.6717,3.7438,3.9492,3.807,3.6803,3.6844,3.6258,3.5835,3.5835,3.5196,3.4727,3.4727,3.3951,3.3246,3.2643,0.0,0.0,0.0,0.0,2.8898,2.7491,2.6832,2.5873,2.4637,2.3881,2.3234,2.27,2.3086,2.2699,2.1829,2.2256,2.2484,2.2602,2.2602,2.2879,2.3294,2.3224,2.3146,2.3022,2.2468,2.1239,0.0,0.0,0.0,0.0,1.8345,1.7826,1.7276,1.6746,1.6595,1.6595,1.6522,1.6522,1.6522,1.6522,1.6522,1.638,1.582,1.572,1.541,1.4226,1.3956,1.3521,1.2248,1.1963,1.1724,1.1124,1.0415,0.9819,0.9574,0.9234,0.0,0.7815,0.7838,0.7664,0.7015,0.0,0.0,0.675,0.6696,0.6696,0.6588,0.6588,0.6312,0.5651,0.5651,0.5328,0.4736,0.4736,0.468,0.4625,0.4625,0.457,0.4467,0.3078,0.2431,0.0,0.0,0.0,0.0,0.0,0.0,0.0,0.0,0.0,0.0,0.0,0.0,0.0,0.0,0.0,3.5934,3.7163,3.8304,3.9335,3.8261,3.742,3.7634,3.7551,3.7467,3.7467,3.6732,3.6267,3.6267,3.4532,3.3439,3.3297,3.21,0.0,2.9564,2.9407,2.8669,2.7264,2.6673,2.6275,2.6016,0.0,0.0,2.3363,2.2464,2.222,2.2451,2.1555,2.1709,2.2683,2.2683,2.2741,2.2776,2.2203,2.1664,2.1203,2.0566,2.0106,1.9744,1.9414,1.8882,1.8332,1.8167,1.7773,1.7303,1.7186,1.7146,0.0,1.6637,1.6522,1.6522,1.6522,1.6522,1.6466,1.6337,1.6337,1.6151,1.541,1.4869,1.4329,1.3569,1.3025,1.2666,1.252,1.1434,1.0594,1.0529,1.0468,1.0332,1.016,0.971,0.934,0.9183,0.8672,0.8156,0.7557,0.7509,0.7235,0.6642,0.6588,0.6534,0.6367,0.6367,0.6312,0.6209,0.6209,0.5878,0.5328,0.5328,0.5003,0.4519,0.4182,0.4035,0.0,0.0,0.0,0.0,0.0,0.0,0.0,0.0,0.0,0.0,0.0,3.3528,0.0,0.0,3.6702,3.84,3.8043,3.7755,3.856,3.7005,3.6249,3.7552,3.716,3.6772,3.6772,3.574,3.5087,3.5087,3.3435,3.2249,3.1883,3.0895,2.9844,2.8717,2.8411,2.7901,2.7201,2.6342,2.5911,2.5867,2.4366,2.3475,2.3131,2.2492,2.2224,2.2203,2.1901,2.1946,2.2217,2.2217,2.2209,2.2133,2.1425,2.0827,2.0387,2.0641,2.0158,1.9346,1.9401,1.8865,1.8112,1.7815,1.7353,1.6909,1.6909,1.6909,1.6837,1.6595,1.6522,1.6522,1.6522,1.6522,1.6522,1.6522,1.6522,1.6238,1.5332,1.4926,1.4433,1.3515,1.3104,1.2881,1.2881,1.2314,1.167,1.1164,1.0947,1.0747,1.0623,1.0109,0.9814,0.9814,0.9211,0.8646,0.8262,0.8262,0.8103,0.7723,0.7723,0.7557,0.7182,0.7128,0.6966,0.6588,0.6588,0.6421,0.6036,0.5706,0.5324,0.5003,0.468,0.4519,0.0,0.0,0.0,0.0,0.0,0.0,0.0,0.0,3.3408,3.5504,3.595,3.6555,3.8613,3.8221,3.8233,4.0384,3.8366,3.6802,3.7431,3.5555,3.48,3.6658,3.5873,3.5182,3.5182,3.4163,3.3462,3.3462,3.2134,3.1064,3.0438,2.9504,2.8635,2.7837,2.7219,2.684,2.6695,2.5532,2.4937,2.4922,2.3366,2.2495,2.2293,2.24,2.2114,2.1545,2.2203,2.2188,2.1695,2.1695,2.162,2.1455,2.0917,2.0298,1.9835,2.0809,2.0206,1.8965,1.938,1.8855,1.7907,1.7544,1.7076,1.668,1.668,1.668,1.6637,1.6522,1.6522,1.6522,1.6522,1.6522,1.6522,1.6522,1.6522,1.6238,1.5254,1.4971,1.456,1.3478,1.3152,1.3065,1.2929,1.2881,1.2599,1.1798,1.143,1.1122,1.0919,1.0498,1.0167,1.0167,0.9562,0.9159,0.9008,0.8857,0.8804,0.8804,0.8804,0.8533,0.7943,0.7937,0.7616,0.702,0.702,0.6966,0.6804,0.6199,0.5869,0.5706,0.5003,0.4625,3.0952,3.162,3.3582,3.6111,3.6368,3.6886,0.0,0.0,3.9238,4.133,4.1749,4.1576,4.0915,4.0324,3.9553,3.8471,3.7059,3.6114,3.6202,3.5016,3.4289,3.4549,3.4011,3.366,3.366,3.349,3.3423,3.3423,3.2042,3.1177,3.1093,2.9089,2.7612,2.6891,2.6168,2.5479,2.4807,2.384,2.3363,2.3363,2.2652,2.1843,2.0932,2.1308,2.1225,2.0857,2.1515,2.1769,2.1695,2.1695,2.135,2.0812,2.0737,2.0017,1.9008,1.9156,1.9098,1.8817,1.8464,1.7882,1.7463,1.7867,1.7666,1.7188,1.7188,1.7188,1.7118,1.6637,1.6522,1.6522,1.6522,1.6522,1.6522,1.6522,1.6522,1.6479,1.6337,1.5876,1.532,1.4606,1.4061,1.3552,1.2968,1.2881,1.2861,1.2764,1.2696,1.2657,1.2609,1.2012,1.1566,1.1566,1.0965,1.0364,0.9762,0.9159,0.8804,0.8804,0.8804,0.8752,0.8699,0.8699,0.8646,0.854,0.854,0.8215,0.7557,0.7503,0.7128,0.648,0.571,0.5058,3.4959,3.539,0.0,0.0,3.911,4.0226,4.1832,4.1451,4.1284,4.307,4.2935,4.2231,4.145,4.002,3.8634,0.0,3.5919,3.4553,3.4177,3.2778,3.1641,3.128,3.0717,3.118,3.3195,3.2628,3.2121,3.2121,3.0328,2.9042,2.8602,2.7283,2.6184,2.5423,2.5118,2.4797,2.4506,2.3803,2.3468,2.3452,2.2531,2.1739,2.1042,2.1229,2.1078,2.0707,2.0587,2.0528,2.0528,2.0528,2.0198,1.9669,1.9669,1.9137,1.8458,1.8779,1.8688,1.838,1.7827,1.7504,1.7312,1.7188,1.7034,1.6837,1.6837,1.6837,1.6697,1.6139,1.6238,1.6337,1.5656,1.5976,1.6337,1.5611,1.5744,1.5776,1.5096,1.4732,1.4365,1.3752,1.3467,1.32,1.2929,1.2881,1.2881,1.2881,1.2881,1.2881,1.2881,1.2236,1.1665,1.1266,1.0965,1.0669,1.0415,1.0115,0.9814,0.9413,0.9361,0.9211,0.8804,0.8804,0.8804,0.8804,0.8804,0.8646,0.8321,0.7883,0.7557,0.7235,0.647,0.5764,3.7341,0.0,0.0,3.9626,4.131,4.2595,4.2583,4.2232,4.2201,4.3141,4.2484,4.15,4.0691,3.8942,0.0,3.6852,3.4666,3.2971,3.2767,3.0886,2.9459,2.9198,2.8616,2.932,3.1993,3.1044,3.026,3.026,2.8366,2.6979,2.642,2.5507,2.4746,2.4205,2.3985,2.3883,2.3883,2.3385,2.3063,2.2949,2.2116,2.1405,2.086,2.086,2.0695,2.0408,1.9899,1.969,1.969,1.953,1.9244,1.8893,1.8727,1.8341,1.7947,1.8341,1.8224,1.7787,1.7271,1.7076,1.7034,1.6637,1.6522,1.6522,1.6522,1.638,1.6151,1.572,1.5776,1.5788,1.4937,1.5332,1.5788,1.4926,1.5005,1.5096,1.4236,1.405,1.3873,1.3286,1.3152,1.3113,1.2929,1.2881,1.2881,1.2881,1.2881,1.2881,1.2881,1.2452,1.1931,1.1434,1.1225,1.1065,1.1065,1.0914,1.061,1.0115,1.0064,0.9762,0.9113,0.9061,0.9008,0.8804,0.8804,0.8804,0.8804,0.8268,0.7996,0.799,0.7235,0.6637,0.0,0.0,3.8663,4.1874,4.3333,4.3902,4.3784,4.3234,4.2574,4.1808,4.0969,3.9914,3.8377,3.7266,3.6301,3.5491,3.3152,3.1725,3.2392,3.0179,2.8705,2.9339,2.8806,2.8618,0.0,2.8477,2.7891,2.7891,2.6522,2.5659,2.5642,2.4255,2.346,2.3427,2.275,2.2378,2.2378,2.189,2.1464,2.1087,2.1039,2.0579,1.9756,1.9756,1.9756,1.972,1.969,1.969,1.9639,1.9132,1.8893,1.8855,1.8341,1.7787,1.7353,1.7353,1.7353,1.7229,1.671,1.6522,1.6522,1.6522,1.6522,1.6522,1.6522,1.6095,1.5632,1.5588,1.5186,1.4755,1.4698,1.4744,1.4755,1.4698,1.4698,1.4709,1.4698,1.4652,1.4468,1.3909,1.3768,1.36,1.3017,1.2881,1.2881,1.2881,1.2881,1.2881,1.2881,1.2881,1.2881,1.2832,1.2187,1.1765,1.1765,1.1166,1.0813,1.0762,1.0771,1.0466,0.9814,0.9762,0.9465,0.8804,0.8804,0.8804,0.8804,0.8758,0.8752,0.8752,0.7996,0.767,3.7401,0.0,4.18,4.2916,4.3775,4.4177,4.3528,4.2986,4.2489,4.202,3.9779,3.7503,3.6245,3.4801,3.3504,3.2706,3.2256,3.1934,3.1781,2.9816,2.8343,2.818,2.7509,0.0,0.0,0.0,0.0,2.7789,2.5541,2.434,2.4831,2.3477,2.2682,2.2682,2.2446,2.231,2.231,2.1823,2.1521,2.1399,2.0813,2.0382,2.0089,1.9818,1.969,1.969,1.9332,1.9169,1.9132,1.8574,1.8185,1.7827,1.7626,1.7229,1.6752,1.6752,1.6752,1.6752,1.6552,1.6522,1.6522,1.6522,1.6522,1.6423,1.6008,1.5764,1.5443,1.463,1.4549,1.4525,1.3705,1.4107,1.4479,1.3705,1.3826,1.4003,1.361,1.3525,1.343,1.3238,1.319,1.3152,1.292,1.2881,1.2881,1.2881,1.2881,1.2881,1.2881,1.2881,1.2881,1.2881,1.2666,1.255,1.255,1.2304,1.199,1.1466,1.1466,1.0965,0.9865,0.9814,0.9465,0.8804,0.8804,0.8804,0.8804,0.8804,0.8804,0.8804,0.8533,0.8156,3.9204,4.1498,4.315,4.3729,4.4238,4.4287,4.3039,4.2357,4.1734,4.0934,3.8152,3.542,3.4002,3.2798,3.1671,3.0754,3.1053,3.1358,3.1241,2.9365,2.8029,2.8165,2.7541,0.0,0.0,0.0,0.0,2.6995,2.478,2.3596,2.4069,2.297,2.231,2.231,2.231,2.231,2.231,2.1823,2.146,2.1134,2.0416,2.0089,2.0089,1.9818,1.9603,1.9406,1.9043,1.8779,1.8574,1.8027,1.7626,1.7271,1.7076,1.6795,1.6522,1.6522,1.6522,1.6522,1.6522,1.638,1.6194,1.6194,1.602,1.5788,1.5421,1.5141,1.4812,1.4003,1.392,1.3884,1.3113,1.3478,1.3836,1.3065,1.32,1.3372,1.2968,1.2881,1.2881,1.2881,1.2881,1.2881,1.2881,1.2881,1.2881,1.2881,1.2881,1.2881,1.2881,1.2881,1.2881,1.2881,1.2881,1.2881,1.2881,1.2881,1.2715,1.2236,1.2187,1.1674,1.0568,1.0261,0.9865,0.9159,0.891,0.8804,0.8804,0.8804,0.8804,0.8804,0.8804,0.8533,4.1779,4.2729,4.2717,4.4196,4.4581,4.4128,4.2285,4.1331,4.0347,3.8631,3.6102,3.3597,0.0,0.0,3.0876,2.9762,2.9845,3.0281,3.0982,2.8993,2.7955,0.0,0.0,0.0,0.0,0.0,0.0,2.5678,0.0,2.3439,2.3473,2.2745,2.2293,2.231,2.231,2.2282,2.2254,2.1764,2.1102,2.028,1.9874,1.969,1.9639,1.9639,1.9369,1.8855,1.8817,1.8535,1.8027,1.7463,1.7271,1.7188,1.671,1.6466,1.6466,1.6466,1.6423,1.6423,1.6423,1.6051,1.5576,1.5543,1.5186,1.4698,1.4652,1.4236,1.3779,1.3779,1.3334,1.2881,1.2881,1.2881,1.2881,1.2881,1.2881,1.2881,1.2881,1.2881,1.2881,1.2881,1.2881,1.2881,1.2881,1.2881,1.2881,1.2881,1.2881,1.2881,1.2881,1.2881,1.2881,1.2881,1.2881,1.2881,1.2881,1.2881,1.2881,1.2881,1.2881,1.2559,1.1814,1.1166,1.0517,0.9814,0.9159,0.8857,0.8804,0.8804,0.8804,0.8804,0.8804,0.8804,4.0877,4.2252,4.3052,4.2818,4.229,4.1513,4.0326,3.9262,3.8163,3.68,3.4375,3.2023,0.0,0.0,0.0,3.102,3.2125,0.0,3.3313,3.1416,0.0,0.0,0.0,2.8428,2.7558,2.7387,0.0,0.0,2.462,2.4029,2.4637,2.335,2.25,2.231,2.231,2.2135,2.1794,2.1039,2.0382,1.9839,1.9747,1.9479,1.9095,1.9095,1.8817,1.8302,1.7867,1.7626,1.7463,1.6909,1.671,1.668,1.6552,1.6238,1.582,1.582,1.5555,1.5152,1.5152,1.5332,1.5543,1.5062,1.4835,1.4617,1.4143,1.3909,1.3732,1.3238,1.3017,1.2881,1.2881,1.2881,1.2881,1.2881,1.2881,1.2881,1.2881,1.2881,1.2881,1.2881,1.2881,1.2881,1.2881,1.2881,1.2881,1.2881,1.2881,1.2881,1.2881,1.2881,1.2881,1.2881,1.2881,1.2881,1.2881,1.2881,1.2881,1.2881,1.2881,1.2559,1.1814,1.1665,1.1015,0.9814,0.9614,0.9309,0.8804,0.8804,0.8804,0.8804,0.8804,0.8804,4.0893,4.2003,4.2403,4.0824,4.0055,3.9255,3.7513,3.6501,3.5567,3.4392,3.2275,0.0,0.0,0.0,0.0,0.0,0.0,0.0,3.3545,3.2124,3.0776,0.0,2.9587,0.0,2.8388,2.7894,2.7476,0.0,2.555,2.4655,2.4742,2.3458,2.2634,2.2473,2.236,2.1974,2.1337,2.0649,2.0089,1.969,1.9442,1.9207,1.8893,1.865,1.8263,1.7747,0.0,1.7146,1.6909,1.6637,1.6324,1.6095,1.6095,1.5732,1.5186,1.5186,1.5005,1.4663,1.4376,1.4549,1.4767,1.4422,1.4107,1.3836,1.3515,1.3277,1.3071,1.2967,1.2744,1.2637,1.2832,1.2881,1.2881,1.2881,1.2881,1.2881,1.2881,1.2881,1.2881,1.2881,1.2881,1.2881,1.2881,1.2881,1.2881,1.2881,1.2881,1.2881,1.2881,1.2881,1.2881,1.2881,1.2881,1.2881,1.2881,1.2881,1.2881,1.2881,1.2881,1.2715,1.2295,1.1972,1.1466,1.0712,1.0115,0.9614,0.9263,0.8962,0.8804,0.8804,0.8804,0.8804,4.0943,4.1296,4.0754,3.8499,3.7761,3.6931,3.4496,3.3448,3.2702,3.1663,0.0,2.8755,2.8363,0.0,3.0823,2.9997,0.0,3.3795,3.2879,3.1962,3.1167,3.0526,3.0062,2.9739,2.954,2.8282,2.7553,2.77,2.6258,2.5039,2.436,2.3342,2.2721,2.266,2.2298,2.1751,2.1007,2.0483,2.007,1.969,1.9169,1.8855,1.8779,1.8263,1.7706,1.7188,0.0,0.0,1.6466,1.6423,1.6051,1.5588,1.5499,1.5096,1.456,1.456,1.4525,1.4387,1.3873,1.3684,1.3684,1.3684,1.3334,1.2881,1.2881,1.2617,1.2393,1.2773,1.2607,1.2402,1.2783,1.2881,1.2881,1.2881,1.2881,1.2881,1.2881,1.2881,1.2881,1.2881,1.2881,1.2881,1.2881,1.2881,1.2881,1.2881,1.2881,1.2881,1.2881,1.2881,1.2881,1.2881,1.2881,1.2881,1.2881,1.2881,1.2881,1.2881,1.2881,1.2881,1.2881,1.2295,1.1913,1.1814,1.0661,1.0012,0.9909,0.9361,0.9061,0.9061,0.8956,0.8956,3.8777,3.8152,3.7359,3.6325,3.4892,3.3555,3.2809,3.1207,0.0,0.0,0.0,2.7951,2.7228,2.8469,0.0,3.0577,0.0,0.0,0.0,0.0,3.1006,0.0,0.0,0.0,0.0,0.0,0.0,0.0,0.0,0.0,2.4399,2.3583,2.2865,2.2388,2.1645,2.1166,2.0991,2.0208,1.9782,1.969,1.9169,1.865,1.8224,1.7666,1.7146,1.6637,0.0,0.0,1.6479,1.5952,1.5676,1.5543,1.5062,1.4514,1.3956,1.3956,1.3647,1.32,1.3104,1.3065,1.3065,1.3065,1.2968,1.2881,1.2881,1.2832,1.2783,1.2861,1.2832,1.2783,1.2861,1.2881,1.2881,1.2881,1.2881,1.2881,1.2881,1.2881,1.2881,1.2881,1.2881,1.2881,1.2881,1.2881,1.2881,1.2881,1.2881,1.2881,1.2881,1.2881,1.2881,1.2881,1.2881,1.2881,1.2881,1.2881,1.2881,1.2881,1.2881,1.2881,1.2881,1.2774,1.2403,1.1814,1.1566,1.1166,1.0618,1.0517,1.0466,1.0415,0.9865,0.9614,3.693,3.5662,3.432,3.3214,3.1636,3.0025,2.8772,0.0,0.0,0.0,2.6331,2.6375,2.7217,0.0,0.0,0.0,0.0,0.0,0.0,0.0,0.0,0.0,0.0,0.0,0.0,0.0,0.0,0.0,0.0,0.0,2.405,2.3495,2.2933,2.231,2.1446,2.0991,2.0991,2.0154,1.969,1.969,1.8855,1.8341,1.8066,1.7271,1.6752,1.6522,0.0,0.0,1.6008,1.572,1.5219,1.463,1.4318,1.3873,1.3324,1.3324,1.3152,1.2881,1.2881,1.2881,1.2842,1.2617,1.2549,1.25,1.2312,1.2041,1.1953,1.2412,1.2373,1.2351,1.2764,1.2881,1.2881,1.2881,1.2881,1.2881,1.2881,1.2881,1.2881,1.2881,1.2881,1.2881,1.2881,1.2881,1.2881,1.2881,1.2881,1.2881,1.2881,1.2881,1.2881,1.2881,1.2881,1.2881,1.2881,1.2881,1.2881,1.2881,1.2881,1.2881,1.2881,1.2881,1.2715,1.2393,1.1972,1.1665,1.1316,1.0965,1.0813,1.0813,1.0466,1.0312,3.4796,3.3461,3.203,3.0341,2.8807,2.72,2.5288,2.4511,0.0,0.0,2.4311,2.4787,2.6788,0.0,0.0,0.0,0.0,0.0,0.0,0.0,0.0,0.0,0.0,0.0,0.0,0.0,0.0,0.0,0.0,0.0,0.0,2.3277,2.2857,2.231,2.1554,2.1086,2.0991,2.0208,1.9782,1.969,1.8612,1.8106,1.8066,1.6993,1.6522,1.6466,0.0,0.0,0.0,1.5309,1.4675,1.3779,1.3637,1.3334,1.2881,1.2881,1.2881,1.2881,1.2881,1.2881,1.2793,1.2256,1.2148,1.2102,1.1734,1.1387,1.1338,1.1986,1.2041,1.2047,1.2705,1.2881,1.2881,1.2881,1.2881,1.2881,1.2881,1.2881,1.2881,1.2881,1.2881,1.2881,1.2881,1.2881,1.2881,1.2881,1.2881,1.2881,1.2881,1.2881,1.2881,1.2881,1.2881,1.2881,1.2881,1.2881,1.2881,1.2881,1.2881,1.2881,1.2881,1.2881,1.2881,1.2881,1.2344,1.203,1.2021,1.1525,1.1225,1.1225,1.1074,1.1015,3.1816,3.141,3.1255,2.8691,2.7257,2.6101,2.469,0.0,0.0,2.2848,2.321,2.3765,2.4662,2.4883,0.0,0.0,0.0,2.9426,0.0,0.0,0.0,0.0,0.0,0.0,0.0,0.0,0.0,0.0,0.0,0.0,0.0,2.2923,2.2599,2.231,2.1794,2.1368,2.0991,2.0483,2.0054,1.969,1.8612,1.8106,1.8066,1.6993,1.6522,1.6466,0.0,0.0,0.0,1.4411,1.3909,1.3732,1.32,1.2978,1.2881,1.2881,1.2881,1.2881,1.2881,1.2881,1.2744,1.1939,1.1895,1.2102,1.1734,1.1816,1.2083,1.2161,1.249,1.2773,1.2861,1.2881,1.2881,1.2881,1.2881,1.2881,1.2881,1.2881,1.2881,1.2881,1.2881,1.2881,1.2881,1.2881,1.2881,1.2881,1.2881,1.2881,1.2881,1.2881,1.2881,1.2881,1.2881,1.2881,1.2881,1.2881,1.2881,1.2881,1.2881,1.2881,1.2881,1.2881,1.2881,1.2881,1.2822,1.2774,1.2774,1.2725,1.2725,1.2676,1.203,1.1715,3.1569,3.0613,2.9595,2.8404,2.6438,2.4564,2.3655,0.0,2.1624,2.2216,2.2322,2.2906,2.4816,2.478,2.4968,0.0,0.0,0.0,0.0,0.0,0.0,0.0,0.0,0.0,0.0,0.0,0.0,0.0,0.0,0.0,0.0,2.2972,2.2781,2.2293,2.1615,2.115,2.0991,2.0296,1.9874,1.969,1.8612,1.8106,1.8066,1.6993,1.6522,1.6479,0.0,0.0,0.0,1.456,1.392,1.3238,1.2968,1.2881,1.2881,1.2881,1.2881,1.2881,1.2881,1.2881,1.2734,1.189,1.1724,1.1699,1.1047,1.1094,1.1494,1.1748,1.2148,1.2549,1.2812,1.2881,1.2881,1.2881,1.2881,1.2881,1.2881,1.2881,1.2881,1.2881,1.2881,1.2881,1.2881,1.2881,1.2881,1.2881,1.2881,1.2881,1.2881,1.2881,1.2881,1.2881,1.2881,1.2881,1.2881,1.2881,1.2881,1.2881,1.2881,1.2881,1.2881,1.2881,1.2881,1.2881,1.2881,1.2881,1.2881,1.2881,1.2881,1.2881,1.2608,1.2452,3.0596,2.9782,2.8661,2.772,2.5592,2.3468,0.0,0.0,2.0543,2.1198,2.1422,2.2215,2.4628,2.4624,2.4616,2.5771,0.0,2.7805,0.0,0.0,0.0,0.0,0.0,0.0,0.0,0.0,0.0,0.0,0.0,0.0,0.0,2.2923,2.2832,2.231,2.1584,2.1118,2.0991,2.0243,1.9818,1.969,1.8765,1.8263,1.8066,1.7146,1.6637,0.0,0.0,0.0,0.0,1.4514,1.3836,1.2881,1.2881,1.2881,1.2881,1.2881,1.2881,1.2881,1.2881,1.2881,1.2764,1.2002,1.1802,1.1602,1.0732,1.0674,1.1025,1.1602,1.208,1.249,1.2803,1.2881,1.2881,1.2881,1.2881,1.2881,1.2881,1.2881,1.2881,1.2881,1.2881,1.2881,1.2881,1.2881,1.2881,1.2881,1.2881,1.2881,1.2881,1.2881,1.2881,1.2881,1.2881,1.2881,1.2881,1.2881,1.2881,1.2881,1.2881,1.2881,1.2881,1.2881,1.2881,1.2881,1.2881,1.2881,1.2881,1.2881,1.2881,1.2881,1.2881,1.2881,2.8106,2.8605,2.8944,2.6302,2.4548,2.3064,0.0,0.0,1.8979,1.9498,2.0462,2.1764,2.3588,2.3786,2.4133,2.5409,2.5939,0.0,0.0,0.0,0.0,0.0,0.0,0.0,0.0,0.0,0.0,0.0,0.0,0.0,0.0,0.0,2.2573,2.231,2.1823,2.1399,2.0991,2.0516,2.0089,1.969,1.9169,1.8612,1.8066,1.7544,0.0,0.0,0.0,0.0,0.0,1.405,1.3467,1.2881,1.2881,1.2881,1.2881,1.2881,1.2881,1.2881,1.2881,1.2881,1.2812,1.2363,1.218,1.2015,1.1172,1.0908,1.1094,1.1927,1.2539,1.2871,1.2881,1.2881,1.2881,1.2881,1.2881,1.2881,1.2881,1.2881,1.2881,1.2881,1.2881,1.2881,1.2881,1.2881,1.2881,1.2881,1.2881,1.2881,1.2881,1.2881,1.2881,1.2881,1.2881,1.2881,1.2881,1.2881,1.2881,1.2881,1.2881,1.2881,1.2881,1.2881,1.2881,1.2881,1.2881,1.2881,1.2881,1.2881,1.2881,1.2881,1.2881,1.2881,2.6517,2.6605,2.647,2.5064,2.3317,2.1727,2.0967,0.0,1.8454,1.8956,1.9625,2.0662,2.2472,2.3359,2.401,2.4563,2.5698,0.0,0.0,0.0,0.0,0.0,0.0,0.0,0.0,0.0,0.0,0.0,0.0,0.0,0.0,0.0,2.1907,2.1823,2.1415,2.0975,2.0516,2.0089,1.9645,1.9169,1.8612,1.8066,1.7544,1.6993,0.0,0.0,0.0,0.0,0.0,1.4468,1.3647,1.2461,1.2764,1.2695,1.2471,1.2773,1.2881,1.2881,1.2881,1.2881,1.2764,1.2012,1.1768,1.166,1.1084,1.1113,1.1475,1.2015,1.2549,1.2881,1.2881,1.2881,1.2881,1.2881,1.2881,1.2881,1.2881,1.2881,1.2881,1.2881,1.2881,1.2881,1.2881,1.2881,1.2881,1.2881,1.2881,1.2881,1.2881,1.2881,1.2881,1.2881,1.2881,1.2881,1.2881,1.2881,1.2881,1.2881,1.2881,1.2881,1.2881,1.2881,1.2881,1.2881,1.2881,1.2881,1.2881,1.2881,1.2881,1.2881,1.2881,1.2881,0.0,2.4526,2.4243,2.3655,2.2116,0.0,0.0,0.0,1.8171,1.8478,1.9169,2.0196,2.1767,2.2742,2.347,2.4095,2.5201,0.0,0.0,0.0,0.0,0.0,0.0,0.0,0.0,0.0,0.0,0.0,0.0,0.0,0.0,0.0,2.129,2.1134,2.0878,2.0583,2.0314,1.9909,1.9442,1.8893,1.8574,1.8027,1.7312,0.0,0.0,0.0,0.0,0.0,0.0,1.4553,1.3587,1.219,1.2344,1.2217,1.2012,1.2285,1.243,1.243,1.243,1.243,1.2341,1.1783,1.1606,1.1557,1.123,1.1465,1.1875,1.2148,1.2549,1.2881,1.2881,1.2881,1.2881,1.2881,1.2881,1.2881,1.2881,1.2881,1.2881,1.2881,1.2881,1.2881,1.2881,1.2881,1.2881,1.2881,1.2881,1.2881,1.2881,1.2881,1.2881,1.2881,1.2881,1.2881,1.2881,1.2881,1.2881,1.2881,1.2881,1.2881,1.2881,1.2881,1.2881,1.2881,1.2881,1.2881,1.2881,1.2881,1.2881,1.2881,1.2881,1.2881,0.0,2.2304,0.0,0.0,0.0,0.0,0.0,0.0,0.0,1.8161,1.9075,2.0277,2.1515,2.2041,2.2692,2.3824,2.447,0.0,0.0,0.0,0.0,0.0,0.0,0.0,0.0,0.0,0.0,0.0,0.0,0.0,0.0,0.0,0.0,2.028,2.0212,2.0212,2.0212,1.9839,1.9369,1.8779,1.8779,1.8263,1.7229,0.0,0.0,0.0,0.0,0.0,0.0,1.426,1.3309,1.2102,1.1802,1.1616,1.1557,1.1596,1.1606,1.1606,1.1606,1.1626,1.1655,1.1655,1.1606,1.1567,1.1636,1.1895,1.218,1.218,1.2549,1.2881,1.2881,1.2881,1.2881,1.2881,1.2881,1.2881,1.2881,1.2881,1.2881,1.2881,1.2881,1.2881,1.2881,1.2881,1.2881,1.2881,1.2881,1.2881,1.2881,1.2881,1.2881,1.2881,1.2881,1.2881,1.2881,1.2881,1.2881,1.2881,1.2881,1.2881,1.2881,1.2881,1.2881,1.2881,1.2881,1.2881,1.2881,1.2881,1.2881,1.2881,1.2881,1.2881,1.9666,0.0,1.9575,1.9181,1.8789,1.8523,0.0,0.0,0.0,0.0,0.0,0.0,0.0,2.22,2.2586,2.2975,2.4106,0.0,0.0,0.0,0.0,0.0,0.0,0.0,0.0,0.0,0.0,0.0,0.0,0.0,0.0,0.0,0.0,1.9798,1.9419,1.9251,1.9251,1.9155,1.8612,1.7666,1.7666,1.7353,1.668,0.0,0.0,0.0,0.0,0.0,1.4094,1.3982,1.3063,1.1738,1.1982,1.166,1.1103,1.1479,1.1606,1.1606,1.1606,1.1787,1.207,1.207,1.1611,1.1191,1.1865,1.2148,1.218,1.218,1.2549,1.2881,1.2881,1.2881,1.2881,1.2881,1.2881,1.2881,1.2881,1.2881,1.2881,1.2881,1.2881,1.2881,1.2881,1.2881,1.2881,1.2881,1.2881,1.2881,1.2881,1.2881,1.2881,1.2881,1.2881,1.2881,1.2881,1.2881,1.2881,1.2881,1.2881,1.2881,1.2881,1.2881,1.2881,1.2881,1.2881,1.2881,1.2881,1.2881,1.2881,1.2881,1.2881,1.2881,1.9343,1.9127,1.8893,1.8868,1.9107,1.9405,1.9656,0.0,0.0,0.0,0.0,0.0,0.0,0.0,0.0,0.0,0.0,0.0,0.0,0.0,0.0,0.0,0.0,0.0,0.0,0.0,0.0,0.0,0.0,0.0,0.0,0.0,0.0,0.0,1.8674,1.8535,1.8535,1.8535,1.8145,1.7312,1.7312,1.7034,1.6522,0.0,0.0,0.0,0.0,0.0,1.4658,1.4186,1.3334,1.228,1.2341,1.1764,1.0937,1.1172,1.1185,1.1047,1.1191,1.1553,1.1885,1.1689,1.1528,1.1558,1.2044,1.2373,1.2529,1.2529,1.2559,1.2627,1.2832,1.2881,1.2881,1.2881,1.2881,1.2881,1.2881,1.2881,1.2881,1.2881,1.2881,1.2881,1.2881,1.2881,1.2881,1.2881,1.2881,1.2881,1.2881,1.2881,1.2881,1.2881,1.2881,1.2881,1.2881,1.2881,1.2881,1.2881,1.2881,1.2881,1.2881,1.2881,1.2881,1.2881,1.2881,1.2881,1.2881,1.2881,1.2881,1.2881,1.2881,1.2881,2.0013,1.9849,1.9727,1.9953,2.0487,2.108,2.1539,0.0,0.0,0.0,0.0,0.0,0.0,0.0,0.0,0.0,0.0,0.0,0.0,0.0,0.0,0.0,0.0,0.0,0.0,0.0,0.0,0.0,0.0,0.0,0.0,0.0,0.0,0.0,1.8027,1.7947,1.7867,1.7947,1.7706,1.7188,1.7188,1.6951,1.6522,1.6522,0.0,0.0,0.0,0.0,1.5409,1.4559,1.3819,1.3212,1.2786,1.1974,1.1032,1.0949,1.0645,1.0342,1.0762,1.1152,1.1469,1.1191,1.1533,1.2015,1.2219,1.249,1.2705,1.2842,1.2617,1.2412,1.2783,1.2881,1.2881,1.2881,1.2881,1.2881,1.2881,1.2881,1.2881,1.2881,1.2881,1.2881,1.2881,1.2881,1.2881,1.2881,1.2881,1.2881,1.2881,1.2881,1.2881,1.2881,1.2881,1.2881,1.2881,1.2881,1.2881,1.2881,1.2881,1.2881,1.2881,1.2881,1.2881,1.2881,1.2881,1.2881,1.2881,1.2881,1.2881,1.2881,1.2881,1.2881,2.0428,2.1668,2.2489,2.1213,2.1304,2.1758,0.0,0.0,0.0,0.0,0.0,0.0,0.0,0.0,0.0,0.0,0.0,0.0,0.0,0.0,0.0,0.0,0.0,0.0,0.0,0.0,0.0,0.0,0.0,0.0,0.0,0.0,0.0,0.0,0.0,1.7188,1.6752,1.7188,1.7146,1.6637,1.6637,1.6595,1.6522,1.6522,1.6258,0.0,0.0,1.5401,1.4915,1.4749,1.4386,1.3883,1.3268,1.2499,1.1682,1.1114,1.0645,1.0342,1.0762,1.0947,1.1123,1.1762,1.1611,1.1318,1.2441,1.2351,1.1969,1.2666,1.2832,1.2803,1.2861,1.2881,1.2881,1.2881,1.2881,1.2881,1.2881,1.2881,1.2881,1.2881,1.2881,1.2881,1.2881,1.2881,1.2881,1.2881,1.2881,1.2881,1.2881,1.2881,1.2881,1.2881,1.2881,1.2881,1.2881,1.2881,1.2881,1.2881,1.2881,1.2881,1.2881,1.2881,1.2881,1.2881,1.2881,1.2881,1.2881,1.2881,1.2881,1.2881,1.2881,1.2881,2.0948,2.2677,2.4298,2.3955,2.4117,2.4384,0.0,0.0,0.0,0.0,0.0,0.0,0.0,0.0,0.0,0.0,0.0,0.0,0.0,0.0,0.0,0.0,0.0,0.0,0.0,0.0,0.0,0.0,0.0,0.0,0.0,0.0,0.0,0.0,0.0,0.0,1.6008,1.6244,1.6429,1.6522,1.6522,1.6522,1.6522,1.6522,1.6384,1.612,0.0,1.5691,1.5685,1.5391,1.5133,1.4827,1.3983,1.3173,1.2394,1.1324,1.0937,1.1008,1.0918,1.1221,1.1689,1.2054,1.1908,1.1738,1.2344,1.2246,1.1953,1.2165,1.2344,1.2588,1.2822,1.2881,1.2881,1.2881,1.2881,1.2881,1.2881,1.2881,1.2881,1.2881,1.2881,1.2881,1.2881,1.2881,1.2881,1.2881,1.2881,1.2881,1.2881,1.2881,1.2881,1.2881,1.2666,1.2529,1.2529,1.2529,1.2627,1.2861,1.2881,1.2881,1.2881,1.2881,1.2881,1.2881,1.2881,1.2881,1.2881,1.2881,1.2881,1.2881,1.2881,1.2881,2.1397,2.3091,2.5051,2.5911,0.0,0.0,0.0,0.0,0.0,0.0,0.0,0.0,0.0,0.0,0.0,0.0,0.0,0.0,0.0,0.0,0.0,0.0,0.0,0.0,0.0,0.0,0.0,0.0,0.0,0.0,0.0,0.0,0.0,0.0,0.0,0.0,1.582,1.5676,1.5776,1.6064,1.6238,1.6281,1.6281,1.6423,1.6522,1.6497,1.607,1.6132,1.6484,1.607,1.577,1.5508,1.4605,1.3652,1.2603,1.135,1.1191,1.1557,1.1172,1.1572,1.218,1.218,1.2044,1.1918,1.2122,1.2112,1.2021,1.1787,1.2041,1.2432,1.2666,1.2803,1.2881,1.2881,1.2881,1.2881,1.2881,1.2881,1.2881,1.2881,1.2881,1.2881,1.2881,1.2881,1.2881,1.2881,1.2881,1.2881,1.2881,1.2793,1.2725,1.2725,1.2334,1.2119,1.2171,1.2278,1.2529,1.2861,1.2881,1.2881,1.2881,1.2881,1.2881,1.2881,1.2881,1.2881,1.2881,1.3065,1.3104,1.3104,1.3248,1.3344,2.1652,2.2961,2.4322,2.5655,2.6148,0.0,2.7953,2.7163,0.0,0.0,0.0,0.0,0.0,0.0,0.0,0.0,0.0,0.0,0.0,0.0,0.0,0.0,0.0,0.0,0.0,0.0,0.0,0.0,0.0,0.0,0.0,0.0,0.0,0.0,0.0,0.0,1.6423,1.5864,1.532,1.4835,1.541,1.5676,1.5676,1.6238,1.6522,1.6522,1.6471,1.6441,1.6522,1.6471,1.6114,1.5543,1.488,1.3472,1.163,1.1084,1.1191,1.1596,1.1567,1.1826,1.218,1.218,1.1626,1.1152,1.1937,1.1943,1.1734,1.207,1.25,1.2754,1.2373,1.2578,1.2881,1.2881,1.2881,1.2881,1.2881,1.2881,1.2881,1.2881,1.2881,1.2881,1.2881,1.2881,1.2881,1.2881,1.2881,1.2881,1.2881,1.2529,1.2229,1.2229,1.1875,1.1777,1.2151,1.2607,1.2842,1.2881,1.2881,1.2881,1.2881,1.2881,1.2881,1.2881,1.2881,1.2881,1.2881,1.3457,1.3732,1.3732,1.4294,1.456,2.1631,2.3309,2.5058,2.562,2.6482,0.0,0.0,2.7556,2.6246,0.0,0.0,0.0,0.0,0.0,0.0,0.0,0.0,0.0,0.0,0.0,0.0,0.0,0.0,0.0,0.0,0.0,0.0,0.0,0.0,0.0,0.0,0.0,0.0,0.0,0.0,0.0,0.0,1.5005,1.4283,1.3701,1.4631,1.5231,1.562,1.5495,1.5277,1.5038,1.5344,1.5318,1.5073,1.5732,1.548,1.4571,1.3693,1.2621,1.1547,1.1064,1.1191,1.1606,1.1606,1.1494,1.1504,1.2005,1.1587,1.0967,1.1309,1.1484,1.1587,1.1436,1.2119,1.2842,1.2676,1.2754,1.2881,1.2881,1.2881,1.2881,1.2881,1.2881,1.2881,1.2881,1.2881,1.2881,1.2881,1.2881,1.2881,1.2881,1.2881,1.2881,1.2881,1.2744,1.2529,1.2209,1.1826,1.1796,1.2361,1.2781,1.33,1.3956,1.3344,1.2881,1.2881,1.2881,1.3055,1.3467,1.3104,1.3296,1.4025,1.3873,1.4003,1.4376,1.4606,1.4698,2.2126,2.367,2.5372,2.5828,0.0,0.0,2.9378,2.8484,0.0,0.0,0.0,0.0,0.0,0.0,0.0,0.0,0.0,0.0,0.0,0.0,0.0,0.0,0.0,0.0,0.0,0.0,0.0,0.0,0.0,0.0,0.0,0.0,0.0,0.0,0.0,0.0,0.0,1.4417,1.3777,1.3411,1.3751,1.4183,1.4601,1.446,1.4182,1.3905,1.4261,1.428,1.4161,1.4882,1.4647,1.3726,1.2641,1.19,1.1361,1.1025,1.1191,1.1596,1.177,1.1585,1.1396,1.2034,1.1634,1.0937,1.1074,1.123,1.1348,1.1328,1.1973,1.2705,1.2842,1.2881,1.2881,1.2881,1.2881,1.2881,1.2881,1.2881,1.2881,1.2881,1.2881,1.2881,1.2881,1.2881,1.2881,1.2881,1.2881,1.2881,1.2881,1.2764,1.251,1.2061,1.2034,1.2233,1.2657,1.3256,1.3935,1.4641,1.3931,1.3478,1.3478,1.3478,1.3658,1.4097,1.3705,1.3884,1.4698,1.4468,1.4595,1.4971,1.5197,1.5242,2.327,2.3947,2.4862,0.0,0.0,0.0,0.0,0.0,0.0,0.0,0.0,0.0,0.0,0.0,0.0,0.0,0.0,0.0,0.0,0.0,0.0,0.0,0.0,0.0,0.0,0.0,0.0,0.0,0.0,0.0,0.0,0.0,0.0,0.0,0.0,0.0,0.0,1.4304,1.4014,1.4086,1.2866,1.2394,1.2531,1.3106,1.3395,1.3395,1.3395,1.3668,1.4074,1.4074,1.3726,1.3081,1.2082,1.1348,1.0908,1.0908,1.1172,1.1683,1.2138,1.2226,1.2175,1.2282,1.1662,1.0996,1.1469,1.1302,1.1103,1.1982,1.2227,1.2334,1.2773,1.2881,1.2929,1.2881,1.2881,1.2881,1.2881,1.2881,1.2881,1.2881,1.2881,1.2881,1.2881,1.2881,1.2881,1.2881,1.2881,1.2881,1.2881,1.25,1.2061,1.1655,1.2505,1.312,1.312,1.4102,1.4698,1.4709,1.4709,1.4698,1.4698,1.4698,1.4698,1.4698,1.4698,1.4709,1.4709,1.532,1.5588,1.5632,1.6238,1.6522,2.2946,2.3863,0.0,0.0,0.0,0.0,0.0,0.0,0.0,0.0,0.0,0.0,0.0,0.0,0.0,0.0,0.0,0.0,0.0,0.0,0.0,0.0,0.0,0.0,0.0,0.0,0.0,0.0,0.0,0.0,0.0,0.0,0.0,0.0,0.0,0.0,0.0,0.0,1.3264,1.303,1.2235,1.2089,1.2468,1.2315,1.1992,1.1655,1.2086,1.2124,1.191,1.191,1.2274,1.267,1.164,1.1074,1.091,1.0953,1.1045,1.1145,1.1261,1.1111,1.093,1.1211,1.113,1.101,1.1645,1.1851,1.2023,1.2652,1.3086,1.3302,1.2994,1.319,1.342,1.3017,1.2881,1.2881,1.2881,1.2881,1.2881,1.2881,1.2881,1.2881,1.2881,1.2881,1.2881,1.2881,1.2881,1.2881,1.2881,1.25,1.2306,1.2631,1.2903,1.3465,1.4347,1.4984,1.5511,1.592,1.5976,1.5611,1.4744,1.4698,1.4926,1.532,1.4926,1.5107,1.5976,1.5732,1.582,1.6238,1.6423,1.6522,2.4078,0.0,0.0,0.0,0.0,0.0,0.0,0.0,0.0,0.0,0.0,0.0,0.0,0.0,0.0,0.0,0.0,0.0,0.0,0.0,0.0,0.0,0.0,0.0,0.0,0.0,0.0,0.0,0.0,0.0,0.0,0.0,0.0,0.0,0.0,0.0,0.0,0.0,0.0,1.2562,1.202,1.1783,1.1888,1.1376,1.0975,1.0685,1.1248,1.1319,1.1019,1.1244,1.1567,1.191,1.1238,1.085,1.0665,1.0712,1.0815,1.0879,1.0945,1.0755,1.0587,1.0865,1.0924,1.102,1.1613,1.1892,1.2215,1.2853,1.3171,1.3183,1.2772,1.2929,1.3111,1.2929,1.2881,1.2881,1.2881,1.2881,1.2881,1.2881,1.2881,1.2881,1.2881,1.2881,1.2881,1.2881,1.3104,1.3334,1.3563,1.3372,1.3324,1.3712,1.3971,1.4415,1.5167,1.5683,1.6095,1.6479,1.6522,1.6151,1.5433,1.5433,1.5611,1.5964,1.5599,1.5788,1.6522,1.6139,1.6139,1.6522,1.6522,1.6522,2.5982,0.0,0.0,0.0,0.0,0.0,0.0,0.0,0.0,0.0,0.0,0.0,0.0,0.0,0.0,0.0,0.0,0.0,0.0,0.0,0.0,0.0,0.0,0.0,0.0,0.0,0.0,0.0,0.0,0.0,0.0,0.0,0.0,0.0,0.0,0.0,0.0,0.0,0.0,0.0,1.2029,1.1516,1.0981,1.0505,1.0283,1.0322,1.0764,1.0943,1.1019,1.1468,1.1394,1.1019,1.1019,1.0715,1.0322,1.0361,1.0567,1.0832,1.0935,1.0912,1.0872,1.0925,1.0903,1.0986,1.1463,1.1684,1.1941,1.2771,1.2731,1.2373,1.2341,1.2236,1.2312,1.2714,1.2764,1.2764,1.2764,1.2793,1.2822,1.2822,1.2822,1.2832,1.2871,1.2812,1.2773,1.2812,1.3399,1.4003,1.456,1.4652,1.4698,1.4789,1.5276,1.5632,1.5676,1.6194,1.6522,1.6522,1.6522,1.6522,1.6522,1.6522,1.6522,1.6522,1.6522,1.6522,1.6522,1.6522,1.6522,1.6522,1.6522,1.6522,0.0,2.6314,0.0,0.0,0.0,0.0,0.0,0.0,0.0,0.0,0.0,0.0,0.0,0.0,0.0,0.0,0.0,0.0,0.0,0.0,0.0,0.0,0.0,0.0,0.0,0.0,0.0,0.0,0.0,0.0,0.0,0.0,0.0,0.0,0.0,0.0,1.3769,1.3735,1.3331,0.0,1.2029,1.1516,1.0981,1.0505,1.0283,1.0322,1.039,1.0649,1.0981,1.0725,1.0764,1.1019,1.1019,1.0715,1.0361,1.0715,1.0671,1.044,1.0458,1.0449,1.044,1.0458,1.0636,1.101,1.1583,1.1986,1.2377,1.3012,1.311,1.2974,1.2456,1.2381,1.2323,1.195,1.189,1.189,1.189,1.2119,1.2373,1.2373,1.2373,1.248,1.2822,1.2351,1.2008,1.2314,1.3185,1.3862,1.3956,1.4422,1.488,1.5365,1.5543,1.5776,1.6281,1.6423,1.6522,1.6522,1.6522,1.6522,1.6522,1.6522,1.6522,1.6522,1.6522,1.6522,1.6522,1.6522,1.6522,1.6522,1.6522,1.6522,0.0,0.0,0.0,0.0,0.0,0.0,0.0,0.0,0.0,0.0,0.0,0.0,0.0,0.0,0.0,0.0,0.0,0.0,0.0,0.0,0.0,0.0,0.0,0.0,0.0,0.0,0.0,0.0,0.0,0.0,0.0,0.0,0.0,0.0,0.0,0.0,1.4214,1.4,1.3656,1.3148,1.2234,1.1404,1.0649,1.039,1.0283,1.0283,1.0283,1.0428,1.0649,1.039,1.0428,1.0649,1.0649,1.0505,1.0322,1.0572,1.0505,1.0283,1.0283,1.0283,1.0283,1.0283,1.0765,1.1348,1.1671,1.2059,1.2469,1.2754,1.285,1.2696,1.1882,1.19,1.1975,1.143,1.1462,1.1606,1.1606,1.1738,1.1914,1.1914,1.1914,1.1982,1.2253,1.2041,1.2112,1.2862,1.3445,1.4003,1.4584,1.496,1.5377,1.5964,1.6051,1.6151,1.6466,1.6522,1.6522,1.6522,1.6522,1.6522,1.6522,1.6522,1.6522,1.6522,1.6522,1.6522,1.6522,1.6522,1.6522,1.6522,1.6522,1.6522,0.0,0.0,0.0,0.0,0.0,0.0,0.0,0.0,0.0,0.0,0.0,0.0,0.0,0.0,0.0,0.0,0.0,0.0,0.0,0.0,0.0,0.0,0.0,0.0,0.0,0.0,0.0,0.0,0.0,0.0,0.0,0.0,0.0,0.0,0.0,1.5994,1.4693,1.4296,1.4019,1.3888,1.2472,1.1255,1.0283,1.0283,1.0283,1.0283,1.0283,1.0283,1.0283,1.0283,1.0283,1.0283,1.0283,1.0283,1.0283,1.0283,1.0283,1.0283,1.0283,1.0283,1.0283,1.0283,1.0834,1.1477,1.1556,1.1862,1.2202,1.2368,1.2291,1.2037,1.1416,1.1418,1.1491,1.1217,1.1407,1.1626,1.1626,1.1644,1.1618,1.1618,1.166,1.1675,1.1518,1.1885,1.249,1.3449,1.3647,1.4128,1.5443,1.5588,1.582,1.6423,1.6522,1.6522,1.6522,1.6522,1.6522,1.6522,1.6522,1.6522,1.6522,1.6522,1.6522,1.6522,1.6522,1.6522,1.6522,1.6522,1.6522,1.6522,1.6522,1.6522,0.0,0.0,0.0,0.0,0.0,0.0,0.0,0.0,0.0,0.0,0.0,0.0,0.0,0.0,0.0,0.0,0.0,0.0,0.0,0.0,0.0,0.0,0.0,0.0,0.0,0.0,0.0,0.0,0.0,0.0,0.0,0.0,1.9503,1.828,1.7299,1.6344,1.5461,1.5121,1.4596,1.3888,1.2472,1.1255,1.0283,1.0283,1.0283,1.0283,1.0283,1.0283,1.0283,1.0283,1.0283,1.0283,1.0283,1.0283,1.0283,1.0283,1.0283,1.0283,1.0283,1.0283,1.0283,1.0283,1.04,1.0556,1.0961,1.1151,1.1368,1.223,1.1852,1.1357,1.2113,1.1697,1.1206,1.1601,1.1726,1.1777,1.1777,1.1719,1.1684,1.1684,1.1917,1.1895,1.1133,1.168,1.2292,1.2645,1.2962,1.3793,1.5395,1.5588,1.582,1.6423,1.6522,1.6522,1.6522,1.6522,1.6522,1.6522,1.6522,1.6522,1.6522,1.6522,1.6522,1.6522,1.6522,1.6522,1.6522,1.6522,1.6522,1.6522,1.6522,1.6522,2.3833,0.0,0.0,0.0,0.0,0.0,0.0,0.0,0.0,0.0,0.0,0.0,0.0,0.0,0.0,0.0,0.0,0.0,0.0,0.0,0.0,0.0,0.0,0.0,0.0,0.0,0.0,0.0,0.0,0.0,0.0,2.0212,1.9036,1.7815,1.7154,0.0,1.5991,1.5404,1.4537,1.3437,1.2059,1.1039,1.0348,0.9814,0.9834,1.0283,1.0283,1.0283,1.0283,0.9961,1.004,1.0283,0.9961,1.004,1.0283,1.0283,1.0283,1.0283,1.0283,1.0283,1.0283,1.0283,1.0467,1.0725,1.0943,1.1019,1.1159,1.192,1.1579,1.1084,1.1531,1.1308,1.1132,1.1664,1.1811,1.1884,1.2138,1.1979,1.1757,1.1757,1.2367,1.2627,1.1857,1.2573,1.3256,1.3292,1.3707,1.4395,1.5463,1.5588,1.582,1.6423,1.6522,1.6522,1.6522,1.6522,1.6522,1.6522,1.6522,1.6522,1.6522,1.6522,1.6522,1.6522,1.6522,1.6522,1.6522,1.6522,1.6522,1.6522,1.6522,1.6522,0.0,0.0,0.0,0.0,0.0,0.0,0.0,0.0,0.0,0.0,0.0,0.0,0.0,0.0,0.0,0.0,0.0,0.0,0.0,0.0,0.0,0.0,0.0,0.0,0.0,0.0,0.0,0.0,0.0,0.0,2.0863,1.9847,1.8773,1.7572,1.7052,1.6686,1.6421,1.5433,1.4319,1.3082,1.1744,1.0917,1.053,0.9482,0.9414,1.0117,1.0117,1.0117,1.0089,0.9836,0.9843,1.0079,0.9804,0.9883,1.0118,1.0244,1.0283,1.0283,1.0283,1.0283,1.0283,1.0283,1.0544,1.0829,1.0943,1.0905,1.0943,1.1627,1.1319,1.0867,1.1132,1.1094,1.1132,1.1664,1.1884,1.2029,1.2282,1.2066,1.1852,1.1937,1.2737,1.3245,1.2876,1.3541,1.4111,1.4186,1.4372,1.4879,1.572,1.5676,1.582,1.6423,1.6522,1.6522,1.6522,1.6522,1.6522,1.6522,1.6522,1.6522,1.6522,1.6522,1.6522,1.6522,1.6522,1.6522,1.6522,1.6522,1.6522,1.6522,1.6637,1.6637,0.0,0.0,0.0,0.0,0.0,0.0,0.0,0.0,0.0,0.0,0.0,0.0,0.0,0.0,0.0,0.0,0.0,0.0,0.0,0.0,0.0,0.0,0.0,0.0,0.0,0.0,0.0,0.0,0.0,0.0,2.0318,1.9632,1.8966,1.8184,1.728,1.6789,1.6763,1.5286,1.4044,1.3082,1.1744,1.1058,1.0918,0.9587,0.9248,0.9631,0.9631,0.9631,0.9661,1.0079,0.9961,0.9597,1.0079,0.9961,0.9597,1.0118,1.0283,1.0283,1.0283,1.0283,1.0283,1.0283,1.0322,1.0428,1.0867,1.0687,1.0544,1.1516,1.1105,1.0544,1.1516,1.1394,1.1132,1.1664,1.2138,1.2365,1.192,1.1811,1.1941,1.237,1.2866,1.3376,1.3921,1.4034,1.4284,1.4881,1.4479,1.4664,1.6262,1.5952,1.582,1.6423,1.6522,1.6522,1.6522,1.6522,1.6522,1.6522,1.6522,1.6522,1.6522,1.6522,1.6522,1.6522,1.6522,1.6522,1.6522,1.6522,1.6522,1.6522,1.7034,1.6993,0.0,0.0,0.0,0.0,0.0,0.0,0.0,0.0,0.0,0.0,0.0,0.0,0.0,0.0,0.0,0.0,0.0,0.0,0.0,0.0,0.0,0.0,0.0,0.0,0.0,0.0,0.0,0.0,0.0,0.0,2.0246,1.9335,1.865,1.8208,1.728,1.6459,1.5724,1.4892,1.3997,1.3013,1.1696,1.0702,1.0059,0.9025,0.8479,0.8406,0.896,0.9228,0.9223,0.931,0.9441,0.9545,0.934,0.9558,1.0,0.9843,1.0,1.0283,1.0283,1.0283,1.0283,1.0283,1.0283,1.0322,1.0505,1.0428,1.0438,1.1094,1.0802,1.0544,1.1553,1.118,1.0764,1.159,1.2429,1.297,1.281,1.3033,1.3337,1.3471,1.4209,1.4752,1.4659,1.5193,1.5575,1.5484,1.5562,1.5856,1.6454,1.6293,1.6238,1.6479,1.6522,1.6522,1.6522,1.6522,1.6522,1.6522,1.6522,1.6522,1.6522,1.6522,1.6522,1.6522,1.6522,1.6522,1.6522,1.6522,1.6522,1.6522,1.7034,1.7188,1.1943,0.0,0.0,0.0,0.0,0.0,0.0,0.0,0.0,0.0,0.0,0.0,0.0,0.0,0.0,0.0,0.0,0.0,0.0,0.0,0.0,0.0,0.0,0.0,0.0,0.0,0.0,0.0,0.0,0.0,1.9935,1.9075,1.8333,1.7743,1.7126,1.6254,1.5104,1.469,1.3997,1.2975,1.1635,1.0646,0.9984,0.8963,0.8368,0.8153,0.876,0.9004,0.9018,0.9207,0.931,0.9337,0.9247,0.9358,0.9531,0.9709,0.9883,1.004,1.0244,1.0283,1.0283,1.0283,1.0283,1.0283,1.0283,1.0283,1.0361,1.0687,1.0544,1.0428,1.1105,1.0812,1.0505,1.133,1.2332,1.3091,1.3281,1.3715,1.4162,1.4361,1.5112,1.563,1.5454,1.6032,1.6396,1.6019,1.6283,1.6522,1.6522,1.6522,1.6522,1.6522,1.6522,1.6522,1.6522,1.6522,1.6522,1.6522,1.6522,1.6522,1.6522,1.6522,1.6522,1.6522,1.6522,1.6522,1.6522,1.6522,1.6595,1.6795,1.7312,1.7747,0.0,0.0,0.0,0.0,0.0,0.0,0.0,0.0,0.0,0.0,0.0,0.0,0.0,0.0,0.0,0.0,0.0,0.0,0.0,0.0,0.0,0.0,0.0,0.0,0.0,0.0,0.0,0.0,0.0,2.105,1.9396,1.8842,1.8052,1.6866,1.6815,1.6254,1.5134,1.4707,1.3969,1.2949,1.1641,1.0929,1.0809,0.951,0.896,0.8984,0.9014,0.9023,0.9082,0.9922,0.9706,0.8919,0.9916,0.936,0.8265,0.9732,0.9952,0.9579,1.0118,1.0264,1.0293,1.0273,1.0273,1.0264,1.0312,1.0283,1.0283,1.0283,1.0283,1.0283,1.0283,1.0322,1.0467,1.0905,1.1839,1.2746,1.3191,1.3724,1.4317,1.4898,1.5393,1.5869,1.6421,1.6522,1.6522,1.6522,1.6522,1.6522,1.6522,1.6522,1.6522,1.6522,1.6522,1.6522,1.6522,1.6522,1.6522,1.6522,1.6522,1.6522,1.6522,1.6522,1.6522,1.6522,1.6522,1.6522,1.6522,1.6522,1.6795,1.7312,1.7867,1.8688,0.3661,0.0,0.0,0.0,0.0,0.0,0.0,0.0,0.0,0.0,0.0,0.0,0.0,0.0,0.0,0.0,0.0,0.0,0.0,0.0,0.0,0.0,0.0,0.0,0.0,0.0,0.0,0.0,2.1425,2.0559,1.936,1.8842,1.8173,1.7199,1.6942,1.6374,1.5462,1.4424,1.3429,1.2423,1.1327,1.044,0.9811,0.9493,0.9179,0.894,0.9293,0.9427,0.9447,0.968,0.9626,0.9411,0.9636,0.969,0.9684,0.9718,0.9647,0.9629,1.0128,0.9873,0.9463,1.0078,1.0068,0.9873,1.0186,1.0283,1.0283,1.0283,1.0283,1.0283,1.0283,1.084,1.1319,1.1057,1.1839,1.2721,1.3151,1.4029,1.4909,1.541,1.5611,1.5869,1.6421,1.6522,1.6522,1.6522,1.6522,1.6522,1.6522,1.6522,1.6522,1.6522,1.6522,1.6522,1.6522,1.6522,1.6522,1.6522,1.6522,1.6522,1.6522,1.6522,1.6522,1.6522,1.6522,1.668,1.7076,1.668,1.6795,1.7312,1.8263,1.8855,0.0,0.0,0.0,0.0,0.0,0.0,1.8691,2.1377,0.0,0.0,0.0,0.0,0.0,0.0,0.0,0.0,0.0,0.0,0.0,0.0,0.0,0.0,0.0,0.0,0.0,0.0,0.0,0.0,2.1807,2.0633,1.9086,1.8753,1.8194,1.7344,1.6977,1.6496,1.5905,1.4819,1.3652,1.2455,1.1893,1.1069,0.9978,1.006,0.9885,0.9548,0.978,0.9795,0.9612,0.9563,0.9572,0.9585,0.9374,0.9312,0.9351,0.9303,0.9113,0.9009,0.9954,0.9685,0.909,0.9982,0.999,0.968,1.0156,1.0283,1.0283,1.0283,1.0283,1.0283,1.0283,1.0725,1.1105,1.0802,1.1531,1.2388,1.2831,1.399,1.5151,1.5592,1.5852,1.6132,1.6459,1.6522,1.6522,1.6522,1.6522,1.6522,1.6522,1.6522,1.6522,1.6522,1.6522,1.6522,1.6522,1.6522,1.6522,1.6522,1.6522,1.6522,1.6522,1.6522,1.6595,1.6837,1.6595,1.6752,1.7312,1.6993,1.7229,1.7987,1.8612,1.8893,0.0,0.0,0.0,0.0,0.0,0.0,1.4683,1.8114,2.1009,0.0,0.0,0.0,0.0,0.0,0.0,0.0,0.0,0.0,0.0,0.0,0.0,0.0,0.0,0.0,0.0,0.0,2.4685,2.3613,2.2492,2.0965,1.8875,1.8657,1.8235,1.7439,1.7052,1.668,1.6258,1.5418,1.4255,1.2802,1.2756,1.2068,1.0802,1.0821,1.0658,1.0368,1.0316,1.0059,0.9653,0.9529,0.9542,0.955,0.9133,0.8607,0.8158,0.8758,0.8526,0.8105,0.9628,0.9458,0.8809,0.9753,0.9753,0.9513,0.9935,1.0128,1.0205,1.0283,1.0283,1.0283,1.0283,1.0283,1.0283,1.0283,1.0992,1.1764,1.2289,1.3609,1.4867,1.5392,1.6051,1.6522,1.6522,1.6522,1.6522,1.6522,1.6522,1.6522,1.6522,1.6522,1.6522,1.6522,1.6522,1.6522,1.6522,1.6522,1.6522,1.6522,1.6522,1.6522,1.6522,1.6522,1.6752,1.7312,1.6951,1.6993,1.7463,1.7435,1.7867,1.8817,1.893,1.8968,0.0,0.0,0.0,0.0,0.0,0.0,0.99,1.3188,1.59,0.0,0.0,0.0,0.0,0.0,0.0,0.0,0.0,0.0,0.0,0.0,0.0,0.0,0.0,0.0,0.0,0.0,2.4921,2.39,2.2086,2.0696,1.9939,1.9072,1.8413,1.8023,1.7492,1.6784,1.5911,1.4896,1.3827,1.2706,1.1644,1.1023,1.079,1.0406,1.0241,1.0251,1.0278,1.0234,1.0128,0.9688,0.9512,0.9479,0.8967,0.8688,0.8576,0.8728,0.8428,0.8093,0.8776,0.8438,0.7759,0.8416,0.8493,0.8329,0.8557,0.911,0.9765,1.0166,1.0283,1.0283,1.0283,1.0283,1.0283,1.0283,1.0459,1.0805,1.1601,1.2424,1.3378,1.462,1.5744,1.6522,1.6522,1.6522,1.6522,1.6522,1.6522,1.6522,1.6522,1.6522,1.6522,1.6522,1.6522,1.6522,1.6522,1.6522,1.6522,1.6522,1.6522,1.6522,1.6522,1.6522,1.6752,1.7312,1.8066,1.8496,1.8574,1.8145,1.8066,1.8302,1.9132,1.9332,0.0,0.0,0.0,-0.1591,0.0,0.0,0.0,0.8165,1.0825,0.0,0.0,0.0,0.0,0.0,0.0,0.0,0.0,0.0,0.0,0.0,0.0,0.0,0.0,0.0,0.0,0.0,2.5046,2.3981,2.2783,2.16,2.0418,1.9741,1.903,1.8225,1.7726,1.7106,1.6321,1.5283,1.4231,1.3205,1.2194,1.1547,1.1222,1.072,1.0545,1.0583,1.0367,1.0166,0.9843,0.9319,0.8958,0.8659,0.823,0.815,0.8292,0.8103,0.7801,0.7631,0.8407,0.8086,0.7431,0.8201,0.8163,0.7895,0.8334,0.8774,0.9159,0.9439,0.9677,0.9922,0.9922,1.0079,1.0283,1.0283,1.0283,1.0459,1.1094,1.1899,1.2776,1.3737,1.4834,1.5788,1.638,1.6522,1.6522,1.6522,1.6522,1.6522,1.6522,1.6522,1.6522,1.6522,1.6522,1.6522,1.6522,1.6522,1.6522,1.6522,1.6522,1.6637,1.6879,1.6909,1.7146,1.7706,1.8496,1.8893,1.8893,1.8612,1.865,1.8893,1.9169,1.9169,0.0,0.0,0.0,0.0,0.0,0.027,0.0,0.0,0.0,0.0,0.0,0.0,0.0,0.0,0.0,0.0,0.0,0.0,0.0,0.0,0.0,0.0,0.0,0.0,0.0,0.0,2.5177,2.4188,2.3728,2.2782,2.1121,2.0675,1.9955,1.8763,1.828,1.7639,1.6841,1.591,1.4854,1.3649,1.3049,1.2394,1.1697,1.1171,1.0891,1.0829,1.0467,1.0,0.9439,0.8918,0.8398,0.7841,0.7477,0.7496,0.7709,0.743,0.7173,0.7147,0.8054,0.783,0.7277,0.8054,0.7903,0.7568,0.8318,0.8561,0.8545,0.8593,0.8927,0.9243,0.9243,0.9566,0.9944,1.0099,1.0166,1.0273,1.0779,1.1662,1.2487,1.2981,1.3855,1.4926,1.6107,1.6337,1.638,1.6466,1.6522,1.6522,1.6522,1.6522,1.6522,1.6522,1.6522,1.6522,1.6522,1.6522,1.6522,1.6522,1.6522,1.668,1.7105,1.7353,1.7666,1.8106,1.8727,1.9043,1.9043,1.9043,1.9281,1.969,1.9244,1.9043,0.0,0.0,0.0,0.0,-0.3616,0.0,0.0,0.0,-0.0105,0.0,0.0,0.0,0.0,0.0,0.0,0.0,0.0,0.0,0.0,0.0,0.0,0.0,0.0,0.0,0.0,0.0,0.0,2.4909,2.4231,2.3591,2.3002,2.2066,2.1225,2.0622,1.9678,1.8455,1.6901,1.636,1.5231,1.3514,1.3149,1.2549,1.1782,1.1179,1.0723,1.04,1.0322,1.0,0.9439,0.8918,0.8398,0.7829,0.728,0.7078,0.7098,0.7064,0.7036,0.7021,0.7147,0.712,0.7017,0.6867,0.679,0.6876,0.7717,0.7995,0.8016,0.821,0.8303,0.8341,0.8341,0.8379,0.8617,0.9397,0.9597,0.9827,1.0688,1.1335,1.1977,1.2903,1.3545,1.4283,1.5499,1.572,1.5864,1.6423,1.6522,1.6522,1.6522,1.6522,1.6522,1.6522,1.6522,1.6522,1.6522,1.6522,1.6522,1.6522,1.6522,1.6522,1.6595,1.7504,1.8027,1.8106,1.9095,1.9603,1.9603,1.9603,1.9639,1.969,1.9639,1.9603,0.0,0.0,0.0,0.0,0.0,0.0,0.0,0.0,-0.4847,0.0,0.0,0.0,0.0,0.0,0.0,0.0,0.0,0.0,0.0,0.0,0.0,0.0,0.0,0.0,0.0,0.0,0.0,0.0,0.0,2.4312,2.3671,2.2989,2.2151,2.1121,2.0554,1.9379,1.7513,1.6897,1.5753,1.4084,1.322,1.2463,1.1799,1.1177,1.0687,1.0283,0.9961,0.9518,0.8999,0.8439,0.7904,0.7363,0.7105,0.6979,0.6979,0.6979,0.6979,0.6979,0.6979,0.6979,0.689,0.6278,0.5966,0.5872,0.6073,0.6252,0.6476,0.6902,0.7133,0.7346,0.7881,0.8101,0.8336,0.8913,0.9161,0.9358,0.9767,1.033,1.0891,1.1323,1.2063,1.2918,1.3799,1.488,1.5676,1.5952,1.6281,1.6522,1.6522,1.6522,1.6522,1.6522,1.6522,1.6522,1.6522,1.6522,1.6637,1.6951,1.7544,1.7907,1.7907,1.8612,1.9043,1.9043,1.9479,1.969,1.969,1.969,1.969,1.969,1.969,1.969,-0.5007,0.0,0.0,0.0,0.0,0.0,0.0,0.0,0.0,0.0,0.0,0.0,0.0,0.0,0.0,0.0,0.0,0.0,0.0,0.0,0.0,0.0,0.0,0.0,0.0,0.0,0.0,0.0,2.5256,0.0,2.4188,2.3877,2.3098,2.179,2.1405,2.0332,1.8499,1.7503,1.6276,1.4768,1.3432,1.2462,1.1763,1.1204,1.062,1.004,0.9686,0.9119,0.8439,0.7897,0.7314,0.6768,0.6592,0.655,0.655,0.6725,0.6768,0.6768,0.6592,0.655,0.6428,0.579,0.5471,0.5277,0.5074,0.5139,0.5379,0.5752,0.5961,0.6209,0.6916,0.7295,0.7632,0.8132,0.849,0.884,0.9058,0.9534,0.9974,1.0072,1.0728,1.1432,1.1902,1.3733,1.5174,1.532,1.5864,1.6238,1.6238,1.638,1.6522,1.6522,1.6522,1.6522,1.6522,1.6522,1.668,1.7076,1.7947,1.8458,1.8458,1.9132,1.9479,1.9479,1.9639,1.969,1.969,1.969,1.969,1.969,1.969,1.969,0.0,0.0,0.0,-0.6588,0.0,0.0,0.0,0.0,-0.9044,0.0,0.0,0.0,0.0,0.0,-1.0686,-0.6687,0.0,0.0,0.0,0.0,0.0,0.0,0.0,0.0,0.0,0.0,0.0,0.0,2.5293,0.0,2.4798,2.4769,2.4259,2.3188,2.2433,2.1384,1.9947,1.8174,1.6668,1.5472,1.3846,1.2634,1.1774,1.1223,1.0466,0.9518,0.9518,0.8918,0.787,0.7294,0.6713,0.6179,0.5567,0.5346,0.5437,0.6007,0.6221,0.6136,0.5567,0.5346,0.5346,0.5341,0.5303,0.5303,0.5298,0.5298,0.5262,0.5009,0.4944,0.4939,0.4984,0.5389,0.6011,0.6844,0.7523,0.8143,0.8923,0.9228,0.9387,0.9645,0.9856,0.9956,0.9993,1.2144,1.405,1.4652,1.5231,1.5632,1.5632,1.6139,1.6522,1.6522,1.6522,1.6522,1.6522,1.6522,1.6522,1.6522,1.7034,1.7353,1.7353,1.838,1.893,1.893,1.9442,1.969,1.969,1.969,1.969,1.969,1.969,1.969,0.0,0.0,-0.7444,-0.79,0.0,0.0,0.0,0.0,0.0,0.0,0.0,0.0,0.0,0.0,-1.4482,-1.4012,-1.473,-1.3231,0.0,0.0,0.0,0.0,0.0,0.0,0.0,0.0,0.0,2.4742,2.5141,2.5239,0.0,2.4873,2.4364,2.3422,2.3021,2.1918,2.0012,1.9059,1.7526,1.5499,1.4289,1.3022,1.1774,1.0885,1.0118,0.9478,0.8756,0.8013,0.7259,0.6713,0.5899,0.5029,0.5211,0.4817,0.4248,0.5216,0.561,0.5567,0.5389,0.4774,0.416,0.4561,0.4208,0.3639,0.4049,0.4188,0.4216,0.4491,0.4462,0.4432,0.503,0.5173,0.528,0.5758,0.6154,0.6615,0.7288,0.7647,0.7962,0.84,0.8881,0.9244,0.9244,1.0346,1.1656,1.2904,1.3972,1.4695,1.4971,1.5543,1.5908,1.5908,1.6238,1.6522,1.6522,1.7146,1.7544,1.7544,1.8419,1.8893,1.8893,1.9244,1.9442,1.9442,1.9603,1.969,1.969,1.969,1.969,1.969,1.969,1.969,-0.7182,-0.7925,0.0,0.0,-0.9636,0.0,-1.1015,0.0,0.0,0.0,0.0,0.0,0.0,0.0,-1.7009,-1.8252,-1.939,-1.8603,0.0,-0.7034,0.0,0.0,0.0,0.0,0.0,0.0,1.8351,2.0977,2.2896,2.4135,0.0,0.0,2.3933,2.3029,2.2877,2.1864,1.9876,1.9111,1.7568,1.5273,1.4085,1.2689,1.1185,1.034,0.957,0.8878,0.7972,0.7259,0.6622,0.5637,0.4765,0.4065,0.4069,0.3588,0.3061,0.4204,0.4422,0.4073,0.4287,0.3719,0.2973,0.3328,0.2978,0.2453,0.286,0.2948,0.3043,0.3392,0.3349,0.3357,0.3895,0.4081,0.419,0.4569,0.4958,0.548,0.6401,0.6788,0.7101,0.7669,0.8171,0.8432,0.8073,0.8829,0.9948,1.1417,1.2685,1.3594,1.3964,1.4767,1.5365,1.5588,1.5964,1.6281,1.6466,1.7105,1.7544,1.7544,1.838,1.8855,1.8855,1.9207,1.9406,1.9406,1.9603,1.969,1.969,1.969,1.969,1.969,1.969,1.969]}]]